GFSWCAN_sfc_rhum_000.txt.gz
RH
66 66 64 65 66 64 62 63 62 58 59 61 63 70 74 80 85 95 98 93 92 93 84 70 71 92 97 92 94 93 98 97 99 98 96 97 79 94 93 88 89 89 91 88 85 96 93 64 55 55 52 71 72 71
67 68 69 68 67 63 60 65 65 59 61 62 63 70 73 76 85 90 99 95 94 95 93 84 75 71 76 79 93 97 97 94 88 93 93 95 88 97 73 97 81 89 80 81 85 81 67 74 71 75 61 67 73 75
69 70 70 68 67 64 63 62 64 64 62 63 63 69 72 73 84 91 98 99 97 98 92 90 87 83 88 88 88 96 97 94 95 85 91 92 80 85 96 88 90 83 75 73 74 73 75 75 73 70 64 68 69 70
70 68 68 64 64 66 64 62 66 65 64 63 65 70 72 73 82 88 98 97 97 94 97 90 85 92 91 95 95 94 98 95 96 99 92 91 90 84 87 72 87 82 76 73 72 75 75 74 74 69 70 67 68 69
70 66 66 70 70 62 66 65 67 66 66 64 67 69 72 74 79 92 96 95 94 95 97 95 87 92 96 96 96 95 97 97 98 99 99 92 95 89 92 88 85 68 79 76 78 60 60 62 66 66 65 70 69 70
70 71 70 70 71 66 68 67 67 68 66 64 67 69 74 74 78 97 100 98 92 90 95 100 90 92 98 97 96 96 97 97 99 99 96 94 88 91 95 93 69 63 59 61 58 67 70 71 69 70 71 71 69 70
72 73 72 70 71 68 67 68 69 68 64 66 69 74 76 74 89 98 98 99 89 87 95 100 99 88 92 95 97 98 98 99 98 98 98 91 86 86 91 94 68 70 59 68 65 62 70 70 72 69 68 69 69 70
75 70 70 68 66 68 69 68 65 64 68 69 72 77 74 74 84 98 97 96 89 93 97 100 100 98 84 98 99 98 96 98 96 96 93 93 85 92 95 82 76 74 71 70 75 72 68 70 68 70 66 63 68 73
72 70 69 68 68 66 66 64 63 66 68 74 77 79 90 97 99 98 94 91 94 92 98 100 100 100 92 97 95 97 98 99 95 97 97 94 94 93 78 75 72 70 67 81 81 72 67 66 67 64 63 63 68 73
71 71 70 69 67 66 64 64 62 62 68 76 92 97 97 96 97 95 99 100 100 100 97 98 96 99 94 96 98 95 98 99 100 96 92 98 98 83 79 78 68 71 79 75 79 89 84 81 75 70 64 61 65 72
72 72 70 70 68 67 65 62 61 65 74 96 99 99 97 88 99 99 100 99 99 100 99 96 92 98 93 94 97 94 99 100 98 95 94 96 96 87 82 84 75 77 73 72 70 69 67 61 61 63 69 70 71 73
72 71 71 70 69 68 64 61 68 86 95 92 96 95 98 99 100 100 100 100 100 98 99 98 98 94 97 88 94 94 97 98 93 93 98 97 88 85 82 87 83 80 78 76 70 67 60 55 58 64 71 77 82 90
71 71 71 70 70 63 62 65 66 70 81 95 99 100 99 99 100 99 99 100 100 100 100 98 98 88 88 91 96 95 96 97 92 97 97 92 94 87 89 93 91 84 76 68 62 60 64 73 70 68 80 86 89 93
72 71 72 71 66 60 69 69 68 77 97 100 99 98 99 99 99 94 94 97 94 100 100 93 95 93 86 94 94 94 95 92 98 100 90 93 93 88 92 90 79 80 70 66 67 68 73 76 85 85 85 86 85 90
71 73 77 71 60 71 70 70 75 94 100 99 100 98 99 99 100 99 100 98 100 96 90 93 96 82 97 94 87 93 97 99 96 87 89 94 96 93 89 79 73 70 70 72 69 68 74 76 77 90 90 88 82 80
70 74 74 63 73 70 70 87 97 98 100 99 99 99 99 100 99 99 99 100 100 89 94 94 93 91 93 91 96 94 95 95 84 94 96 95 94 84 79 75 72 67 60 58 59 63 67 72 77 82 78 74 71 66
70 92 71 77 72 70 77 99 100 99 99 99 99 100 100 100 99 98 89 91 89 88 94 94 87 81 95 99 98 92 88 87 95 100 99 98 93 81 78 75 69 62 59 62 62 64 69 69 67 67 72 71 63 64
92 90 82 72 71 85 95 100 97 99 99 99 99 99 99 99 97 90 87 93 95 98 95 87 92 99 98 92 94 91 98 99 100 98 98 93 87 83 73 73 69 65 65 66 67 73 73 73 73 72 78 78 76 72
86 81 68 71 76 82 90 92 98 100 99 99 98 94 98 98 97 93 92 92 87 88 94 96 92 95 94 95 93 100 100 98 96 98 94 86 79 76 76 74 75 75 78 77 67 67 70 66 64 64 62 60 65 63
72 71 73 71 74 85 89 96 95 98 99 97 98 98 98 99 99 99 98 93 96 99 94 96 92 90 92 91 97 98 98 95 91 95 97 93 87 84 81 77 78 82 81 83 81 75 71 70 66 63 64 64 63 66
84 85 78 86 94 87 92 98 99 97 94 98 98 99 97 99 100 100 100 100 100 100 100 98 92 96 94 92 91 91 86 88 91 88 84 96 92 84 87 85 76 69 72 73 75 74 71 71 71 67 67 68 66 58
93 78 92 87 93 91 98 98 99 97 99 98 98 99 99 98 99 99 99 99 98 97 96 97 98 95 93 93 89 82 87 86 86 81 79 79 86 88 86 83 76 82 82 85 76 75 76 70 65 63 63 64 58 55
82 77 92 89 77 76 76 91 97 99 100 96 97 98 98 98 98 99 98 97 96 96 94 95 99 97 96 93 87 87 87 85 87 83 79 80 82 83 85 82 81 86 89 86 78 79 80 69 64 59 56 52 51 54
63 90 82 85 90 82 76 92 83 98 97 97 98 96 96 98 97 97 96 98 96 95 95 97 94 93 90 88 91 91 96 89 92 92 81 79 87 84 78 78 76 78 77 76 79 80 73 65 63 52 54 61 62 54
65 62 77 70 91 85 98 95 98 97 100 98 100 96 97 98 97 97 96 97 95 92 93 96 96 95 92 92 89 86 79 79 88 92 86 76 82 81 85 78 76 77 76 83 84 84 82 72 69 71 72 72 77 83
74 71 74 83 92 88 96 100 100 99 99 99 97 97 98 98 97 96 94 96 91 94 94 93 92 95 95 90 91 91 94 79 75 86 95 92 82 83 90 87 87 86 80 75 79 79 76 73 74 77 75 72 72 90
83 78 84 79 84 83 91 85 84 97 100 100 98 97 98 97 96 93 89 91 93 95 94 94 96 94 95 92 91 93 93 95 94 94 93 90 83 80 82 83 83 83 72 73 70 69 72 74 80 83 87 86 89 90
80 76 90 93 98 98 96 99 100 100 100 89 87 97 97 96 95 93 95 94 95 95 96 96 95 94 94 95 95 93 94 94 94 88 82 85 88 93 92 85 81 77 75 75 75 75 75 76 77 78 79 84 89 87
93 89 94 100 100 100 100 96 98 98 85 99 100 97 95 92 98 97 91 94 95 96 96 95 95 95 95 94 95 95 96 93 90 94 92 93 93 94 84 78 78 76 74 73 72 79 82 76 76 79 83 83 90 97
89 94 99 100 98 95 95 98 100 89 87 82 77 96 92 94 96 97 94 95 96 96 97 96 96 96 95 94 95 95 95 95 96 89 91 93 94 91 86 82 80 78 74 73 71 72 73 82 82 85 87 90 86 90
98 97 100 100 98 99 99 95 95 75 92 99 95 98 96 98 95 95 95 95 96 96 96 96 96 96 95 95 95 92 92 90 87 86 84 86 86 87 88 88 88 86 85 85 84 84 85 84 84 86 89 96 96 95
100 99 97 99 100 99 98 100 100 100 100 99 99 99 98 95 96 95 94 95 96 95 95 95 94 95 95 92 89 86 84 86 84 82 82 85 88 88 86 84 83 81 80 80 82 83 85 88 90 91 91 97 97 96
99 96 100 100 100 100 99 97 100 100 100 100 99 100 97 94 95 94 94 95 95 95 95 95 95 94 94 91 90 86 83 81 77 75 79 82 84 85 82 80 79 78 79 82 85 85 87 89 94 94 96 97 98 97

GFSWCAN_sfc_rhum_003.txt.gz
RH
70 71 68 66 67 64 64 62 63 63 63 60 63 64 69 74 80 93 94 93 100 92 84 76 75 89 94 87 93 91 98 99 99 95 97 91 91 93 92 86 90 85 79 96 92 95 90 71 64 58 56 77 68 68
72 69 63 67 65 61 62 63 62 64 65 63 64 63 66 70 78 87 99 95 97 95 93 87 82 75 72 74 87 96 94 95 94 94 93 92 94 96 88 94 86 90 79 83 76 79 68 73 73 76 66 71 82 79
72 64 61 64 67 67 61 64 64 64 65 64 64 63 66 70 74 84 98 98 98 99 96 94 87 79 83 81 77 94 96 90 98 93 94 92 88 93 89 95 90 84 79 83 78 75 77 74 76 75 70 76 80 78
70 68 68 68 67 68 68 64 66 65 65 65 64 64 65 71 75 76 96 93 98 96 98 90 87 92 92 94 92 89 96 97 98 99 98 94 91 84 89 84 89 86 80 79 79 77 74 71 77 75 76 74 73 73
72 68 70 70 68 68 67 66 66 67 67 68 63 64 66 71 75 83 92 92 94 100 98 96 88 96 97 97 96 95 98 97 99 99 99 94 95 92 94 91 91 79 80 80 83 66 60 68 72 73 72 75 71 69
70 72 68 68 67 65 66 69 69 69 65 61 64 66 68 72 74 92 98 99 96 97 95 100 91 96 95 95 96 98 97 98 99 99 97 95 87 90 96 96 78 71 68 70 69 73 77 78 72 72 75 75 70 72
72 72 68 66 65 67 66 65 64 61 61 63 65 67 72 73 88 95 94 97 90 97 98 100 99 92 95 93 97 98 98 99 99 99 99 95 94 90 92 94 72 76 70 78 74 68 72 78 76 76 74 75 74 76
73 71 68 68 67 65 64 63 62 62 59 60 63 68 70 72 78 93 87 83 90 98 98 100 100 98 93 99 99 98 96 97 98 99 96 96 92 90 94 83 82 80 79 78 81 78 70 75 75 76 71 68 73 78
71 70 70 69 68 66 65 64 62 60 62 67 70 76 89 95 99 97 94 95 94 94 99 100 100 100 94 98 96 98 98 99 98 98 97 94 95 95 82 76 81 76 72 79 82 77 73 73 74 72 70 70 74 77
72 71 71 70 70 69 67 65 61 57 67 68 87 94 99 98 82 96 99 100 100 100 98 99 94 96 97 97 99 97 97 99 100 96 96 99 98 84 80 74 73 73 78 75 79 89 86 85 79 73 69 63 60 65
69 71 71 71 70 70 69 62 61 65 74 94 99 99 97 86 98 99 100 100 100 100 98 98 93 94 94 96 97 96 99 99 99 94 98 97 95 90 83 85 81 81 72 72 71 70 70 64 64 66 72 72 72 68
68 70 71 71 71 70 64 61 66 79 89 90 91 91 98 99 100 100 99 100 100 95 99 98 99 94 97 90 94 95 98 97 89 96 99 98 88 87 83 89 87 82 79 75 69 67 64 60 60 65 72 78 82 83
67 69 71 71 71 70 58 68 68 67 74 93 98 100 99 99 99 99 98 100 100 100 100 99 99 91 94 91 96 95 97 97 92 98 97 94 94 88 88 93 92 85 75 69 66 63 63 72 71 68 81 87 88 90
69 70 71 72 64 63 71 69 68 76 94 99 99 96 99 98 99 99 97 98 96 100 99 94 96 93 90 94 95 98 94 89 99 100 90 94 90 86 93 93 85 82 73 70 70 70 74 75 84 85 87 87 86 90
70 71 72 67 66 73 70 70 79 96 100 99 99 97 99 100 100 99 100 99 98 99 91 93 96 84 98 94 90 92 97 99 97 88 92 93 94 95 94 89 84 77 74 76 75 74 81 80 81 92 91 90 88 86
72 72 72 66 74 71 69 87 96 98 97 99 99 98 99 100 100 100 99 99 99 98 96 94 93 93 92 92 95 96 95 96 84 94 96 95 93 91 89 84 80 74 70 68 68 69 68 70 77 85 81 80 79 74
70 91 73 76 73 71 77 97 100 99 98 95 99 100 100 99 100 100 89 87 89 97 99 94 89 82 95 99 98 92 89 88 95 98 100 98 95 90 86 83 78 69 66 66 68 69 74 71 71 72 76 71 66 66
91 90 82 72 73 86 92 100 98 98 95 98 99 98 89 95 99 99 91 88 97 99 95 90 93 99 92 91 92 89 94 99 100 99 98 95 90 88 79 79 76 72 68 66 69 76 76 77 77 77 81 79 75 71
88 86 71 71 77 92 95 88 99 99 99 91 91 99 95 92 92 97 97 92 91 92 96 94 92 95 94 95 91 97 99 98 96 98 95 90 88 83 82 81 80 79 79 76 68 68 71 66 68 65 62 59 63 61
73 72 74 71 77 93 86 92 96 96 98 96 94 93 99 94 94 98 98 98 98 100 98 94 88 86 90 92 96 98 98 95 96 97 96 94 92 89 85 81 80 80 82 77 73 69 67 67 62 60 61 58 58 61
83 86 78 84 94 84 88 96 100 95 94 96 98 100 98 99 99 99 100 100 100 100 100 98 93 94 92 90 87 91 88 91 94 91 94 98 94 92 92 89 80 72 70 68 71 71 68 67 66 61 63 62 58 54
93 76 87 83 93 91 98 93 100 98 99 96 100 100 99 99 98 98 98 99 99 97 96 96 96 92 90 90 90 86 89 90 87 85 80 84 92 93 88 84 77 81 77 79 72 71 75 72 68 65 62 60 56 56
79 75 91 89 76 71 72 90 94 99 99 99 99 99 98 99 98 97 98 97 97 96 96 94 96 94 93 91 92 92 88 88 92 90 83 84 83 84 86 85 83 86 89 86 77 76 77 69 67 64 60 55 54 55
62 87 76 80 84 76 71 92 84 98 98 97 100 99 94 99 97 98 96 96 91 90 91 95 97 95 91 88 94 98 96 84 84 86 82 83 89 87 80 79 76 76 77 76 76 75 70 64 64 56 55 63 60 54
70 62 79 65 89 81 96 97 100 97 100 100 100 98 96 98 97 99 97 96 93 90 93 92 92 95 95 94 93 96 97 88 88 91 89 76 79 78 84 78 76 77 76 82 79 77 78 72 71 71 69 68 74 79
82 76 79 73 89 80 92 90 99 98 99 100 98 97 98 98 98 98 98 97 92 95 93 93 91 90 94 93 93 95 96 96 92 93 95 79 74 80 89 88 90 87 80 75 78 79 75 73 72 74 73 68 68 81
84 79 76 69 78 80 90 85 84 97 100 100 100 99 99 98 97 95 92 93 92 94 93 93 94 94 95 94 93 94 95 96 96 95 95 95 93 84 82 85 87 83 73 72 70 68 70 69 71 79 87 84 83 80
79 73 91 96 98 98 92 99 100 100 100 91 90 100 99 94 92 97 98 97 95 92 94 95 96 96 96 96 95 93 95 94 95 94 93 93 93 95 93 84 77 77 81 79 77 73 68 74 78 78 76 79 84 82
93 86 93 100 100 100 100 92 95 96 85 98 97 98 96 96 98 98 96 93 93 96 96 96 96 97 96 95 96 96 96 95 93 95 94 94 94 95 92 92 94 94 88 80 70 78 80 74 72 73 76 78 92 96
95 95 98 100 98 94 93 97 99 95 89 82 77 97 96 97 97 98 98 95 96 96 96 97 97 97 96 95 96 95 95 96 96 85 89 92 94 94 94 92 86 79 74 72 69 69 72 78 79 81 85 86 84 84
98 97 100 100 98 98 99 95 94 74 93 100 96 99 98 98 97 98 97 96 96 96 97 97 96 96 96 96 96 95 95 95 95 94 90 91 92 92 85 78 75 75 77 80 80 80 78 78 80 84 83 87 88 92
100 99 98 100 100 99 98 100 100 100 100 100 99 100 100 99 99 98 94 96 96 96 94 96 95 95 95 95 95 94 90 93 93 94 93 90 88 86 84 83 82 79 77 76 75 74 77 79 80 82 83 89 94 94
99 100 99 100 100 100 99 98 100 100 100 100 100 100 98 98 98 95 94 96 96 96 95 95 96 95 95 92 90 88 84 82 79 78 80 80 81 83 80 77 74 72 72 74 76 75 79 83 86 89 90 93 97 95

GFSWCAN_sfc_rhum_006.txt.gz
RH
66 69 69 66 64 66 65 59 63 63 64 64 63 64 63 68 76 89 95 97 100 97 88 75 75 90 91 88 89 93 93 98 99 99 99 97 98 92 93 84 91 91 91 92 92 96 81 73 69 81 65 71 73 76
66 69 66 66 67 66 66 66 66 65 64 65 63 64 62 64 73 82 96 88 92 99 92 91 81 80 73 70 85 93 91 93 92 98 96 93 95 95 92 92 89 93 79 84 83 77 67 75 72 72 69 71 82 80
69 71 67 68 67 65 65 64 64 64 66 65 64 64 62 64 69 80 96 95 97 98 93 95 90 84 80 76 74 91 95 88 97 98 97 94 91 94 96 92 91 86 83 87 80 76 79 75 78 79 78 84 86 82
72 70 67 68 66 64 63 65 67 67 66 66 66 62 63 65 69 74 94 92 97 98 98 91 88 92 93 91 87 84 92 96 98 99 99 95 89 88 92 87 90 85 84 81 82 76 71 73 78 82 85 82 78 77
73 68 70 67 66 64 64 64 63 63 62 61 61 62 64 66 70 79 89 91 88 99 98 97 90 98 97 96 95 93 95 97 98 99 98 98 92 92 96 92 92 82 80 80 84 72 67 71 78 78 80 81 73 72
72 70 71 67 66 65 64 63 62 61 60 61 60 60 62 66 69 95 98 99 95 99 99 100 93 98 96 94 95 97 97 98 98 98 98 97 87 90 96 96 75 76 75 75 73 77 81 82 77 81 80 78 72 71
73 69 68 68 67 66 65 64 63 62 60 60 63 62 63 65 87 94 92 97 86 94 99 100 99 95 92 89 96 98 98 98 99 96 99 98 96 93 96 96 74 79 75 79 80 73 76 79 76 78 76 79 78 78
73 66 69 67 69 67 66 66 65 63 59 59 63 66 68 71 74 92 86 83 85 98 99 100 100 98 94 98 99 98 98 99 99 98 98 97 93 93 98 86 84 83 81 80 84 82 73 81 82 82 77 71 74 77
70 62 71 67 68 68 68 68 66 62 64 72 68 76 89 92 97 96 87 91 90 98 99 99 100 99 96 98 97 99 98 99 98 98 98 98 96 98 86 83 84 81 76 82 86 81 79 79 83 79 73 70 72 78
75 63 72 69 68 70 70 68 62 62 68 69 88 92 98 95 82 89 98 99 100 100 99 99 94 94 95 98 99 98 97 99 100 97 95 99 98 80 79 73 72 77 79 78 82 92 90 89 84 78 72 67 68 72
74 65 63 66 70 71 70 66 62 67 72 94 98 99 97 86 97 99 100 100 100 100 98 98 95 92 96 98 97 97 99 100 100 93 97 98 95 90 85 86 82 76 73 73 72 71 70 68 73 72 72 72 72 71
74 69 68 69 71 70 64 64 68 86 93 90 90 89 98 98 100 100 100 100 96 94 99 98 98 94 97 93 95 96 98 98 90 95 99 97 91 88 87 90 88 81 75 72 73 72 70 66 63 65 70 71 75 74
73 72 70 71 71 65 69 70 67 70 78 93 96 100 99 99 99 99 99 99 100 100 100 99 99 95 95 93 96 94 95 95 93 99 97 94 94 87 87 92 91 87 77 74 74 70 67 74 72 68 78 78 73 71
72 72 72 72 67 69 73 69 68 84 95 96 99 95 98 98 99 99 99 99 96 100 100 97 98 97 89 95 94 97 94 92 99 99 91 93 91 85 92 93 91 87 78 75 75 74 77 78 85 83 82 78 73 77
72 73 73 68 69 74 70 70 79 96 99 98 98 97 98 100 100 100 100 100 98 100 98 95 97 85 97 95 92 95 97 98 97 91 92 94 94 95 95 92 90 84 82 85 83 80 84 83 85 92 88 83 79 79
72 74 73 67 75 72 70 90 96 98 100 96 98 98 95 99 98 99 100 100 98 99 98 98 94 94 91 94 97 98 98 97 86 94 95 96 91 92 92 90 87 82 79 76 76 75 77 80 83 89 85 83 77 72
70 91 74 76 75 72 78 97 100 98 97 91 98 93 94 98 98 98 98 95 86 99 100 98 92 84 94 99 98 92 89 88 94 97 98 99 98 93 91 87 83 78 77 76 75 76 78 77 74 75 83 76 68 66
81 88 79 78 75 85 88 100 97 95 91 95 99 100 97 96 87 88 94 95 98 100 98 97 89 99 93 94 93 90 93 99 99 99 98 96 90 90 85 86 82 79 78 78 74 78 78 77 79 80 83 80 76 72
82 88 76 72 77 94 96 91 98 95 94 90 84 87 96 96 94 90 87 95 98 98 99 100 94 96 93 95 93 96 98 99 97 98 96 92 90 89 87 87 87 85 84 82 72 70 71 67 70 70 64 60 64 63
74 73 74 70 78 95 90 95 95 94 96 96 91 92 93 94 94 95 93 97 99 100 100 99 94 82 91 93 97 98 98 94 96 96 96 94 94 92 91 87 85 85 83 81 75 69 67 68 63 61 61 60 59 62
79 84 78 82 95 93 93 93 97 96 94 90 87 98 98 99 99 99 99 99 100 100 100 99 99 92 87 92 93 94 93 94 94 90 92 99 95 92 93 91 85 75 73 70 68 69 66 65 65 60 60 56 54 52
92 74 83 81 92 92 97 89 98 98 96 93 99 100 98 97 100 100 99 100 99 97 96 96 96 96 94 88 88 89 91 91 90 91 84 86 95 96 94 87 81 85 82 79 71 66 68 67 63 58 55 55 55 57
76 73 89 88 77 71 73 90 95 100 99 99 100 98 98 100 98 97 99 97 97 94 93 95 95 97 97 97 96 90 91 91 95 94 92 93 92 91 90 88 82 86 89 88 74 74 75 67 61 59 56 55 56 57
60 83 77 78 81 70 68 92 85 98 98 99 100 98 92 99 97 99 99 99 87 81 89 94 92 91 94 97 97 97 95 91 93 91 88 87 93 96 87 83 79 74 75 75 74 73 69 62 63 55 54 64 60 52
76 72 78 67 90 80 85 98 100 97 100 100 100 100 96 99 100 100 100 97 97 88 88 90 90 90 92 94 96 96 98 92 92 94 95 82 81 81 84 79 73 73 71 81 78 76 76 70 69 71 69 67 69 73
84 78 80 75 84 76 84 82 98 96 99 100 100 97 100 98 100 97 97 97 96 98 95 90 88 86 82 89 94 95 96 97 91 91 98 78 75 83 90 90 92 91 85 71 80 81 77 74 73 74 71 67 68 77
89 82 70 60 73 76 88 86 83 96 100 100 100 99 100 100 100 93 97 97 98 97 92 92 93 93 91 90 92 94 95 97 97 97 96 95 94 82 82 87 90 86 73 77 77 73 74 72 70 72 80 80 79 74
81 73 92 97 98 97 89 98 100 99 98 91 93 100 99 95 91 96 96 97 98 92 94 92 91 94 94 94 96 95 96 96 95 93 92 93 94 96 96 93 89 85 83 77 71 67 67 70 75 76 74 77 85 89
94 87 92 100 100 100 99 88 90 94 83 96 94 96 95 95 98 98 96 97 97 98 98 96 94 98 97 96 96 97 96 96 94 95 93 95 94 96 96 95 95 92 84 83 83 85 83 75 70 72 76 79 87 88
98 95 96 100 96 92 91 96 99 97 88 81 78 96 96 97 97 98 99 100 100 97 96 96 97 98 97 97 96 96 96 96 97 81 88 92 94 95 95 94 93 92 93 90 83 77 76 77 78 76 81 83 82 83
97 97 99 99 97 98 99 94 94 74 94 100 96 99 98 97 96 98 100 100 98 96 97 97 97 96 97 97 97 96 96 96 96 95 92 93 94 94 94 94 94 93 89 85 80 76 74 75 76 78 76 83 84 91
99 98 97 100 100 99 98 100 100 100 100 100 100 100 99 99 100 97 98 99 97 96 94 95 95 95 96 96 96 96 93 94 94 94 94 93 93 94 93 93 90 80 74 72 72 71 74 76 76 78 83 86 86 85
98 99 100 100 100 100 99 99 100 100 100 100 100 100 100 99 97 96 97 98 96 96 95 96 96 95 95 95 95 94 94 95 94 94 94 93 92 87 79 76 73 69 67 68 70 71 74 79 80 84 86 87 87 88

GFSWCAN_sfc_rhum_009.txt.gz
RH
62 64 66 64 64 64 62 62 63 64 64 65 65 64 66 63 67 84 93 94 99 99 92 79 82 90 90 91 89 88 95 96 99 98 99 97 94 92 96 85 92 90 97 97 88 95 83 71 84 88 68 68 69 78
64 67 65 65 65 63 61 62 64 66 66 66 65 65 63 62 64 75 95 86 87 99 89 91 82 78 68 70 84 91 88 91 92 91 97 95 92 92 93 93 90 94 78 82 84 76 64 69 67 66 70 72 74 80
69 71 67 64 66 63 62 62 62 61 61 62 62 61 61 61 64 72 94 94 94 99 94 94 89 81 81 77 72 90 96 84 94 98 99 94 98 88 96 95 90 86 84 88 81 75 76 75 69 75 81 80 81 80
70 73 70 68 67 64 63 63 61 60 60 60 60 60 61 61 62 67 92 90 97 98 100 90 88 92 93 89 86 80 88 94 96 99 97 97 98 88 93 88 91 84 86 83 84 76 76 74 78 80 85 83 80 75
72 73 71 67 66 66 65 64 63 62 61 61 60 59 61 61 62 72 82 88 91 98 97 95 92 97 97 94 93 92 90 95 98 99 98 96 90 91 96 94 94 87 80 83 81 71 70 70 78 80 81 83 78 73
71 74 70 62 64 65 65 66 65 64 63 63 60 57 61 62 63 87 97 98 92 95 99 100 94 97 95 91 97 98 97 98 98 98 94 90 84 82 96 97 75 76 77 76 73 77 77 82 78 80 81 80 75 74
73 75 63 61 67 66 65 66 66 66 65 63 61 64 65 66 84 92 95 95 84 90 99 100 99 96 94 93 95 97 97 99 99 96 97 98 98 96 96 99 70 77 78 73 74 74 77 79 76 77 75 77 74 72
74 76 69 61 68 67 64 64 65 65 65 63 65 67 69 71 74 89 88 86 93 97 99 100 98 95 93 98 99 98 99 99 99 97 98 99 96 97 99 85 82 83 80 78 80 82 77 83 82 82 75 71 74 74
74 76 70 61 67 67 67 67 68 67 63 68 68 73 92 92 96 95 82 87 95 99 100 99 100 94 98 98 97 99 99 99 96 99 98 98 97 99 87 84 82 85 78 76 86 84 83 82 83 78 73 72 72 74
76 76 73 66 62 64 70 68 67 64 67 68 88 93 98 94 81 89 97 99 100 100 100 99 92 94 92 98 100 99 97 98 100 97 97 99 98 81 80 79 75 82 81 82 85 95 92 92 87 78 73 66 66 68
74 77 73 70 70 66 69 65 67 68 73 92 92 96 94 84 97 96 100 98 100 100 98 97 94 94 96 98 97 97 99 100 100 94 98 98 98 90 84 84 81 77 75 72 73 71 71 68 73 71 72 72 73 73
74 78 73 71 71 71 69 67 69 87 91 91 91 90 97 97 100 100 100 99 98 97 99 98 98 94 97 96 96 97 98 99 95 95 99 96 92 86 86 88 90 78 75 71 73 72 72 70 67 67 72 75 76 74
75 77 73 72 72 71 69 71 69 67 82 90 94 96 98 99 98 98 99 99 100 100 100 99 99 94 95 95 97 96 98 96 93 96 96 95 93 86 86 91 90 83 74 75 77 76 72 76 73 68 74 72 69 70
77 78 73 73 71 70 73 70 70 82 93 93 98 99 98 98 98 99 99 99 99 100 100 98 98 95 93 96 96 97 95 95 97 99 97 94 90 80 91 93 90 88 80 78 78 78 80 79 83 79 74 70 64 66
78 77 73 71 69 74 70 72 82 96 98 96 94 98 99 98 100 100 100 100 100 98 100 98 98 90 97 94 94 96 97 97 92 96 93 94 92 94 93 92 92 88 86 87 85 85 87 84 81 87 82 74 67 68
78 75 77 66 74 73 69 87 94 97 99 97 94 97 87 96 98 90 98 100 100 98 99 99 99 95 92 94 98 98 98 97 86 94 96 96 90 92 92 91 89 86 83 81 81 81 81 80 79 85 77 73 70 67
74 90 74 74 78 74 74 97 99 95 96 94 98 96 94 96 99 88 85 92 88 99 100 100 99 86 94 99 99 94 92 89 92 96 99 99 98 94 91 87 85 83 81 80 82 81 86 83 76 73 79 76 72 68
91 85 74 79 78 83 87 99 94 89 89 93 97 96 86 94 98 96 91 88 97 99 100 100 99 99 96 99 95 92 95 98 99 99 99 96 91 90 87 88 86 86 84 84 83 85 84 79 75 79 81 81 78 74
88 86 77 72 79 94 96 93 93 92 92 89 86 81 86 89 95 96 96 87 91 96 100 100 99 99 95 97 96 95 96 99 95 96 96 92 90 91 90 90 92 91 89 89 81 74 73 70 72 70 68 64 67 66
78 75 74 70 79 95 91 98 93 92 95 92 87 90 89 91 94 98 98 94 97 98 100 99 99 98 98 97 98 97 95 93 96 95 94 94 94 96 94 91 91 90 86 84 79 71 70 70 66 65 64 63 63 65
75 86 74 82 96 96 94 93 95 94 91 91 87 90 97 95 98 97 89 98 99 94 99 97 93 88 90 96 98 96 92 95 96 93 90 99 96 96 96 95 89 81 78 75 74 73 68 67 66 61 62 60 57 56
92 71 82 79 92 95 96 91 95 95 97 97 94 96 99 98 97 100 99 98 100 99 96 93 92 91 87 87 94 98 94 91 91 93 84 87 97 98 96 91 85 87 83 81 71 66 67 64 60 55 55 55 56 58
74 72 88 87 78 73 76 88 94 98 99 100 100 99 99 100 98 97 97 99 98 99 92 93 93 94 95 91 96 97 99 96 95 95 94 95 95 96 93 90 87 86 88 84 73 72 72 63 58 56 56 57 57 57
60 83 80 79 81 72 68 91 86 99 99 100 100 100 89 100 97 100 100 99 95 95 96 96 94 86 78 88 92 94 96 98 97 93 92 95 97 97 88 87 82 83 76 73 73 71 65 58 60 55 55 63 58 51
79 77 78 68 90 80 81 93 99 97 96 100 100 100 98 99 100 100 100 96 98 98 98 96 92 88 91 82 86 89 92 97 97 96 94 89 89 90 92 84 78 76 72 80 78 75 73 67 65 69 67 64 65 69
80 80 76 74 87 76 80 83 97 94 98 100 99 99 100 98 98 99 97 98 96 97 98 98 93 93 86 78 89 87 90 94 96 96 96 92 83 86 91 91 90 88 72 70 74 77 76 74 73 73 69 66 66 71
88 83 67 54 67 71 86 85 81 95 100 100 99 99 99 100 100 90 97 98 98 98 98 97 96 98 96 88 82 87 89 95 96 97 97 97 93 81 83 86 86 82 73 80 83 79 78 75 72 70 72 75 78 71
81 72 86 95 98 97 88 98 99 97 95 90 91 99 98 97 88 92 95 96 98 99 98 95 94 95 96 93 89 92 95 96 97 97 96 95 96 98 93 88 88 88 91 86 82 79 74 70 73 75 76 80 82 75
93 85 92 100 100 100 95 85 86 91 79 96 93 95 93 93 96 97 95 97 100 100 100 98 94 97 97 96 94 95 96 96 96 96 95 95 97 98 96 95 95 95 94 89 85 75 76 74 76 80 80 73 79 82
97 94 95 100 94 92 90 95 97 98 88 81 79 96 95 96 96 99 98 100 100 100 99 98 96 98 96 98 96 96 96 96 96 96 95 95 95 95 94 94 94 95 94 93 91 86 86 87 85 77 75 75 77 82
97 97 98 99 96 98 99 94 95 74 94 100 96 99 98 97 95 98 100 100 100 100 100 99 98 98 97 97 97 96 96 96 97 96 95 94 95 94 95 94 94 94 92 87 87 88 86 84 79 76 74 78 80 84
98 99 97 100 100 99 99 100 100 100 100 100 100 100 99 99 100 97 98 100 99 98 94 97 97 96 96 96 96 97 94 96 96 95 95 94 94 94 94 94 94 92 92 93 90 82 77 76 75 74 79 84 85 86
99 100 100 100 100 100 100 98 100 100 100 100 100 100 100 99 97 94 97 100 99 99 99 96 96 96 96 96 96 95 94 95 95 92 92 92 92 94 94 93 93 90 77 65 66 68 71 76 77 80 81 82 84 87

GFSWCAN_sfc_rhum_012.txt.gz
RH
62 63 65 69 63 64 62 61 61 60 59 61 63 63 61 62 63 78 91 90 98 98 84 66 61 72 76 68 72 73 81 86 94 96 95 86 84 63 71 61 65 62 77 85 77 76 80 51 58 57 52 52 54 61
65 64 67 69 62 65 62 62 62 61 60 59 59 59 59 60 62 67 93 83 86 99 91 80 70 64 58 56 70 82 75 80 82 94 94 94 82 72 66 62 62 72 57 54 58 52 46 49 51 47 54 56 56 60
65 66 70 70 67 66 64 63 62 62 61 60 59 58 58 58 60 65 90 92 90 98 89 82 71 70 67 68 60 74 91 74 88 89 95 94 96 89 72 67 64 61 59 64 64 49 53 50 49 52 59 60 61 63
65 66 71 72 67 63 65 64 64 63 62 61 60 59 58 59 60 61 86 88 94 97 98 79 76 76 82 76 69 67 73 80 90 96 95 91 94 68 68 68 66 57 66 63 61 52 49 50 51 56 63 61 61 58
65 67 71 72 65 65 67 65 63 63 62 62 63 62 59 59 62 67 74 86 86 95 97 86 81 87 84 79 79 77 77 82 90 95 98 92 81 89 70 73 68 58 56 54 46 51 49 49 56 60 61 62 59 59
67 69 72 73 62 60 66 68 60 61 61 64 64 63 62 63 63 77 92 97 86 92 99 98 87 90 85 82 86 89 88 90 88 95 93 88 75 84 88 74 52 48 53 50 47 51 54 58 58 58 61 63 57 56
67 69 74 75 67 62 64 66 68 63 62 63 64 63 64 65 76 86 86 95 84 92 98 99 94 92 91 88 91 89 89 92 93 95 96 90 83 94 96 80 52 52 51 52 55 54 59 60 55 59 60 61 59 52
68 70 74 75 70 63 61 61 67 64 66 64 65 65 68 72 70 85 78 81 93 98 97 100 96 88 89 95 90 84 93 98 98 96 96 99 95 98 98 72 59 56 59 58 56 58 60 59 61 64 61 58 58 57
67 71 75 76 74 68 64 65 63 65 66 66 68 72 88 88 88 91 80 87 97 99 99 99 100 96 94 93 87 98 96 99 92 99 98 98 90 98 77 66 62 60 61 57 68 65 65 63 65 66 63 60 59 58
69 72 74 77 72 66 68 69 68 66 67 67 80 84 97 92 78 88 94 96 100 99 100 97 80 91 84 90 97 92 95 98 100 93 96 99 98 73 67 65 61 58 62 69 75 94 99 98 89 68 65 56 54 55
68 70 74 78 72 72 71 69 67 69 70 86 87 94 91 82 97 93 100 100 99 100 97 88 81 81 84 90 90 88 96 100 100 90 94 97 84 70 66 65 67 63 59 60 56 58 60 59 62 62 60 57 57 54
69 70 74 78 72 72 69 69 69 84 87 86 92 91 93 98 100 100 100 100 97 98 98 96 86 80 89 87 90 94 99 98 100 80 95 96 77 75 66 68 74 65 61 61 57 59 58 60 57 57 60 59 57 58
68 69 76 78 72 71 70 71 68 72 80 85 88 94 95 99 97 96 97 100 100 100 100 99 99 87 88 86 91 93 100 96 80 96 90 82 78 68 64 74 76 68 63 62 67 66 63 66 66 60 63 61 58 56
69 72 78 77 73 69 72 69 74 84 84 88 92 97 95 96 95 96 99 100 100 100 100 98 98 94 86 98 88 100 84 86 97 98 93 86 74 65 72 79 78 71 66 67 69 69 75 73 72 69 67 64 57 58
71 75 80 76 68 72 72 69 79 93 93 91 93 98 96 93 100 100 100 100 100 99 100 98 99 82 98 97 84 95 96 96 86 87 86 84 77 76 79 80 78 71 68 73 74 74 75 74 65 70 70 63 55 55
73 78 81 68 72 74 70 85 90 93 100 96 93 96 86 92 93 91 96 98 99 98 100 99 100 99 99 94 97 100 97 93 87 99 86 72 74 76 79 78 75 70 66 68 68 68 67 66 65 66 59 55 54 53
75 90 71 72 76 73 76 96 95 95 85 90 94 92 92 94 95 91 72 80 80 98 100 100 100 100 93 96 96 90 92 95 95 91 83 91 90 80 77 76 75 72 69 69 71 67 68 66 61 60 65 60 56 52
93 80 72 75 78 77 81 94 93 88 86 87 90 90 81 81 88 84 80 78 83 98 99 100 99 100 95 98 94 90 88 91 86 86 87 84 79 76 78 75 75 74 73 74 75 81 79 74 68 65 73 72 70 64
89 84 77 72 79 86 88 94 93 95 90 85 83 77 80 82 81 83 83 82 79 87 99 100 100 96 90 87 92 96 94 92 91 84 79 77 77 77 77 82 86 85 86 85 76 72 67 62 62 63 61 56 58 55
80 78 73 70 75 88 91 95 89 90 96 89 84 88 83 84 81 87 91 93 94 100 98 100 92 93 92 90 92 92 90 85 85 84 78 72 75 86 87 84 78 83 81 82 78 71 66 66 60 58 57 57 56 57
79 83 72 80 90 89 88 92 93 91 89 88 86 86 94 86 93 94 96 94 95 94 96 92 88 86 82 77 75 87 85 86 88 84 82 87 74 80 82 83 84 72 72 71 68 68 64 64 61 60 60 54 51 49
88 73 74 74 87 93 92 87 93 91 94 93 88 90 96 94 95 98 96 98 95 93 86 80 82 84 80 80 83 86 87 91 90 86 84 81 84 86 85 84 83 85 82 82 69 65 64 59 57 53 51 52 52 53
73 67 76 76 77 72 82 82 93 95 99 98 98 100 98 98 96 94 97 87 89 84 82 83 88 87 85 81 86 88 89 91 89 92 89 80 80 83 85 85 81 89 87 77 69 69 70 62 58 52 52 53 54 56
59 75 78 78 76 77 65 89 80 94 96 100 100 99 90 94 92 99 97 95 83 82 82 88 77 70 65 73 70 72 80 84 87 87 95 94 90 83 79 78 73 74 74 71 72 70 63 55 59 53 51 59 57 49
75 82 79 75 86 77 82 87 95 94 94 99 100 95 94 93 98 100 99 93 90 82 83 80 73 71 74 70 71 69 72 80 90 91 87 96 95 88 87 80 72 71 71 80 74 72 70 65 62 63 64 61 61 65
88 86 77 74 83 73 76 80 93 91 93 100 98 91 97 97 100 98 91 88 80 83 82 77 73 75 73 71 76 75 73 72 86 90 83 96 95 95 95 92 88 83 70 69 73 74 72 68 69 72 65 65 64 66
92 88 65 49 57 63 75 78 74 86 100 87 89 98 96 100 99 84 77 84 83 87 85 83 82 86 86 82 76 74 74 80 90 89 86 94 96 96 95 93 89 76 70 69 68 68 74 79 77 70 68 67 65 64
77 69 80 86 90 86 85 93 92 90 81 77 85 98 93 93 78 80 85 83 88 90 91 88 87 90 91 89 87 86 89 86 89 92 94 95 95 97 97 97 86 74 72 72 78 86 84 80 77 72 73 73 81 81
88 76 85 100 100 99 89 80 79 78 69 89 87 86 84 82 86 85 81 86 92 94 95 93 89 92 92 90 92 93 94 94 94 93 93 93 94 95 96 96 96 93 90 94 92 88 90 84 80 72 74 78 85 84
97 89 88 98 90 87 87 88 91 92 83 78 75 88 87 88 89 90 90 93 95 94 94 96 96 98 97 97 95 91 91 92 92 91 94 94 94 96 96 96 95 96 95 94 94 96 91 87 86 79 82 85 81 79
93 92 95 95 92 95 97 90 92 72 92 98 94 97 94 94 89 89 93 94 95 99 100 99 97 96 98 97 98 97 94 92 93 94 95 95 95 95 96 96 95 94 94 93 91 90 89 82 83 88 87 85 80 74
96 97 96 100 99 97 96 99 100 100 100 99 97 100 96 95 96 90 91 99 97 96 94 95 98 95 93 94 95 93 90 92 93 95 96 95 95 95 95 95 95 94 94 93 92 90 90 92 88 80 80 85 82 82
97 97 99 100 100 100 98 97 99 99 99 100 99 98 99 95 94 89 88 97 96 97 97 97 96 97 96 96 96 95 89 93 94 92 93 93 92 93 94 94 93 93 93 92 92 92 91 85 82 83 82 83 86 91

GFSWCAN_sfc_rhum_015.txt.gz
RH
66 62 62 66 69 64 62 62 62 62 61 60 59 59 58 60 61 69 87 85 94 98 84 63 45 53 56 54 60 66 73 73 80 83 78 75 74 58 61 46 54 61 70 76 80 95 82 42 44 59 50 47 46 48
64 63 62 67 71 68 64 66 62 62 62 61 60 59 58 58 58 61 82 80 82 97 88 79 61 54 49 44 57 63 70 67 72 85 94 91 92 63 56 65 47 61 46 55 52 50 38 40 45 42 46 50 47 52
68 65 63 68 71 69 64 64 67 62 62 61 60 60 60 58 57 60 72 85 86 97 92 93 67 58 56 54 54 63 73 66 70 70 94 93 97 87 90 60 51 47 43 55 56 41 42 40 40 45 49 52 52 54
66 66 64 68 72 68 60 60 67 65 66 63 61 57 59 61 57 59 72 80 85 97 98 79 66 66 69 68 65 66 65 77 84 87 96 94 94 77 70 65 63 54 56 55 52 45 40 44 46 49 53 52 55 56
69 67 68 69 72 71 64 60 66 66 63 66 60 61 62 63 61 63 64 75 80 96 98 90 75 84 73 66 69 66 61 70 87 96 97 94 86 79 60 66 62 47 52 56 46 44 45 45 49 50 52 54 53 52
68 68 67 69 73 74 67 63 62 67 68 68 64 64 65 62 62 69 88 93 89 91 99 96 84 82 78 72 72 75 76 85 94 97 93 89 77 84 95 68 43 36 36 36 41 44 46 50 52 50 52 53 51 52
71 70 68 70 74 74 70 64 61 62 68 64 63 64 65 64 78 80 77 96 86 93 97 99 94 93 84 81 87 88 84 93 96 94 96 88 79 94 90 80 45 40 42 42 43 47 52 53 51 53 53 53 53 49
73 70 70 71 74 75 72 67 66 65 68 65 66 66 68 72 75 79 67 80 88 97 96 100 96 83 85 92 87 82 94 94 96 96 94 95 94 93 93 64 54 49 46 46 48 48 52 51 53 57 55 51 53 52
74 72 70 72 74 76 70 67 70 68 66 68 67 71 79 79 73 85 79 86 97 98 100 98 98 97 87 89 81 95 86 98 90 96 95 98 93 98 71 63 57 52 58 54 56 54 56 57 58 59 56 53 53 53
74 74 71 71 73 78 72 71 68 68 69 68 69 75 89 79 79 86 91 97 100 99 99 94 67 87 78 81 91 85 93 94 100 85 86 99 96 68 57 52 53 60 54 61 73 92 100 100 85 61 59 51 50 51
75 74 70 71 74 78 72 68 69 70 64 75 82 88 81 80 97 97 100 100 98 100 91 77 65 69 77 82 81 83 94 99 100 87 84 90 79 60 58 53 54 57 58 55 51 51 58 56 58 58 56 52 51 49
77 75 71 70 74 76 67 70 70 72 75 78 88 87 89 99 100 100 100 100 97 98 90 81 77 68 81 81 86 88 100 96 100 75 89 90 73 74 58 56 60 64 61 56 52 53 54 54 52 54 54 54 51 48
80 78 72 71 76 74 71 71 68 74 78 75 83 98 99 99 100 100 92 97 100 100 100 99 98 82 82 85 88 91 100 97 75 95 89 77 77 61 54 62 69 65 60 57 60 59 57 60 60 56 56 52 50 48
82 80 71 73 79 71 71 71 70 81 77 88 92 92 97 98 89 92 93 99 100 100 99 98 97 92 82 96 84 99 82 81 94 97 91 92 80 64 62 69 74 67 64 63 64 64 72 70 67 63 60 56 48 49
81 78 73 76 77 70 73 68 75 87 80 94 96 96 90 87 100 100 100 100 100 99 99 99 99 82 99 99 81 95 95 95 84 84 89 86 76 69 70 73 72 67 65 71 71 73 72 72 64 67 65 58 51 52
81 75 77 75 70 74 70 77 80 85 100 100 97 95 86 96 98 92 98 99 95 89 100 100 100 99 100 97 96 99 93 93 93 99 90 76 75 72 69 71 70 65 60 63 63 64 64 62 64 62 56 52 50 49
77 88 70 67 73 69 76 88 92 98 96 86 91 84 88 92 90 81 62 63 65 93 100 100 100 100 98 98 97 90 95 95 94 92 83 81 85 76 72 74 74 70 63 63 64 62 63 59 57 55 57 54 53 49
83 79 73 72 78 71 75 95 93 87 86 87 88 85 75 73 78 70 66 67 77 94 100 100 100 100 97 97 95 89 89 96 87 81 78 73 70 69 72 75 74 72 70 68 69 77 75 71 67 63 68 67 65 59
80 84 76 77 75 78 84 90 95 90 86 84 78 75 75 76 70 69 71 69 70 71 94 100 100 96 89 95 94 93 92 92 93 84 75 66 67 70 78 86 88 85 85 82 75 69 66 61 58 61 60 53 54 52
75 82 80 77 68 82 84 91 88 88 90 84 79 85 80 77 70 75 82 87 83 98 96 96 92 89 85 83 91 90 85 78 83 87 79 63 64 81 86 87 78 81 78 80 77 66 62 62 58 55 53 53 53 55
90 90 79 76 86 84 82 87 90 84 82 84 82 83 86 81 88 92 92 93 94 87 85 75 76 75 76 74 74 81 81 75 80 84 88 89 76 76 77 77 84 73 73 72 70 66 62 60 59 54 56 53 52 49
98 73 74 72 81 89 87 85 88 86 89 86 86 85 92 91 91 89 95 95 93 82 78 71 73 70 58 57 60 64 67 77 80 80 80 79 84 84 80 80 85 86 84 84 70 68 61 59 57 56 52 52 51 52
74 66 77 80 76 72 80 80 93 92 93 92 94 94 93 95 91 92 97 83 79 74 70 71 80 78 74 71 73 73 74 77 76 74 73 75 77 82 86 84 82 91 91 81 74 70 71 61 59 53 53 52 54 58
57 76 80 74 72 75 65 85 74 87 90 88 87 80 88 91 88 95 92 83 76 75 78 86 66 59 53 67 62 54 60 64 70 70 71 74 84 80 84 90 72 77 79 76 74 72 66 58 59 54 53 60 60 54
91 89 77 81 81 78 83 85 87 85 87 90 89 84 89 89 91 94 91 82 86 78 77 74 67 63 62 56 56 55 60 63 70 79 74 73 75 81 87 91 93 76 74 83 78 76 73 66 64 64 65 65 63 64
96 90 82 77 79 75 72 82 88 87 81 93 89 84 92 90 95 88 77 80 72 75 78 76 67 62 58 57 62 63 61 59 67 77 76 75 78 86 94 92 94 94 82 73 76 77 72 70 68 74 70 66 63 65
96 94 64 45 48 54 58 62 61 73 88 84 80 92 92 95 89 74 62 69 72 80 76 73 71 72 73 70 65 64 65 71 83 81 73 78 81 81 92 94 95 95 96 89 73 71 72 69 73 81 79 72 66 63
77 69 81 75 72 71 81 75 81 84 73 62 74 92 90 82 72 73 76 77 81 82 82 79 76 79 82 82 81 78 82 81 86 87 86 84 84 87 89 94 97 96 96 96 83 70 68 72 81 88 83 80 79 74
85 72 73 92 89 84 81 73 72 65 54 76 82 75 77 70 77 78 75 79 83 85 86 84 83 86 88 86 87 90 90 91 94 96 94 88 84 89 91 96 97 97 97 97 87 76 84 90 93 90 86 85 85 84
93 76 77 91 88 82 82 77 82 83 73 70 69 74 75 78 80 82 82 85 88 89 88 90 92 95 95 95 93 89 83 86 91 93 92 89 85 87 94 96 97 96 96 96 96 96 95 95 95 93 89 86 86 88
82 84 87 80 85 89 89 82 84 65 84 90 88 90 84 88 80 81 83 84 88 92 94 94 94 93 94 93 94 94 90 81 89 90 90 89 88 92 93 97 96 96 96 95 95 93 92 93 92 85 84 88 88 89
89 92 90 92 92 92 89 93 93 91 92 92 89 94 89 89 90 81 84 91 93 91 87 90 92 90 87 89 91 91 87 89 89 90 90 92 92 91 95 96 96 96 95 93 92 92 93 92 89 88 90 94 92 89
94 93 94 92 94 95 93 92 92 93 94 93 90 90 90 88 90 80 80 90 91 90 91 91 92 93 94 95 95 93 89 92 95 83 82 85 88 93 95 95 94 93 94 93 93 93 94 94 94 94 92 89 90 91

GFSWCAN_sfc_rhum_018.txt.gz
RH
66 67 67 63 64 68 71 66 63 66 62 63 62 61 59 58 58 69 83 83 92 98 88 70 66 66 61 66 68 78 86 83 87 94 86 84 85 71 79 64 72 76 86 91 91 98 94 55 59 77 68 64 61 64
71 66 70 68 66 68 73 67 60 67 66 63 64 61 60 58 57 60 80 75 80 98 89 75 73 72 68 68 72 74 80 75 85 92 93 91 91 92 80 84 62 71 62 67 71 72 51 55 57 60 60 65 65 69
71 66 68 68 66 68 72 64 58 59 65 63 62 62 58 56 58 57 80 83 91 97 94 95 87 65 61 64 65 78 87 73 79 87 95 94 96 92 95 82 80 56 55 74 66 57 59 58 56 59 63 68 65 68
74 75 75 72 68 69 71 73 64 60 66 63 61 62 56 57 61 57 80 81 88 95 99 90 70 79 75 74 71 72 77 85 92 92 96 91 96 86 89 83 80 70 67 70 70 61 64 61 64 63 63 64 67 60
78 78 74 71 68 68 72 76 67 64 60 64 66 67 64 64 64 68 76 76 77 94 99 96 81 85 79 74 76 75 75 84 94 99 98 95 91 87 80 76 80 65 71 79 76 60 62 70 66 62 63 65 62 64
80 74 71 71 68 69 72 75 72 66 65 65 67 66 62 62 61 81 84 96 90 87 99 100 89 87 83 75 77 79 81 91 95 96 96 92 76 86 98 85 60 53 48 49 53 60 60 63 62 62 62 62 61 64
74 77 76 74 70 68 73 76 71 63 66 68 66 67 68 66 82 88 78 96 90 95 99 100 100 95 83 80 88 92 90 96 95 97 98 91 88 91 97 95 62 48 51 57 59 62 68 65 68 63 62 60 59 58
74 74 74 76 71 69 72 78 69 68 69 67 68 68 71 73 76 87 76 76 88 98 97 100 100 96 87 93 97 92 97 97 99 95 96 97 93 96 97 80 69 62 57 60 62 63 65 64 65 65 60 58 61 62
76 74 75 73 76 68 70 77 71 66 68 69 67 71 85 88 82 94 83 84 94 98 100 98 100 100 94 93 94 96 94 99 95 98 97 97 95 98 88 76 72 65 72 74 72 68 68 69 70 66 61 60 60 59
77 76 76 75 79 71 74 76 68 70 69 68 78 77 88 87 80 84 95 99 100 98 99 99 79 97 91 95 98 96 98 97 100 95 93 99 93 74 70 66 68 71 75 75 84 91 92 91 85 72 66 57 55 56
77 78 76 79 81 72 75 73 70 70 63 83 83 89 86 80 96 98 100 100 100 100 97 92 85 88 92 90 91 95 98 100 100 96 90 98 91 77 67 61 61 66 70 72 69 68 74 72 71 70 66 59 57 54
77 78 78 83 81 72 76 72 71 82 80 85 87 88 92 99 100 100 100 100 99 99 97 94 92 92 91 94 90 93 100 98 99 87 95 96 92 80 61 62 69 73 72 70 66 66 67 64 64 65 64 60 56 54
77 79 79 84 78 72 77 72 72 68 80 86 87 96 98 100 99 98 98 100 100 100 100 100 98 95 95 96 95 93 100 98 90 97 90 95 90 71 70 73 78 73 66 66 68 67 66 70 67 61 61 56 53 50
80 79 81 84 75 74 74 72 70 80 91 92 90 96 96 89 89 97 98 100 100 100 100 99 98 97 92 99 96 95 90 92 93 97 95 99 92 80 74 76 78 77 72 73 75 77 80 81 74 70 66 66 52 51
82 82 85 85 74 76 72 73 69 91 80 92 91 93 95 95 100 100 100 100 100 100 100 100 100 89 100 99 92 98 93 92 84 95 100 95 92 86 79 77 79 77 71 76 81 81 80 78 74 74 69 61 52 54
83 86 88 77 75 72 71 74 86 90 96 98 94 98 90 99 95 91 99 100 98 92 100 100 100 100 100 97 95 93 91 92 98 99 98 94 89 87 80 79 81 79 71 70 70 72 72 72 71 68 61 56 54 53
84 93 77 73 76 72 72 95 99 96 92 90 93 87 97 96 96 96 80 73 71 96 100 100 98 100 99 99 94 93 93 100 97 98 98 92 91 84 81 84 85 82 77 74 72 70 72 69 63 59 62 62 61 56
96 85 77 69 82 71 88 100 99 92 94 92 89 90 75 75 85 84 82 81 90 98 99 100 99 99 99 96 92 100 97 98 97 97 96 91 88 83 81 90 90 88 86 83 85 90 90 86 83 77 75 74 68 62
87 85 75 78 77 88 95 98 98 98 94 88 85 78 83 78 85 83 84 80 82 84 95 99 100 99 98 98 97 98 98 94 92 89 92 88 82 85 90 93 93 94 95 94 88 87 82 76 74 72 67 59 59 57
80 82 83 84 69 92 94 97 96 98 97 93 84 86 87 96 89 91 93 87 90 95 97 96 94 92 89 90 94 94 93 93 83 86 92 90 90 92 94 96 96 96 95 93 93 75 80 80 75 64 62 58 57 59
94 97 93 93 92 92 93 96 96 96 96 97 92 87 97 96 97 94 90 87 92 97 97 96 95 95 87 86 87 89 92 87 92 85 83 88 83 80 82 96 95 92 93 91 90 82 75 81 75 65 59 56 56 56
99 93 98 93 91 94 95 91 98 92 95 98 97 94 98 99 99 98 96 94 91 96 96 96 96 94 89 86 87 85 80 84 89 91 79 78 81 85 83 87 97 98 95 94 90 86 81 74 69 67 58 57 55 57
98 98 95 88 90 85 88 85 98 96 98 98 98 99 98 98 96 91 95 96 95 95 95 94 94 91 89 88 90 90 89 93 93 90 86 91 89 81 80 81 94 98 98 97 96 94 86 68 65 59 56 56 61 66
80 97 96 94 92 88 76 94 80 92 96 97 98 93 98 99 94 95 99 97 96 96 96 96 93 88 88 90 94 90 89 90 94 92 90 93 95 90 86 78 86 96 94 96 96 92 79 69 63 58 57 66 69 64
95 96 95 97 92 85 90 93 92 93 95 97 97 93 98 99 100 100 98 95 98 97 97 96 93 92 92 92 91 87 86 90 94 89 92 94 94 90 91 80 88 94 98 99 96 94 91 71 68 68 68 72 72 68
96 95 93 85 86 82 80 88 91 90 92 98 96 97 99 99 100 89 93 95 95 95 93 91 86 90 87 78 86 91 91 91 92 92 85 89 87 90 94 90 89 85 99 96 97 96 92 75 71 75 72 71 67 70
97 97 79 54 60 58 66 69 69 90 93 91 96 99 99 98 90 85 92 94 94 96 95 95 91 89 91 92 92 90 91 93 90 89 88 87 85 82 89 91 91 88 95 95 97 96 94 92 79 74 74 74 76 72
83 72 82 76 78 86 84 87 86 85 88 84 83 96 94 79 72 90 95 97 97 97 97 96 95 96 96 96 96 96 95 93 93 94 92 90 89 89 89 88 87 82 85 96 96 96 96 95 92 82 83 88 90 79
90 77 79 92 92 88 84 77 82 87 70 90 87 89 87 92 94 94 95 96 98 97 97 97 96 98 99 98 98 95 95 98 100 100 100 96 92 92 96 94 94 94 96 97 92 94 96 95 95 94 94 93 92 88
96 81 86 90 86 82 91 95 96 95 81 79 78 93 94 94 96 97 97 98 98 97 97 98 99 100 99 100 96 95 95 93 95 95 97 94 92 94 98 98 97 96 98 97 97 97 95 96 96 96 95 94 94 89
89 92 92 90 92 98 99 89 92 65 91 98 93 98 97 96 92 98 98 98 98 100 100 100 99 98 100 100 100 97 93 94 92 91 92 94 94 94 92 95 94 98 97 97 96 96 96 95 94 94 94 94 91 87
95 95 93 95 99 98 98 98 98 98 98 98 98 99 97 97 96 94 99 99 100 100 99 97 100 97 96 96 95 94 91 92 92 92 94 93 93 92 91 95 98 98 97 96 95 93 93 94 94 94 94 94 91 91
98 97 96 96 98 99 97 97 98 97 99 99 98 98 98 98 90 93 98 99 98 98 98 98 97 97 98 96 96 96 90 96 98 89 83 86 86 91 97 98 97 95 95 94 94 94 94 94 94 94 94 93 94 95

GFSWCAN_sfc_rhum_021.txt.gz
RH
66 67 68 72 68 64 66 69 68 60 63 66 61 62 62 60 59 74 90 88 90 99 92 73 69 86 92 68 73 84 86 87 94 98 94 94 93 85 86 82 88 90 94 96 97 99 94 55 69 79 63 76 72 78
68 71 69 69 69 67 66 68 74 62 58 61 65 62 62 58 59 62 91 84 86 98 87 77 67 63 66 76 88 80 85 86 87 95 95 93 92 90 91 94 70 76 73 78 80 77 55 60 58 70 67 70 75 81
71 74 70 72 73 72 68 69 71 68 62 62 65 59 61 60 60 64 89 90 89 98 83 92 88 69 64 68 68 82 87 81 88 89 95 92 94 88 91 95 87 72 59 66 69 62 64 66 71 70 71 74 71 79
76 74 78 74 73 74 69 68 71 75 67 63 59 62 65 65 61 63 89 89 92 96 99 86 73 85 82 74 70 72 79 91 90 93 95 94 93 87 77 88 93 80 70 74 81 67 71 71 76 76 72 74 68 69
78 79 77 77 81 74 68 69 71 75 72 63 67 65 66 66 66 73 89 90 87 94 99 98 86 81 86 81 75 76 84 91 96 98 98 95 91 90 82 82 86 75 76 82 84 60 67 72 77 70 72 74 68 70
78 76 77 79 82 80 70 68 72 76 70 63 66 69 66 69 73 93 96 95 96 84 97 99 92 95 84 86 85 84 84 93 94 94 96 92 82 87 93 93 68 64 64 57 59 61 66 73 68 68 68 69 67 68
81 77 75 79 79 79 74 70 72 76 70 66 68 67 68 69 86 97 85 96 90 93 99 99 99 96 84 86 91 94 91 96 94 96 98 93 91 90 97 90 71 66 62 57 66 65 71 71 72 68 66 67 63 62
84 80 73 75 78 78 79 70 72 75 66 68 68 68 69 74 74 90 90 89 90 99 99 99 100 98 90 98 98 94 99 98 99 96 96 97 93 95 96 84 74 72 72 68 72 72 70 71 72 70 66 61 62 62
83 75 74 74 75 77 78 72 75 71 70 69 68 71 89 93 88 96 80 83 94 99 99 99 100 100 97 96 97 98 95 99 94 97 96 95 94 99 88 82 75 70 76 76 77 74 76 76 76 71 68 65 62 61
85 76 75 75 76 81 75 73 76 71 68 66 85 82 95 92 78 85 97 99 100 100 99 99 87 99 94 95 100 96 99 98 100 96 95 99 97 81 64 60 62 64 69 81 83 86 89 89 87 76 71 62 58 58
83 78 76 77 78 82 75 73 74 71 72 86 90 86 89 82 97 97 100 100 99 100 97 95 87 92 90 92 98 95 99 100 100 96 93 99 95 71 67 68 67 73 76 78 78 80 74 75 78 76 72 64 59 64
85 79 77 76 80 82 72 74 72 86 92 88 92 87 96 99 100 100 99 100 100 99 97 97 96 93 95 94 93 96 100 99 99 89 96 90 93 83 76 75 76 74 72 71 71 79 74 73 73 70 68 64 60 55
86 78 78 78 81 81 72 77 72 69 79 90 97 96 99 99 99 99 98 99 99 99 100 100 99 98 95 93 98 95 98 98 92 98 90 92 93 83 82 78 78 74 69 73 74 73 68 75 73 65 63 60 57 60
84 79 82 78 83 78 75 76 71 77 93 94 96 96 98 97 89 97 99 99 99 100 99 99 99 98 96 98 95 90 91 90 92 98 93 99 95 91 83 78 78 80 77 78 80 80 83 82 80 74 65 59 60 71
86 84 82 84 84 77 78 74 66 92 96 96 95 96 96 94 99 100 100 100 100 99 100 100 100 92 100 100 92 97 95 94 82 90 99 98 95 90 86 80 80 82 79 76 82 82 83 88 85 92 87 79 69 54
89 86 91 81 79 76 74 75 88 94 97 97 96 98 92 98 98 97 98 99 99 94 100 100 100 99 99 92 98 92 88 89 97 100 99 98 94 90 86 81 82 82 78 75 72 73 72 74 75 72 63 57 54 53
91 97 80 79 77 74 70 96 99 95 93 92 97 91 97 98 97 99 80 79 76 98 100 100 99 96 99 99 97 91 96 99 99 96 99 94 95 93 85 87 87 88 82 79 79 74 75 73 65 62 64 64 64 60
98 90 80 76 80 74 91 100 99 96 98 96 97 96 86 82 84 93 93 91 92 98 99 99 99 99 99 99 94 99 98 98 99 98 98 95 93 89 87 93 89 92 91 88 87 89 91 88 84 82 80 78 73 66
92 87 79 79 84 92 96 99 97 99 96 97 94 92 89 87 86 90 92 91 92 93 96 99 99 98 97 98 98 98 97 97 96 95 93 90 91 93 93 91 94 95 95 95 93 88 84 78 77 76 70 63 62 60
86 82 84 87 74 93 94 98 97 100 99 93 95 95 91 91 93 95 95 94 96 93 97 98 92 93 96 96 96 93 93 95 96 97 93 92 92 94 86 83 90 95 96 95 95 78 84 84 81 75 70 65 62 63
94 97 94 95 98 96 95 98 98 98 99 98 98 95 97 97 98 96 97 91 89 100 99 96 96 97 91 91 91 91 92 93 93 94 92 98 92 96 96 92 88 84 96 95 95 93 82 86 82 73 70 67 62 61
99 92 99 99 97 96 96 96 97 97 98 98 97 98 99 99 100 96 97 93 91 95 96 98 98 97 94 92 93 93 78 79 84 92 84 88 95 98 96 96 84 87 90 97 96 94 92 85 77 74 70 66 62 63
98 97 98 98 95 93 92 91 98 98 98 97 98 97 97 98 98 95 99 95 95 94 97 97 95 93 88 90 91 91 92 92 88 85 84 92 92 95 96 96 93 89 87 88 97 96 95 76 74 71 64 61 64 67
87 98 97 96 97 97 84 98 89 96 98 95 96 89 95 99 96 97 98 96 94 98 96 95 94 92 92 93 93 90 88 94 95 95 93 94 94 90 93 93 92 93 93 92 96 97 87 76 72 68 62 66 69 74
95 97 96 97 97 86 94 98 97 97 92 92 95 91 96 98 99 100 98 92 99 99 99 97 95 94 87 94 95 92 88 87 91 87 94 93 94 95 97 96 86 83 91 98 90 97 91 83 78 73 75 74 78 76
96 96 95 90 94 83 82 93 93 92 89 92 93 96 97 99 100 80 86 94 97 97 97 95 93 95 91 83 88 94 89 95 95 94 88 92 92 95 99 97 95 90 95 99 99 98 97 94 91 84 80 76 74 71
97 98 92 73 66 65 72 70 70 84 90 88 93 97 98 90 78 74 89 96 95 96 96 96 93 91 87 95 96 95 96 96 89 89 93 95 94 93 94 92 90 82 91 92 95 95 96 96 94 94 95 94 83 70
84 75 90 82 82 88 81 81 82 83 81 79 78 91 86 71 65 82 90 96 98 99 98 98 97 97 96 96 97 97 98 99 97 97 96 90 89 88 87 87 87 83 86 88 91 88 96 96 94 94 95 95 95 88
87 80 78 93 90 87 82 75 76 75 67 84 79 80 84 88 93 94 94 97 99 97 95 94 93 100 99 99 99 99 99 100 100 100 100 95 90 92 93 93 94 94 94 95 88 86 96 96 95 94 95 95 94 95
99 90 87 88 93 93 83 85 90 89 81 81 79 93 94 94 93 98 98 98 96 94 96 97 98 99 99 100 98 97 97 96 96 97 98 94 91 94 98 97 96 96 98 96 96 96 90 97 96 97 96 95 95 94
93 92 90 88 88 94 92 84 88 66 92 98 95 96 94 96 92 97 98 98 99 100 100 100 100 100 100 100 100 100 96 95 94 92 91 91 91 92 92 93 94 94 94 95 97 97 97 97 95 93 94 95 95 94
94 92 90 92 96 94 93 95 98 98 98 98 97 100 97 97 93 91 99 99 100 100 99 100 100 98 97 97 97 96 93 93 94 93 94 94 93 91 90 90 91 94 96 97 97 97 94 91 94 94 94 95 95 95
98 96 94 94 96 98 96 95 98 97 97 99 98 99 100 98 85 89 98 99 96 96 97 97 97 98 98 98 97 97 91 96 98 89 83 84 91 94 97 96 96 97 97 95 95 94 95 95 94 95 95 94 94 94

GFSWCAN_sfc_rhum_024.txt.gz
RH
70 68 68 68 68 72 73 69 68 76 63 58 59 64 61 61 57 74 86 90 92 98 87 70 75 84 92 84 89 86 87 90 96 97 96 92 93 90 90 86 90 86 94 98 99 99 93 58 78 83 63 77 76 75
75 71 71 70 69 72 76 69 69 70 75 63 61 65 58 61 60 65 83 82 89 94 88 85 66 64 66 73 96 84 81 89 90 96 96 95 95 90 93 93 82 90 76 83 85 79 56 56 64 68 70 72 76 80
76 72 78 76 75 75 78 70 68 69 74 69 66 59 57 62 65 66 87 89 94 95 84 87 70 51 48 52 55 98 88 79 90 88 95 94 92 87 91 88 90 76 66 71 76 69 65 62 73 73 74 78 73 76
83 81 81 80 77 80 83 78 68 70 72 76 65 60 63 63 65 67 87 89 91 94 94 83 65 76 64 74 72 78 83 91 90 93 95 96 93 90 79 86 93 86 81 75 76 72 70 73 63 75 76 80 73 80
83 86 80 81 81 84 85 82 69 69 72 75 67 63 66 68 66 80 92 93 92 90 91 86 65 48 62 83 83 80 83 88 95 96 97 97 92 93 94 83 88 84 85 87 78 64 63 66 74 72 74 78 74 77
84 83 81 82 84 83 84 80 73 70 71 74 66 70 66 66 70 95 99 96 90 93 97 98 88 90 92 88 84 84 88 92 93 93 96 93 84 86 98 93 72 76 71 60 69 66 65 68 71 75 72 73 72 72
84 84 83 82 82 85 83 78 74 71 73 73 66 68 67 67 93 97 85 93 91 90 98 98 98 92 89 87 95 96 92 97 93 93 97 93 92 90 97 95 64 70 75 80 77 68 75 73 70 69 70 70 68 67
87 85 84 84 85 77 76 81 73 73 76 71 69 68 67 69 80 93 96 86 89 98 100 99 98 99 92 98 98 96 99 97 98 94 97 97 94 95 99 84 75 69 59 68 66 68 70 79 74 74 72 68 69 69
86 85 85 82 77 73 76 79 73 76 74 68 69 70 90 93 94 96 79 84 95 97 99 100 100 100 95 98 98 98 96 98 96 98 96 93 94 99 78 65 61 67 73 71 75 73 72 80 77 75 71 71 70 68
86 87 86 85 81 74 80 78 73 78 71 69 80 84 99 96 78 84 98 100 100 100 99 99 97 99 95 92 99 96 99 97 100 97 97 99 97 77 66 66 70 76 80 85 95 90 94 89 90 79 75 70 67 65
88 87 84 77 78 76 82 74 74 74 71 89 95 94 92 80 97 98 100 100 99 100 99 98 94 96 93 94 98 97 99 100 100 97 96 99 96 70 72 78 77 80 80 80 81 82 84 84 83 84 78 70 67 66
91 88 84 81 77 79 81 72 75 88 91 86 89 89 95 98 98 100 99 100 100 99 96 99 98 95 95 92 96 97 99 100 99 89 96 96 90 86 85 83 78 77 77 78 77 79 80 86 82 81 74 68 65 66
91 88 85 80 76 81 77 73 75 72 80 93 98 96 97 99 99 99 97 99 100 99 100 100 99 99 93 92 97 95 96 98 93 98 90 96 92 88 86 84 81 74 76 76 83 80 81 78 79 72 67 62 60 58
92 90 84 80 81 82 75 77 74 75 94 95 97 96 98 100 98 97 99 99 99 100 99 99 99 98 95 98 95 92 91 90 98 98 91 97 97 95 87 82 82 81 79 79 91 84 89 90 86 79 69 61 59 62
92 90 83 85 85 82 76 76 66 92 97 97 97 98 98 94 99 99 100 100 100 99 100 100 100 95 100 99 94 97 97 96 88 85 98 99 98 95 92 84 84 85 84 81 78 89 80 89 88 94 93 89 80 84
92 91 94 85 84 81 78 75 88 95 96 97 98 99 91 98 98 98 98 100 99 98 100 100 100 100 100 97 98 95 89 87 95 99 99 98 94 94 94 88 89 86 83 80 78 75 75 75 84 92 94 92 86 74
93 97 87 81 78 72 71 95 99 94 95 96 98 94 97 99 98 93 82 84 78 99 100 100 99 90 98 100 98 92 94 98 99 96 99 95 94 95 93 92 92 89 86 84 87 81 80 75 68 68 70 71 78 77
98 90 82 78 83 77 94 100 98 98 99 97 99 96 90 86 88 86 94 88 92 99 99 100 99 99 99 99 97 99 98 98 97 99 98 95 92 92 92 96 95 94 92 89 93 94 93 92 87 81 82 84 78 72
92 89 85 81 83 92 94 98 97 100 96 97 96 97 93 92 87 85 92 91 94 93 98 99 99 98 94 98 99 99 97 94 90 94 93 90 92 92 93 91 86 97 96 95 94 93 93 87 83 78 75 70 68 66
86 89 88 83 73 91 90 98 97 100 99 93 97 97 96 93 89 87 89 90 97 97 97 99 92 88 96 96 98 98 98 90 93 88 79 89 90 96 95 96 95 94 97 96 96 85 88 86 82 77 73 69 68 67
95 95 92 94 99 96 92 98 98 98 98 98 97 98 98 97 98 98 98 96 96 98 99 96 95 96 92 93 92 90 93 92 92 79 70 95 90 98 98 97 96 93 84 83 92 96 95 95 88 78 75 72 67 65
99 95 99 99 98 96 94 95 96 97 98 97 98 98 99 99 99 98 98 97 96 94 95 95 97 97 96 95 95 93 78 84 82 86 78 87 95 97 97 96 97 98 97 93 84 97 97 95 91 81 78 72 67 66
97 98 99 98 97 93 92 94 96 98 98 96 97 96 97 99 98 95 100 95 92 92 94 97 96 96 93 94 93 93 89 84 80 82 79 85 89 95 97 97 97 100 96 92 97 98 96 90 91 86 77 73 69 67
93 99 98 96 97 97 88 99 94 99 99 98 98 94 93 98 99 99 99 92 92 98 98 95 93 88 89 91 92 88 86 94 95 96 92 92 93 81 86 91 93 95 93 87 95 84 84 85 89 85 71 71 70 78
98 97 97 97 96 90 95 100 100 100 96 94 96 92 95 98 99 100 94 89 97 99 97 96 95 90 84 90 96 92 90 90 92 89 94 90 92 95 95 94 88 90 89 98 96 82 87 89 95 91 87 76 79 84
97 96 93 92 98 83 86 94 95 94 93 96 96 97 98 96 99 79 80 91 95 97 97 94 89 92 90 82 90 95 90 93 94 93 94 89 92 94 96 94 91 92 95 96 99 99 88 87 98 95 89 82 85 91
97 96 92 72 74 72 80 78 75 87 95 96 95 96 94 91 78 70 75 88 94 96 97 96 93 91 90 96 96 96 97 94 89 90 94 96 95 93 92 91 91 85 90 93 94 94 92 87 88 97 96 94 95 95
93 88 96 91 88 92 82 88 86 84 86 80 80 92 85 74 64 78 84 94 97 99 100 99 98 98 97 97 97 96 97 99 99 98 96 94 94 92 92 89 87 83 86 91 93 93 94 94 92 96 96 95 94 96
90 81 80 93 89 85 81 75 77 72 65 81 83 76 78 79 89 94 94 97 99 98 96 94 93 99 98 98 98 99 99 99 99 100 96 90 96 93 93 96 98 98 96 95 89 88 94 94 95 96 95 94 95 94
96 92 86 90 92 91 90 83 88 89 78 80 76 88 89 91 92 97 98 99 96 94 97 98 98 96 94 97 98 98 98 97 96 95 97 93 92 95 97 97 95 95 97 96 96 96 85 89 94 97 97 97 96 95
93 94 88 88 91 97 97 84 84 65 89 97 93 94 90 94 89 96 99 99 99 100 99 99 100 100 100 100 100 100 98 96 97 94 94 92 92 92 92 91 93 95 97 98 98 97 95 95 97 96 95 95 95 94
96 90 87 89 95 94 93 97 98 97 97 98 96 99 96 95 91 88 99 99 100 100 99 100 99 95 97 98 98 98 90 94 96 94 95 94 94 92 91 94 97 97 97 97 96 96 96 96 95 94 94 95 95 95
95 94 94 94 96 96 97 92 95 95 97 98 97 98 99 96 82 87 97 100 96 96 96 97 97 98 98 99 99 99 92 98 100 90 86 84 82 87 96 96 96 96 96 96 97 96 96 95 95 95 95 94 95 95

GFSWCAN_sfc_rhum_027.txt.gz
RH
73 73 70 68 72 69 66 71 71 68 72 79 68 61 66 61 60 74 86 89 91 98 88 74 80 85 85 93 92 84 88 90 96 94 95 94 94 91 92 87 94 92 95 98 92 99 94 66 81 82 68 77 77 78
76 77 73 70 74 69 66 76 78 72 70 71 74 66 61 59 60 72 89 83 88 97 84 79 62 63 69 74 83 86 84 90 92 95 97 95 97 93 91 94 87 93 89 93 87 78 59 62 70 71 73 76 78 80
80 81 75 85 78 74 77 79 82 72 70 70 74 72 60 59 61 68 85 87 93 98 90 86 77 57 53 55 50 93 95 81 90 87 95 95 90 92 96 95 91 84 72 72 83 76 70 62 64 72 74 76 76 80
78 80 83 82 81 81 81 82 82 78 68 73 73 72 64 61 62 68 92 90 95 98 98 81 56 74 66 54 60 53 67 92 90 90 94 96 92 87 90 85 86 87 83 85 83 73 71 75 67 67 73 78 78 83
84 82 83 82 82 82 81 82 82 82 76 71 72 73 66 68 66 83 94 87 86 98 95 87 69 51 45 46 69 81 72 89 96 94 95 95 92 93 95 92 95 87 84 90 88 70 76 72 66 70 72 77 73 81
87 86 83 84 81 82 82 83 84 82 71 71 75 74 67 68 68 89 97 95 92 92 100 95 84 88 88 66 90 92 91 95 94 92 96 95 83 86 95 95 77 82 71 66 74 83 79 67 73 73 73 73 73 76
87 88 83 83 84 84 82 83 81 80 72 73 75 71 68 68 93 95 89 86 86 88 99 98 98 83 72 90 97 98 96 98 94 91 97 94 92 88 92 88 75 80 74 66 72 70 85 81 76 77 72 72 71 72
88 86 86 85 85 83 84 80 78 75 73 76 72 68 69 69 84 94 92 80 88 99 100 99 96 99 89 97 99 98 99 96 97 95 97 96 96 94 98 88 68 60 64 61 64 68 71 75 78 80 76 72 72 72
88 86 84 84 86 84 79 77 82 75 78 74 70 72 92 93 95 96 82 83 95 99 99 98 99 100 98 98 98 98 93 98 97 97 97 91 94 99 86 74 67 70 84 83 83 86 80 77 73 78 76 74 73 72
89 86 82 84 86 83 79 79 79 74 75 68 81 89 92 95 80 89 92 99 100 100 100 99 99 100 95 93 99 96 93 98 100 95 98 97 96 77 70 69 70 74 86 92 98 94 91 91 92 84 80 73 70 69
90 86 84 86 84 82 78 79 74 76 68 89 96 92 92 80 97 92 100 100 99 100 99 98 97 98 95 94 98 94 99 100 100 98 98 99 98 72 75 76 77 87 87 88 88 86 84 91 90 88 86 77 72 70
92 91 89 88 82 84 76 78 74 89 91 84 90 88 96 99 99 100 99 99 99 100 98 99 99 99 98 94 96 98 100 100 99 90 96 98 92 87 86 91 89 88 84 83 81 85 86 88 90 91 89 82 74 70
93 91 88 86 84 79 80 75 77 74 82 94 98 99 98 98 98 96 98 99 99 99 100 99 100 99 95 92 98 95 96 98 93 99 93 94 92 92 93 91 87 82 75 73 84 87 84 91 81 74 74 68 65 73
91 90 90 87 82 80 79 75 73 76 92 94 96 94 99 100 98 98 98 100 98 100 99 98 99 98 97 99 95 92 94 93 100 99 92 98 94 94 93 88 86 85 82 81 78 91 90 92 92 82 70 66 61 61
92 92 91 86 84 86 82 78 68 91 96 96 96 99 99 93 97 99 100 99 100 99 99 99 100 97 100 95 94 97 98 97 89 89 98 97 98 94 94 87 90 89 85 84 82 81 78 83 91 94 93 89 78 70
94 93 96 86 84 84 79 76 88 95 97 97 100 100 93 98 97 99 98 98 98 99 100 100 100 100 99 98 99 96 90 88 91 99 98 97 92 93 94 92 93 93 86 82 81 81 75 76 79 92 96 95 91 88
95 97 90 86 85 78 73 94 97 95 96 100 99 95 99 98 98 98 83 87 84 100 100 100 99 90 99 99 99 93 95 97 99 99 99 95 93 94 95 93 92 94 91 87 87 86 87 79 73 71 82 84 95 95
96 94 90 85 80 79 94 99 97 99 98 97 99 97 92 90 96 91 87 88 96 99 99 99 99 99 99 99 98 97 99 98 96 96 98 94 90 93 89 95 93 93 94 92 92 94 95 93 87 82 83 88 86 87
94 92 88 80 84 90 93 96 96 100 96 97 97 98 94 92 90 90 87 85 92 94 98 99 100 99 94 98 99 100 100 97 89 88 90 88 92 90 90 92 96 96 96 96 96 96 93 88 89 86 79 73 72 69
87 87 87 85 75 89 87 96 97 98 100 94 98 98 97 96 91 91 92 85 95 98 99 98 93 91 95 94 97 98 97 94 90 78 69 84 92 96 96 97 98 95 96 96 91 89 96 94 90 82 79 75 73 70
92 96 93 93 99 96 91 97 98 98 98 98 98 98 96 96 98 98 98 95 98 98 98 92 94 94 92 94 93 93 93 88 82 57 49 86 83 98 98 98 98 92 96 96 95 89 91 98 95 94 83 77 76 69
99 95 98 98 98 98 98 91 92 97 99 97 98 98 99 98 98 98 98 99 97 91 91 88 95 96 98 96 95 95 86 86 83 82 78 83 92 94 96 97 98 99 100 100 97 94 95 95 92 96 92 81 74 71
95 96 99 99 97 97 94 95 93 98 96 94 97 96 95 98 97 95 100 97 92 88 94 96 97 97 96 96 95 94 91 86 78 79 80 85 85 96 98 95 95 100 97 96 96 96 96 84 78 87 96 86 77 71
89 98 98 97 97 97 93 98 96 100 99 99 98 94 91 96 98 98 99 92 81 90 97 97 96 88 87 88 86 85 86 91 94 95 90 88 95 79 82 87 91 94 93 92 98 97 96 74 80 84 92 92 86 77
98 97 98 97 98 95 95 100 100 100 99 96 98 96 95 98 99 100 98 89 97 99 98 97 94 96 94 95 93 85 87 84 86 79 93 93 94 95 93 92 87 88 93 99 96 97 97 92 88 89 93 87 91 90
98 94 96 91 98 91 90 95 99 95 95 97 96 98 97 97 100 82 82 90 94 96 96 94 91 93 93 89 92 92 82 90 91 87 91 88 89 90 93 93 85 85 93 95 97 99 97 97 96 90 87 95 88 88
99 97 93 74 80 76 82 81 80 94 96 96 96 95 95 94 80 72 76 86 90 95 96 94 91 90 92 96 96 93 96 94 90 91 96 96 96 92 90 87 88 85 94 95 96 95 94 94 95 94 85 96 95 95
91 91 95 95 91 94 85 94 90 90 92 93 84 95 87 77 66 81 84 92 97 98 99 98 97 97 96 96 97 97 99 99 98 96 97 96 96 98 96 91 89 84 87 95 95 94 95 96 96 96 95 95 95 96
99 90 86 94 92 95 84 80 81 79 69 83 80 79 79 77 87 91 92 97 97 97 96 96 97 100 98 98 98 99 98 96 92 90 94 88 97 92 95 96 96 98 97 97 90 86 94 94 94 94 95 95 95 97
96 87 91 85 84 80 81 84 93 93 81 78 73 88 89 86 90 97 95 94 96 94 96 97 98 94 93 93 94 95 98 98 96 92 95 91 92 95 97 95 94 94 95 96 96 98 90 91 92 91 94 97 97 98
90 95 94 93 90 96 97 89 87 64 89 96 90 93 89 91 85 91 92 95 96 98 97 97 99 100 98 100 100 100 96 98 98 94 95 95 95 95 94 93 93 94 98 98 98 99 98 98 96 96 96 96 96 95
94 88 89 92 94 96 97 96 96 96 97 97 95 99 95 94 87 83 97 98 98 99 98 97 97 92 96 98 98 98 82 98 99 98 98 97 95 93 93 91 94 96 97 97 97 97 96 96 95 96 96 96 96 96
95 95 95 95 97 98 96 92 94 96 97 98 96 97 97 93 80 85 97 99 96 96 96 96 97 99 98 96 98 100 94 99 100 89 86 87 82 82 84 94 96 96 96 96 96 96 96 96 96 96 96 96 95 95

GFSWCAN_sfc_rhum_030.txt.gz
RH
75 72 75 73 71 73 73 66 72 75 71 68 70 79 67 64 60 79 86 88 88 94 84 73 72 75 80 86 94 88 90 90 95 93 93 93 94 92 92 90 93 88 94 90 85 98 96 69 83 79 67 77 78 80
77 75 79 81 75 75 72 71 75 77 79 70 72 73 83 64 58 74 87 83 86 94 83 71 62 61 68 65 76 81 94 88 91 94 96 96 98 97 91 96 89 94 86 94 86 84 62 61 69 67 72 72 78 81
78 78 75 81 82 80 75 76 76 82 83 73 66 68 82 65 62 65 87 90 96 99 89 90 85 67 60 60 48 82 89 84 91 88 95 94 90 94 98 96 91 86 78 86 86 80 76 68 67 69 75 76 77 81
80 79 78 81 83 80 77 79 82 84 82 79 71 67 71 70 65 68 90 93 96 100 98 81 58 71 63 65 63 55 57 67 82 95 94 95 92 88 93 87 92 87 86 85 85 80 72 78 69 67 69 76 78 79
82 80 81 82 82 83 80 82 81 80 82 83 70 71 76 73 67 83 96 95 87 98 98 88 78 63 57 59 56 59 63 68 92 99 96 95 95 94 96 94 96 90 84 86 83 77 81 75 72 73 75 75 76 77
84 87 88 86 83 84 82 83 84 83 84 83 72 75 75 69 68 89 95 95 94 94 100 98 82 81 78 70 63 57 67 91 95 98 94 95 84 86 95 86 80 83 81 76 90 89 87 82 86 84 77 77 76 77
86 87 88 89 83 85 84 85 83 84 84 72 74 76 68 69 93 93 89 82 88 93 100 98 97 89 84 80 78 75 82 96 94 96 95 96 96 90 92 91 81 82 70 67 76 71 82 80 86 80 81 72 74 80
87 87 87 86 86 85 84 84 85 85 79 75 74 68 71 74 83 94 95 81 88 97 100 99 96 100 91 91 94 89 94 95 99 97 96 97 98 94 93 80 67 70 70 64 72 77 79 76 76 83 81 79 77 76
92 88 85 86 83 83 84 80 80 86 78 77 67 76 91 94 97 95 83 80 94 98 99 98 99 99 92 96 96 99 97 98 98 95 96 91 97 94 88 82 80 80 82 87 90 91 92 92 88 79 76 82 79 77
94 90 84 81 82 83 80 78 77 76 76 68 81 85 94 93 80 88 98 99 99 100 100 98 99 96 99 94 99 95 93 96 99 88 97 98 94 85 79 80 80 81 85 91 97 95 94 94 93 92 84 79 78 75
93 91 87 84 86 85 81 77 78 78 68 87 96 94 90 79 97 97 98 100 97 99 99 99 99 97 95 95 97 94 98 97 99 99 99 96 85 86 87 86 85 89 90 89 91 90 93 94 94 93 89 88 79 76
91 91 90 88 88 82 80 77 76 87 91 86 89 90 96 99 100 100 97 99 99 99 99 99 98 99 98 95 95 96 98 98 98 94 99 98 95 93 90 90 89 90 89 82 75 86 88 86 91 90 89 87 83 77
93 93 92 88 87 81 77 77 76 74 80 94 99 100 98 98 99 99 96 98 99 99 100 99 99 100 97 94 98 99 99 98 96 100 96 97 96 92 93 91 90 86 75 75 76 81 87 90 90 83 75 72 72 70
90 95 90 87 84 81 82 77 75 75 90 95 97 97 99 97 94 98 96 99 96 100 98 98 99 99 97 100 95 94 96 95 100 100 94 99 94 94 93 92 92 92 85 85 82 85 91 94 96 95 83 71 68 73
89 93 92 90 87 85 83 80 69 90 96 96 96 98 98 93 98 99 100 99 98 99 98 98 100 97 100 98 94 98 99 98 92 92 97 99 93 93 94 92 95 94 89 86 84 85 81 80 80 90 95 88 68 66
88 94 96 87 86 86 80 76 87 95 97 96 99 99 91 99 96 98 99 98 98 97 99 100 100 100 99 98 98 96 91 88 90 100 99 91 94 94 94 91 92 95 91 85 84 84 85 80 80 78 96 94 90 86
91 97 92 90 88 83 74 92 96 97 97 99 98 94 99 100 98 98 92 92 85 98 99 100 99 94 99 99 99 94 95 94 98 99 96 92 93 93 94 87 89 92 91 89 90 88 92 86 78 74 77 77 96 96
95 93 92 89 83 83 92 98 98 100 96 98 99 96 94 94 96 94 92 90 98 99 99 99 99 99 99 98 98 96 100 99 97 92 92 95 91 94 86 91 90 90 90 93 94 97 97 95 90 88 88 86 85 93
93 94 90 83 85 94 94 95 95 100 97 98 98 99 96 91 94 95 91 89 94 97 99 98 99 99 91 98 97 100 100 99 97 96 94 89 90 91 88 93 97 96 96 98 94 90 98 96 95 91 84 78 77 72
86 92 85 81 78 90 92 95 93 98 100 92 99 99 98 98 92 90 92 89 96 99 99 98 95 93 95 93 97 97 98 95 94 91 77 90 94 96 95 97 98 97 98 97 96 80 92 94 92 91 96 92 86 77
91 96 91 92 99 96 96 96 97 98 100 99 98 100 98 98 99 99 98 96 99 98 98 87 93 94 92 93 94 93 94 89 83 73 56 85 85 97 98 98 98 87 95 94 94 91 87 94 96 89 96 97 88 82
99 92 99 98 98 98 99 91 93 96 100 97 98 100 100 99 98 98 97 100 98 92 89 91 93 88 92 97 96 96 90 86 79 76 74 75 87 94 96 96 97 97 98 98 96 92 91 91 90 91 81 92 91 82
91 92 99 99 98 98 94 95 98 98 91 92 98 97 96 98 97 97 100 96 92 85 85 94 95 96 96 97 96 94 94 86 79 76 81 84 79 96 98 95 96 98 97 94 96 97 98 82 89 76 78 82 93 83
85 97 98 99 99 98 92 98 93 99 100 100 100 95 88 97 98 98 99 90 79 93 96 97 98 94 91 92 96 94 90 87 90 92 87 81 92 69 75 79 81 91 93 94 98 97 97 87 82 84 88 97 91 91
98 96 99 98 98 96 99 99 100 100 100 100 100 98 96 98 100 100 95 87 96 97 98 98 97 97 96 97 95 89 88 85 82 75 93 86 92 95 94 90 81 81 90 98 97 96 97 98 98 97 96 96 98 94
97 90 98 94 99 96 94 98 100 98 98 100 98 98 98 98 100 80 82 90 90 96 98 95 94 98 96 95 94 94 84 86 85 84 89 86 85 86 91 90 88 87 96 95 96 97 97 97 97 97 96 91 82 89
90 97 96 77 83 80 83 81 79 96 100 97 98 100 97 95 80 71 79 93 92 96 98 98 95 92 96 96 96 94 89 90 90 89 95 96 95 91 90 88 86 88 95 96 97 97 96 94 95 95 95 96 94 97
92 91 99 97 94 95 87 96 93 93 91 91 88 95 94 89 77 79 78 92 97 98 98 98 98 98 96 95 96 94 96 95 97 96 97 95 98 98 98 97 97 81 90 96 97 96 96 96 96 97 98 97 96 94
96 97 92 97 94 97 87 81 84 84 77 94 92 88 82 82 88 91 91 96 97 98 97 97 98 98 98 97 95 94 97 93 88 84 85 87 95 90 98 98 97 98 97 96 85 79 90 95 95 96 96 95 94 96
94 94 96 96 91 93 88 80 89 93 86 85 80 88 88 88 88 96 95 97 94 90 93 95 97 96 95 93 94 91 96 97 94 87 87 88 91 95 97 97 95 93 96 96 96 96 92 93 96 98 99 97 98 98
96 95 97 96 91 92 96 94 92 68 91 96 94 94 89 92 84 85 87 88 92 95 94 95 98 98 92 93 94 96 91 98 99 96 96 99 97 97 96 95 94 96 97 96 96 98 99 100 100 100 99 98 98 92
94 90 89 95 94 96 98 97 97 95 98 97 94 100 95 95 87 81 92 96 97 94 90 90 90 86 91 96 97 98 81 98 98 97 97 99 98 94 94 94 95 95 96 97 97 97 97 98 98 98 96 96 96 96
97 96 96 94 97 99 98 95 97 96 99 98 95 96 97 93 81 83 88 96 95 94 95 95 97 97 97 96 96 99 92 100 100 90 83 82 80 83 92 96 96 96 96 96 96 97 98 98 98 97 96 96 96 96

GFSWCAN_sfc_rhum_033.txt.gz
RH
79 77 74 73 81 80 74 74 70 73 76 80 76 70 75 85 64 77 87 88 85 90 79 68 66 90 83 79 97 91 93 92 95 91 92 89 93 92 92 88 78 80 92 86 80 94 93 67 79 81 67 71 71 76
79 74 74 77 78 80 76 77 73 74 77 87 76 69 68 79 72 75 93 84 84 94 81 65 58 55 59 58 64 66 92 94 92 93 95 95 98 97 92 98 91 94 82 88 81 77 62 70 72 69 68 67 73 76
78 75 74 73 74 78 79 76 76 75 84 83 77 70 62 71 82 70 89 94 98 100 95 93 91 71 60 61 55 80 83 88 94 93 95 95 91 94 97 97 91 89 82 90 86 77 75 68 64 72 72 74 72 72
82 79 76 76 78 80 80 77 76 76 77 78 82 77 68 68 79 69 94 95 96 99 99 85 61 70 58 68 69 62 56 64 75 94 97 95 91 89 94 86 89 85 87 87 89 82 75 78 73 70 68 73 73 74
87 85 79 79 86 86 83 81 78 80 80 79 86 68 70 77 74 82 93 95 91 97 96 91 74 65 63 73 74 68 66 66 86 99 98 94 94 94 97 94 96 91 86 92 92 78 78 78 78 80 80 86 81 76
87 87 84 85 86 88 83 83 82 83 80 88 75 72 78 69 67 91 95 92 95 94 99 97 84 83 75 75 74 80 80 80 97 98 96 94 86 86 97 98 80 84 81 73 84 85 89 86 84 87 81 80 76 78
86 85 85 86 88 86 85 84 81 84 82 83 81 80 68 70 93 94 86 80 89 95 96 98 94 82 88 84 83 82 72 89 98 98 96 97 97 89 95 97 79 87 78 69 78 80 83 84 82 79 82 84 80 76
87 85 84 83 85 88 86 82 83 79 82 79 78 71 73 73 80 92 91 82 90 98 98 98 96 96 86 85 97 91 88 86 99 98 98 98 98 95 96 83 82 73 74 72 79 79 76 83 86 83 80 80 81 78
92 91 89 83 87 82 82 83 78 78 78 75 67 74 89 93 96 93 80 84 95 98 99 99 99 97 94 96 94 95 88 98 96 98 94 92 98 97 88 88 80 81 80 84 86 88 89 92 92 90 88 76 79 79
95 92 88 82 80 80 80 79 77 78 76 66 79 84 96 91 76 84 98 99 100 100 100 98 98 97 96 98 98 98 95 99 100 96 96 97 97 88 81 84 83 84 89 91 94 93 96 97 96 96 94 88 80 75
92 90 89 85 82 86 83 78 78 77 73 84 90 95 90 80 96 97 99 99 95 98 98 98 99 97 96 100 98 96 98 98 98 98 91 95 94 94 89 88 89 89 91 92 91 91 86 86 94 96 96 92 90 83
92 91 91 89 89 87 81 77 76 90 94 89 92 89 96 98 100 100 97 96 98 98 99 99 99 98 96 96 95 95 99 99 98 96 98 98 93 94 89 91 91 90 90 87 83 79 86 86 88 94 93 91 90 83
92 91 91 92 90 84 79 76 76 74 81 94 98 100 97 98 98 98 96 97 98 99 100 99 98 99 96 96 98 97 96 97 97 99 96 97 96 93 94 93 91 90 85 84 84 81 86 90 90 94 92 82 74 73
90 89 94 90 87 82 81 79 76 79 90 95 95 96 98 96 98 98 98 99 96 94 91 97 99 100 98 100 96 100 98 94 99 100 95 97 94 96 94 94 93 94 89 89 86 84 84 87 88 88 94 86 70 74
77 93 91 91 88 86 85 80 73 89 96 95 94 90 97 92 97 97 99 99 97 93 95 97 99 99 100 100 98 99 99 99 94 80 96 99 95 90 93 93 96 95 92 88 86 86 85 82 76 76 90 94 80 67
81 88 95 89 88 87 82 78 88 93 97 96 95 99 91 99 97 97 98 99 97 98 96 99 99 100 100 100 100 96 94 94 88 99 98 91 90 93 92 88 91 91 87 84 85 84 85 83 83 78 78 86 92 87
87 97 92 90 89 83 74 93 95 98 99 98 98 95 99 99 97 96 93 94 89 98 99 99 99 98 99 99 99 96 93 91 96 100 97 90 93 93 92 85 87 86 86 85 89 91 92 87 82 79 82 79 83 94
93 94 93 89 84 85 92 94 98 97 100 98 99 95 97 96 97 96 96 94 98 100 99 98 98 99 99 98 96 95 98 100 99 98 92 87 92 94 85 87 84 79 85 92 93 98 98 97 96 94 92 89 83 83
88 94 90 83 86 96 97 98 94 95 94 97 98 98 99 96 95 95 96 93 94 98 100 99 99 98 96 97 96 99 100 99 97 95 91 89 89 93 89 92 94 95 97 97 93 94 96 93 94 92 95 95 88 81
85 91 86 83 79 89 89 94 91 98 98 90 99 99 99 98 97 97 96 97 99 99 99 100 92 88 92 93 95 91 92 93 96 97 93 90 95 97 95 97 97 96 98 97 97 75 90 85 87 91 95 90 98 93
88 95 91 94 100 94 97 98 99 100 99 99 99 100 98 97 98 100 99 99 99 98 98 88 82 87 89 91 92 93 93 93 94 90 86 91 94 96 98 99 98 85 88 82 85 81 81 90 92 93 94 81 89 97
99 89 99 97 100 98 98 89 94 96 98 98 97 100 100 100 99 99 99 100 98 92 92 90 85 89 90 93 93 96 91 90 80 65 64 72 91 97 98 97 97 94 96 93 88 86 86 87 89 96 92 77 78 96
89 92 100 99 98 98 95 97 98 97 94 91 98 96 96 100 98 94 100 97 94 88 91 96 94 95 94 96 96 95 95 91 85 79 79 80 73 95 96 95 96 95 95 88 95 96 97 77 82 90 91 92 95 96
84 99 99 98 96 94 93 99 93 98 98 100 100 97 87 98 98 97 100 94 87 91 95 95 95 97 96 95 97 96 94 94 93 92 87 84 94 74 83 84 80 88 88 94 97 97 96 85 78 94 92 97 97 99
96 95 99 91 96 95 98 99 99 98 100 99 100 98 96 99 99 100 99 91 96 87 88 92 97 95 92 97 97 95 91 88 83 77 90 85 93 95 93 88 76 78 90 96 94 94 96 97 98 98 98 98 98 96
99 88 98 95 98 97 96 100 100 100 100 99 98 97 100 98 96 81 87 90 85 87 88 88 89 94 96 94 96 93 86 87 84 81 89 84 80 80 82 87 88 82 88 87 94 95 95 96 97 97 97 93 84 89
99 91 90 84 85 86 88 82 80 95 100 96 96 100 97 92 87 75 82 93 87 89 90 95 96 94 94 96 96 94 96 92 88 87 94 94 93 83 84 83 82 86 93 94 96 96 96 96 96 96 96 97 96 95
89 90 99 98 92 93 88 96 96 96 91 88 89 99 97 92 84 87 82 91 94 96 95 94 95 97 97 96 97 96 97 97 96 94 94 94 97 97 96 96 97 77 95 96 95 96 97 98 98 98 99 98 95 94
98 93 93 99 97 97 90 85 87 87 74 94 93 93 87 89 92 91 90 96 97 93 92 95 96 96 96 97 98 97 97 94 88 87 85 86 93 87 98 98 98 98 98 97 82 82 93 96 95 94 95 95 94 95
95 93 97 98 93 92 86 84 88 92 88 87 84 91 91 90 89 97 96 96 93 83 79 88 94 94 93 96 95 94 94 93 93 86 84 82 87 94 98 97 97 96 98 98 97 97 92 96 98 98 99 99 98 99
95 97 99 98 93 88 95 94 93 70 91 97 96 95 85 91 89 91 84 82 77 93 94 87 91 95 93 92 92 89 83 92 92 92 96 98 98 98 98 97 96 97 99 99 99 98 99 100 98 98 99 100 98 93
100 96 94 96 94 95 97 97 96 96 99 99 92 100 96 95 88 80 92 95 96 93 84 85 88 83 88 94 96 96 81 95 98 97 96 99 99 97 96 96 97 98 99 99 97 96 96 97 97 97 97 98 96 96
100 99 100 98 98 96 96 92 98 93 100 100 95 95 96 91 79 84 92 96 95 95 95 95 97 96 94 94 92 96 90 98 100 92 86 83 78 82 89 98 98 97 96 96 97 96 96 96 97 96 96 96 95 95

GFSWCAN_sfc_rhum_036.txt.gz
RH
76 77 75 75 74 76 77 78 74 72 73 77 83 75 73 81 79 75 76 76 75 80 60 56 50 56 56 44 90 81 85 86 85 85 76 74 58 61 67 56 62 62 70 83 72 80 76 47 60 62 54 54 55 63
80 81 76 72 74 73 75 74 76 75 74 80 79 74 70 73 80 77 84 74 73 86 72 58 50 44 44 45 51 50 91 82 73 80 76 69 70 66 62 74 62 68 52 54 54 51 40 50 55 52 51 51 57 57
82 78 74 74 74 73 76 78 76 75 76 76 77 78 74 68 72 78 92 88 89 99 90 90 79 58 57 52 45 63 55 76 89 88 84 75 74 66 71 66 66 63 55 62 64 46 49 47 48 57 56 56 54 54
85 78 76 76 76 78 80 81 78 76 76 75 82 77 68 65 68 78 92 84 88 93 96 69 54 62 49 57 57 54 52 56 82 99 96 84 73 67 65 59 61 60 64 60 62 57 57 53 50 51 54 55 58 58
86 83 81 80 79 81 87 86 80 77 78 76 84 76 72 81 72 80 84 85 81 92 84 72 63 57 51 51 61 60 60 63 71 90 99 96 73 72 68 66 67 64 64 67 60 50 47 50 53 64 66 64 58 62
87 86 86 86 84 86 86 86 82 80 79 82 82 81 82 74 68 85 88 89 87 90 99 92 67 66 57 61 61 64 66 68 74 78 89 97 73 66 80 71 53 55 60 56 53 55 59 61 63 66 64 60 57 60
87 87 84 83 83 87 82 81 78 78 80 78 78 79 76 70 88 85 73 72 85 83 97 90 85 62 81 70 71 73 69 83 78 79 81 95 89 74 76 66 54 55 57 63 62 58 60 64 63 63 62 61 65 62
87 86 84 82 84 86 84 83 80 78 76 78 76 68 71 75 78 87 77 77 83 98 100 94 89 85 71 76 83 68 80 71 84 95 76 84 97 83 82 66 65 62 59 58 62 63 63 62 63 65 67 66 66 63
91 91 89 84 85 81 79 81 79 78 79 76 66 70 86 88 85 84 81 85 95 98 94 92 93 93 98 93 82 78 67 80 80 99 94 94 94 97 74 69 64 60 60 64 69 66 65 70 72 75 75 71 69 65
93 94 90 84 80 79 78 77 77 79 76 65 72 78 90 85 72 81 98 99 100 100 100 97 95 93 98 97 94 99 83 82 100 97 93 98 96 80 70 67 61 64 64 69 70 81 92 97 88 82 81 75 73 72
94 92 90 86 84 83 81 76 77 77 75 82 89 87 80 78 91 92 99 98 94 94 95 95 97 96 97 100 96 96 100 100 100 99 95 97 86 80 71 72 69 66 66 70 71 72 73 77 85 88 86 80 74 74
92 91 90 88 85 85 81 77 76 85 88 89 92 87 90 92 100 99 94 95 97 96 99 99 99 99 97 98 99 95 100 99 98 92 93 93 85 84 72 73 72 70 70 71 69 72 80 84 86 92 92 84 74 66
86 92 90 89 88 83 80 76 76 73 79 88 87 99 92 92 96 96 96 95 93 97 95 96 97 99 97 99 99 98 99 97 97 100 89 83 85 79 77 74 74 72 71 72 72 72 71 84 89 91 95 89 81 80
92 91 91 92 89 85 80 79 73 76 83 90 91 83 92 92 90 92 93 94 89 93 90 92 97 99 98 100 97 100 99 98 99 96 86 87 83 78 77 77 74 76 74 74 76 75 77 82 78 72 84 91 71 62
74 86 91 90 89 86 82 77 74 86 88 90 86 74 88 84 91 92 94 98 92 90 92 89 97 99 100 100 99 99 98 94 85 76 83 89 84 82 79 78 78 76 75 75 76 75 74 74 70 67 73 81 82 72
76 92 91 89 88 86 81 79 86 86 93 94 92 90 83 95 92 90 92 95 90 88 90 98 100 100 100 100 100 99 91 88 83 94 89 80 82 79 72 71 77 74 67 66 75 76 75 75 74 71 65 66 66 83
80 82 92 92 89 81 75 87 85 97 96 98 92 87 90 94 93 85 76 78 77 91 95 96 98 97 99 99 96 89 89 92 93 92 87 82 85 77 71 70 73 68 63 69 79 81 80 78 73 73 77 73 73 72
91 89 92 88 83 84 93 94 94 95 93 93 92 85 80 79 83 82 83 82 86 93 94 96 96 96 94 96 89 97 92 96 93 86 83 81 76 78 70 68 67 61 65 70 79 87 84 81 67 62 72 87 78 73
86 92 88 84 84 91 94 96 90 95 92 90 88 85 86 82 82 80 85 84 84 89 96 97 100 96 86 88 93 100 94 90 79 79 77 77 77 78 72 76 74 78 82 81 71 68 71 70 66 64 66 79 88 77
89 90 87 83 76 90 94 93 89 98 91 82 92 94 92 88 86 87 86 86 91 96 98 97 90 73 78 75 83 82 83 78 78 80 78 75 75 86 84 77 61 69 73 78 70 62 59 53 59 65 74 74 83 88
89 94 89 92 98 95 94 97 96 97 95 93 94 94 93 94 95 97 97 92 96 98 97 82 74 67 75 78 79 78 79 80 78 72 72 79 74 78 77 81 82 60 60 52 50 50 57 56 60 66 76 72 71 74
98 88 99 98 100 98 98 86 89 89 97 95 95 96 98 99 96 96 96 99 93 88 82 79 74 72 74 75 73 86 83 86 84 66 60 73 79 84 80 79 81 75 72 70 57 53 54 56 60 68 75 72 70 71
89 92 100 100 96 95 95 92 96 96 96 92 94 93 92 96 94 91 99 94 88 78 79 85 88 88 82 82 86 86 89 90 82 68 58 57 54 72 74 74 72 78 74 62 62 63 70 63 63 63 72 74 68 63
83 99 99 98 97 92 90 96 90 93 95 98 100 93 88 88 92 95 97 86 72 73 81 88 82 79 79 87 83 79 81 86 83 74 66 62 65 54 56 56 55 63 64 61 69 71 69 61 65 64 72 83 78 75
90 89 97 99 96 96 97 96 96 96 100 96 100 93 93 95 91 95 94 86 83 76 73 76 76 81 83 77 79 77 84 83 84 79 70 68 61 60 67 64 54 54 66 81 73 70 74 74 75 78 78 81 83 85
96 88 97 89 94 95 93 98 98 99 100 99 97 91 95 92 92 88 81 81 69 70 70 72 77 81 78 83 84 82 78 79 75 73 71 74 66 68 76 71 68 65 70 71 76 75 76 77 80 87 81 82 80 82
97 94 89 87 89 86 87 77 76 88 99 96 90 99 95 94 88 75 66 71 70 79 82 84 85 87 85 83 83 83 76 83 81 77 72 73 74 68 76 74 73 66 72 76 76 76 77 78 80 82 86 84 85 84
88 86 96 96 94 91 92 89 91 94 85 79 84 99 95 89 80 80 79 75 82 87 89 88 86 88 90 89 86 82 86 86 84 82 80 78 80 84 87 82 81 71 82 81 80 82 85 87 89 88 89 90 88 83
97 90 90 98 97 96 92 88 85 79 67 86 89 88 86 82 86 82 76 83 90 90 86 81 81 92 91 90 90 89 88 88 87 85 81 75 80 82 86 86 87 88 88 87 80 80 93 92 91 90 92 90 88 89
98 94 92 96 96 94 88 86 90 86 80 80 80 88 85 82 83 87 86 88 86 79 74 70 76 88 80 86 84 91 91 89 86 77 78 76 82 82 88 88 86 86 87 88 89 91 87 91 93 96 96 93 91 91
91 96 98 95 93 88 94 88 88 67 87 94 92 94 71 76 84 85 80 72 72 73 87 78 81 89 86 86 87 84 81 88 90 89 89 85 85 87 88 88 88 90 92 93 94 94 93 94 95 95 95 96 97 92
100 98 97 100 94 95 97 99 98 97 95 96 90 95 93 91 89 61 79 86 88 82 75 76 81 76 84 79 86 85 75 86 85 87 90 92 92 90 90 91 94 94 95 94 93 94 94 96 95 95 94 96 95 95
100 100 100 97 96 97 98 95 96 97 98 96 93 91 90 83 81 78 94 94 88 89 89 88 89 88 85 85 87 85 86 92 93 89 90 87 87 87 91 95 95 97 96 94 94 94 96 96 96 97 96 96 95 95

GFSWCAN_sfc_rhum_039.txt.gz
RH
79 76 76 74 74 74 74 74 76 74 74 75 77 77 71 74 78 82 68 71 67 65 53 47 45 45 43 40 68 74 72 80 84 78 78 60 52 47 50 45 52 60 67 67 61 71 73 40 58 61 52 48 51 54
79 80 80 74 73 73 72 73 74 76 76 75 77 78 79 76 70 84 86 70 68 87 61 48 47 45 50 42 51 47 76 75 92 86 65 54 49 43 47 55 42 57 44 47 47 48 38 39 41 47 45 47 51 53
82 81 78 74 74 75 74 76 77 77 76 74 77 77 73 68 67 75 98 94 92 96 72 67 62 52 53 57 47 64 48 55 94 98 96 79 71 45 53 49 52 48 39 52 49 40 41 39 42 45 49 50 51 50
87 82 77 76 77 78 78 79 84 79 74 74 73 77 72 71 74 79 92 85 86 85 88 57 48 55 45 48 53 51 50 54 68 94 98 97 88 47 47 43 47 44 51 53 52 45 51 44 40 46 50 51 54 55
88 81 79 80 81 81 81 86 83 77 78 77 78 76 77 77 76 72 72 76 81 85 83 73 61 53 47 49 51 52 55 59 68 73 92 98 91 64 55 54 52 50 51 55 51 38 39 38 43 49 53 57 53 54
88 86 84 83 85 84 89 82 83 79 78 78 79 78 78 76 68 78 81 80 78 81 98 85 57 56 49 56 53 56 59 60 71 70 64 66 84 94 77 57 37 37 39 40 42 43 46 48 52 54 56 55 53 53
89 86 84 83 81 85 81 83 80 77 78 78 78 77 74 68 80 80 74 74 78 76 92 87 82 54 65 66 65 68 62 78 73 75 65 62 82 98 88 56 41 39 42 48 51 52 56 54 56 58 55 54 56 55
88 86 86 84 85 85 82 80 80 80 79 78 78 71 74 74 76 82 71 78 77 98 97 91 86 83 66 69 70 60 67 72 94 73 59 58 59 92 97 50 51 48 50 52 54 53 55 54 53 54 57 59 61 58
89 90 89 87 84 83 78 78 80 80 79 78 68 69 80 78 75 81 81 80 95 99 96 92 94 92 94 97 76 71 62 78 54 83 72 69 69 96 87 62 57 56 57 55 60 58 55 57 60 68 70 67 66 62
92 91 92 86 81 77 79 78 78 78 77 69 59 66 81 76 74 76 97 99 100 100 100 96 95 92 98 99 97 85 78 88 96 74 77 94 97 70 72 60 53 56 58 57 61 75 94 100 81 70 73 70 70 69
91 92 92 88 84 82 81 78 76 77 69 71 81 80 69 73 85 85 99 99 97 96 95 94 95 94 92 99 99 97 99 97 99 98 91 96 87 80 66 65 60 57 55 59 59 63 64 69 77 81 85 84 76 66
92 90 91 88 85 83 81 77 78 80 80 85 91 78 80 82 97 100 98 99 97 99 97 95 81 85 98 97 99 98 100 100 100 96 99 94 83 75 66 66 64 60 60 63 61 66 76 81 82 88 92 90 83 76
89 89 88 88 85 82 81 78 76 73 75 76 80 96 86 92 89 89 93 89 90 90 85 92 92 84 98 98 100 100 100 100 96 99 85 80 82 73 68 66 67 63 63 64 65 67 66 71 79 84 88 91 92 84
85 89 89 90 89 85 82 79 74 72 72 84 88 72 92 90 82 84 84 88 80 92 89 88 90 92 98 100 99 100 98 99 99 96 84 85 78 68 66 66 65 66 66 68 69 69 72 73 71 66 68 79 80 72
90 90 90 93 90 88 84 78 73 74 79 90 88 70 81 76 90 92 99 93 86 84 86 88 90 95 99 100 99 100 100 93 83 90 86 87 77 73 70 67 66 66 65 68 69 67 66 67 64 64 66 64 63 78
86 91 82 90 90 87 81 76 76 77 94 96 92 86 71 89 94 90 95 92 83 82 83 95 99 95 98 100 100 100 98 83 87 99 91 74 75 75 66 65 66 62 55 55 65 68 66 68 69 67 62 64 64 64
82 70 88 92 88 79 73 84 82 96 92 91 87 74 80 87 84 74 58 60 66 83 90 92 96 99 93 98 98 97 100 98 99 93 82 78 82 76 60 63 68 59 50 58 74 75 71 70 59 53 56 72 80 72
78 82 93 87 83 81 86 95 95 92 88 88 87 84 66 60 66 60 60 66 77 84 86 92 94 96 92 92 84 100 100 100 96 82 79 78 74 71 62 60 61 53 54 56 66 77 74 68 59 54 60 66 80 78
82 88 89 85 82 86 94 94 94 95 90 86 78 74 72 69 64 62 65 66 76 78 91 92 94 94 83 81 92 100 99 90 86 77 70 72 74 74 68 73 72 70 73 72 61 57 58 60 54 55 57 64 73 76
90 89 86 82 75 90 96 94 87 94 88 82 80 84 79 75 73 72 74 76 82 89 92 94 85 68 67 62 81 91 83 75 70 71 70 69 66 83 86 77 57 63 63 68 66 60 48 47 50 53 64 69 69 68
88 94 89 86 94 93 93 95 94 92 89 86 86 86 83 84 88 91 92 83 92 89 91 73 65 61 64 62 60 72 74 74 74 72 70 75 65 71 76 76 76 52 50 45 41 38 49 44 49 51 63 64 64 65
91 87 98 95 99 99 95 87 92 84 92 89 90 89 91 91 90 92 92 96 91 82 74 66 66 68 65 64 64 78 73 75 78 80 70 68 73 80 78 76 79 74 70 71 51 44 43 44 49 53 61 63 65 59
88 91 100 100 95 90 94 86 96 94 95 90 90 90 87 90 90 87 96 87 81 68 67 70 78 86 82 75 80 79 81 80 76 78 72 62 56 76 79 77 75 83 81 67 60 59 65 53 54 57 55 66 67 61
83 99 100 95 93 95 85 93 84 89 91 92 95 90 85 86 85 92 87 78 69 60 66 82 70 61 57 78 76 70 73 74 76 80 70 62 66 50 56 61 48 62 65 61 65 65 62 52 55 56 57 72 74 71
90 92 98 96 92 95 98 95 94 92 98 90 91 89 88 91 90 89 83 84 80 67 71 62 58 63 70 67 69 70 77 75 78 80 75 67 58 54 62 56 45 46 61 81 74 71 76 70 69 71 71 75 79 86
95 88 96 90 93 95 87 96 97 95 89 92 89 83 90 91 94 90 78 80 68 71 65 59 60 62 63 72 75 74 75 73 76 79 77 75 68 70 81 74 68 64 61 66 75 78 77 75 77 85 79 79 75 80
93 95 82 76 72 77 83 74 70 83 92 94 83 92 92 96 91 76 60 62 67 79 73 71 73 72 71 73 75 77 78 78 85 80 73 73 74 67 75 78 74 67 72 76 77 75 74 76 78 80 82 81 82 83
81 77 95 91 88 84 92 91 94 95 88 72 75 98 92 85 78 76 77 72 76 78 81 80 79 80 80 81 83 83 82 81 84 83 79 78 77 80 84 82 81 66 81 82 78 80 81 82 84 85 87 89 88 83
91 84 82 98 95 94 93 90 84 72 60 76 85 80 78 73 79 78 74 79 81 83 83 74 74 87 85 85 87 88 88 87 87 86 83 73 80 85 87 87 90 88 88 87 78 81 93 91 90 89 89 89 89 91
95 86 86 94 94 93 80 81 86 83 69 69 71 74 70 70 71 72 77 76 79 71 66 67 67 76 74 74 74 77 88 86 85 77 74 72 77 85 88 88 89 89 89 86 88 89 80 86 90 94 95 94 94 93
88 94 94 88 90 72 70 80 81 61 75 85 84 87 67 64 57 55 70 63 65 67 71 73 73 75 80 75 80 79 77 85 87 84 83 87 85 86 88 89 88 89 90 92 93 94 94 94 95 96 95 96 97 91
95 96 95 97 87 91 88 90 88 89 89 91 89 90 88 86 80 58 62 72 76 75 71 71 73 71 81 82 88 87 69 86 86 90 92 89 88 87 87 90 94 93 94 95 95 95 95 96 95 95 94 96 95 95
96 95 96 94 92 90 94 89 89 93 93 93 88 85 78 80 83 73 81 86 87 86 86 87 88 88 90 88 87 84 80 90 88 81 78 80 80 86 94 95 95 95 96 95 94 94 96 96 96 96 96 96 96 95

GFSWCAN_sfc_rhum_042.txt.gz
RH
80 78 76 76 73 72 72 71 73 74 74 76 76 77 78 74 75 83 86 79 83 77 65 51 47 55 54 50 60 60 77 83 93 93 92 94 74 64 65 56 67 71 84 80 73 84 86 64 70 80 68 66 64 66
82 79 79 78 74 73 70 72 74 77 76 76 75 75 73 71 68 82 94 83 79 96 75 62 59 53 53 57 61 58 68 63 96 98 91 85 73 54 60 73 55 72 62 67 62 69 52 53 64 61 59 62 69 68
85 82 82 79 74 74 74 74 76 82 79 74 73 76 73 70 71 78 98 94 97 98 80 73 65 55 54 60 54 69 62 65 98 99 99 98 97 74 76 67 60 60 54 65 58 54 53 49 57 58 66 67 64 63
87 84 81 77 75 76 77 78 81 85 78 76 75 74 75 76 76 80 93 90 95 91 93 68 50 59 52 62 64 61 62 62 80 93 96 98 99 74 70 63 60 60 59 64 65 59 73 59 51 60 61 63 64 66
89 86 78 78 80 81 82 83 84 80 77 77 77 78 77 78 75 78 86 90 89 96 95 84 72 57 50 53 58 60 63 69 79 90 96 94 96 96 85 77 76 67 71 76 72 53 55 54 53 58 65 70 65 69
89 85 84 83 82 82 86 83 82 80 78 78 78 78 77 75 67 89 93 90 86 88 98 94 72 64 57 67 60 62 68 71 81 84 84 81 72 89 98 96 57 49 50 50 58 63 66 68 68 66 66 66 66 71
88 88 86 83 80 84 83 80 81 78 78 77 78 77 71 75 88 92 95 87 79 85 95 95 91 66 69 71 74 74 69 81 82 88 84 80 75 96 99 85 60 42 46 61 61 67 73 70 80 68 65 65 66 68
90 88 87 84 85 86 83 80 81 80 79 77 75 67 74 76 81 91 85 78 81 96 99 97 92 91 74 85 80 73 79 84 92 90 79 78 72 76 86 74 84 64 60 64 67 65 68 64 64 67 72 72 77 76
90 88 89 86 85 85 80 78 79 79 78 73 63 73 86 87 86 94 82 83 96 98 99 96 98 98 96 97 89 83 78 88 77 93 83 77 82 94 72 54 69 82 70 70 70 67 67 70 76 84 85 84 85 83
91 92 92 87 85 80 78 78 78 77 73 70 69 72 88 89 71 76 97 99 100 100 100 98 99 95 99 98 99 94 89 94 98 83 79 90 92 59 79 86 81 69 69 73 79 92 95 96 88 87 89 89 89 87
93 93 92 89 85 83 80 78 77 79 73 83 92 89 85 73 93 93 100 99 99 98 98 94 96 96 86 99 98 97 98 98 98 96 91 99 89 84 75 75 67 64 63 69 72 74 77 83 90 92 91 88 86 80
92 93 90 88 86 83 81 77 77 84 91 93 92 82 86 89 98 98 98 99 98 99 96 99 88 87 91 97 100 98 99 100 99 96 100 99 99 95 75 73 76 66 69 70 69 79 84 82 85 89 90 91 90 86
93 91 90 88 85 82 82 77 76 72 77 87 88 91 92 98 90 88 94 94 96 97 97 94 93 85 90 99 99 100 100 99 99 100 96 100 92 80 74 73 71 70 70 70 73 73 74 83 81 79 81 86 90 88
89 89 89 88 88 85 82 80 71 74 85 96 93 78 95 95 92 94 95 97 96 98 95 92 93 91 90 100 99 100 99 100 99 99 99 99 89 79 74 70 70 73 76 77 78 77 80 81 79 75 78 77 78 86
88 88 89 90 91 88 84 78 70 86 95 96 93 82 94 92 97 97 100 98 96 97 97 91 93 93 97 99 99 99 99 99 99 100 99 98 88 78 76 72 76 78 77 78 77 74 74 75 74 74 77 76 72 71
88 88 88 91 90 87 81 76 84 88 98 96 96 95 89 96 97 98 98 98 97 94 96 98 98 99 98 99 99 99 99 99 100 100 99 97 94 79 73 72 70 65 59 64 71 70 70 78 80 77 72 80 82 75
85 85 92 92 89 82 73 94 96 96 95 94 96 90 94 97 97 94 76 77 82 95 92 91 91 99 96 98 99 100 99 100 100 99 99 92 89 79 65 76 75 62 56 71 79 83 89 76 64 53 54 63 83 89
90 95 93 86 84 83 93 99 97 95 97 97 97 97 84 78 85 81 77 81 92 94 83 90 99 95 97 98 94 100 97 100 99 98 98 92 82 74 67 72 66 59 60 63 78 89 90 86 75 72 74 81 84 92
91 94 88 83 84 96 98 97 98 99 96 97 96 94 89 87 84 83 83 83 85 80 92 90 95 93 95 94 97 100 100 100 99 93 92 83 83 80 77 79 81 84 90 87 69 67 67 69 66 70 72 79 84 85
87 89 86 79 79 97 95 97 96 98 96 95 94 97 96 96 91 90 91 90 84 85 90 91 88 91 91 85 96 97 97 92 92 91 87 83 83 91 95 98 97 88 88 90 89 65 67 64 64 64 73 86 87 87
88 94 88 90 99 96 91 95 97 96 97 97 97 97 97 96 98 98 91 83 91 88 94 92 88 81 78 81 82 84 77 88 90 90 90 95 80 86 96 96 93 71 71 65 65 56 56 63 64 65 72 80 82 83
98 84 99 95 99 99 94 92 97 96 98 97 98 98 98 98 98 95 92 95 94 95 94 96 94 93 87 83 84 88 85 88 84 86 80 85 89 95 92 89 91 85 80 81 66 58 56 57 60 63 72 76 78 80
88 92 100 100 95 91 94 94 97 96 100 98 97 99 96 98 98 97 100 96 95 93 94 93 91 92 91 81 89 89 91 93 94 91 91 91 86 93 96 94 92 90 90 90 94 93 90 60 62 68 70 73 83 81
83 99 97 98 94 96 92 100 91 97 96 99 100 97 93 97 97 100 98 95 94 92 93 91 93 90 88 88 95 92 92 96 95 93 92 92 93 78 80 92 80 90 89 94 89 91 89 65 59 68 70 88 92 92
93 97 98 98 97 97 99 100 100 94 100 97 100 97 96 98 100 99 96 91 96 95 94 94 91 92 94 94 91 92 90 94 96 95 90 91 92 84 88 83 63 62 84 90 92 92 94 94 93 93 93 94 94 93
96 95 96 92 97 96 95 99 99 97 97 100 97 95 98 99 100 93 93 94 93 94 91 86 88 91 93 90 92 93 93 94 95 96 91 93 88 90 93 92 91 82 82 81 90 87 89 91 92 92 94 89 78 89
97 97 94 83 85 85 90 84 82 95 99 97 96 98 97 96 95 85 90 92 89 92 92 89 87 89 88 85 90 90 93 93 91 89 94 90 86 86 85 84 85 84 90 85 88 88 88 90 92 92 93 96 95 94
88 84 97 92 98 96 95 97 95 96 93 90 94 96 96 92 83 90 91 92 89 93 93 95 95 90 88 84 83 90 95 95 95 95 94 85 83 83 86 87 92 67 91 92 92 93 91 91 92 93 95 95 96 97
92 92 94 98 99 99 96 94 92 87 74 88 93 90 87 87 90 90 88 90 95 93 93 91 74 85 84 86 88 90 96 97 95 91 80 73 71 82 89 89 92 94 95 94 69 83 93 96 96 96 95 96 96 96
95 94 94 96 96 95 90 86 93 95 84 81 81 87 79 78 80 81 91 94 94 76 66 64 65 79 73 73 76 86 93 88 86 79 76 72 75 91 92 93 95 96 96 95 97 97 78 90 93 99 98 99 99 100
95 96 98 95 96 91 86 94 92 68 83 94 93 88 70 71 67 62 60 60 64 68 70 73 72 73 77 78 84 84 82 92 90 86 85 96 94 94 95 96 96 96 96 97 98 98 99 99 100 100 100 100 100 97
99 98 98 100 95 96 97 97 97 98 97 100 95 98 98 97 92 85 87 76 76 77 73 71 74 72 83 86 93 94 71 96 97 97 96 98 96 96 96 97 98 98 98 99 99 100 100 100 100 99 98 99 98 97
99 99 100 99 98 95 98 95 96 98 99 100 95 90 80 88 84 82 98 97 95 97 98 98 98 97 97 96 97 96 84 97 87 73 71 77 80 88 98 99 98 98 99 99 100 99 98 98 98 100 98 97 97 98

GFSWCAN_sfc_rhum_045.txt.gz
RH
82 79 77 77 75 73 72 70 73 73 74 76 74 75 73 71 75 90 93 83 85 96 90 67 67 68 64 63 68 67 77 86 94 96 93 92 87 72 74 70 82 86 90 94 89 86 89 64 73 78 68 76 74 70
84 82 79 80 76 75 72 72 74 77 76 74 74 74 73 69 70 77 96 86 83 98 90 77 70 69 66 66 76 70 74 66 99 99 99 98 88 74 75 82 73 78 70 81 74 73 54 70 68 68 66 70 74 71
86 84 81 81 76 75 75 75 77 79 83 75 75 73 73 74 73 84 97 96 98 98 94 83 74 65 59 64 61 76 80 86 96 96 99 98 99 94 84 78 71 68 61 67 64 61 59 54 67 67 73 75 69 69
87 86 85 81 78 77 76 78 81 83 79 75 74 74 75 75 74 75 96 96 96 96 95 77 53 66 56 66 65 68 71 72 84 96 95 94 97 92 96 83 76 66 63 68 70 65 69 65 62 65 69 69 69 70
89 88 85 80 79 81 82 84 82 79 78 76 77 78 78 76 73 88 96 96 93 96 97 91 77 64 57 69 74 72 73 77 83 92 99 94 90 96 96 99 81 71 67 74 75 60 58 58 58 67 72 75 74 73
89 88 84 86 84 84 86 82 83 79 76 77 78 79 76 70 68 96 95 92 90 94 98 98 78 71 66 73 65 68 73 76 84 89 90 85 76 89 99 93 71 55 62 57 60 66 69 80 75 76 76 73 69 70
88 86 88 86 83 85 82 83 81 78 78 78 77 74 72 75 95 94 93 86 81 90 99 97 93 73 74 74 80 81 74 86 88 93 92 84 78 87 95 85 54 50 72 79 70 72 78 80 81 74 70 69 68 73
88 88 88 86 86 85 83 82 82 79 78 76 71 65 74 76 81 94 96 81 86 95 98 98 94 93 77 90 89 84 88 92 94 95 91 88 82 86 93 61 49 47 82 78 71 72 76 73 72 76 78 79 84 83
90 88 89 88 87 84 81 79 78 77 76 72 64 73 90 93 95 90 85 89 95 96 99 98 100 99 94 92 97 91 84 96 87 98 90 85 86 91 70 68 56 41 94 93 78 70 75 77 84 87 86 88 90 90
89 90 90 89 87 82 80 79 76 77 77 68 78 86 97 95 72 75 98 99 98 99 99 97 97 97 96 95 99 98 96 98 99 89 86 86 90 60 63 71 69 79 84 90 83 90 94 98 90 90 92 92 93 93
91 92 90 87 86 85 81 78 76 76 76 92 95 92 93 76 96 95 95 96 96 98 98 97 99 97 85 98 97 98 98 98 100 94 92 98 98 96 85 88 80 87 86 77 81 82 85 86 93 93 92 91 87 85
93 93 89 87 86 84 81 78 77 90 96 92 92 89 94 91 96 95 99 94 97 98 96 97 95 89 90 94 100 97 99 99 98 97 98 99 99 100 99 81 86 78 82 75 76 85 89 84 86 87 87 89 90 88
93 92 89 87 86 83 81 80 75 74 81 93 91 92 92 93 78 84 92 88 94 98 98 98 94 89 87 98 99 100 100 95 99 99 99 99 94 83 98 99 99 94 89 92 81 77 81 84 80 81 87 91 89 91
94 90 88 87 88 86 82 78 70 77 91 96 84 59 87 96 92 95 94 96 93 99 98 98 98 96 89 99 99 100 97 100 99 99 99 99 99 83 79 95 76 95 98 99 97 80 79 80 80 80 79 79 77 80
89 89 89 90 90 87 83 75 72 92 96 96 86 68 89 90 97 99 98 98 95 98 100 98 98 96 97 99 98 99 99 98 98 97 99 98 98 99 79 74 77 76 78 96 84 93 75 77 78 80 81 84 82 81
89 90 93 92 90 85 79 79 89 92 96 95 94 82 93 93 96 99 100 99 98 95 98 98 97 99 94 99 98 98 98 97 98 99 99 98 99 99 98 74 68 61 68 76 74 72 74 75 75 70 69 70 86 90
79 94 93 92 87 81 78 96 95 98 95 91 90 95 98 98 97 98 93 90 91 95 98 92 93 94 97 99 99 98 98 98 100 99 98 99 99 89 74 76 74 60 66 82 90 88 88 90 72 56 58 66 81 90
96 97 92 86 83 84 95 98 96 96 98 98 92 98 93 90 92 90 89 91 94 97 95 92 95 93 98 100 96 99 99 100 99 98 96 95 90 84 79 80 67 70 97 98 98 97 98 92 78 71 74 87 87 90
95 93 88 82 86 94 96 97 95 100 97 98 98 98 94 90 91 90 90 90 92 84 89 90 90 90 95 95 96 98 98 99 91 80 77 84 89 83 90 99 97 93 98 98 83 69 64 63 61 65 69 82 86 84
89 89 83 78 79 94 95 99 94 96 94 94 97 98 98 97 94 94 95 94 82 83 91 90 89 90 93 92 98 96 92 93 93 80 67 76 88 92 92 96 96 98 98 90 87 67 65 57 58 62 68 81 87 85
90 92 86 89 97 93 90 98 98 100 99 96 98 98 96 98 98 100 96 94 90 95 93 89 90 89 86 88 89 89 84 86 80 79 80 92 91 95 96 93 98 91 79 70 68 62 58 60 58 63 65 73 84 88
98 85 98 93 96 93 90 94 93 98 98 97 98 99 100 98 100 100 97 96 91 94 94 96 96 95 92 88 90 92 84 85 87 90 81 81 84 96 94 95 98 92 85 78 68 59 54 54 59 60 67 73 73 87
88 91 98 97 92 88 94 93 97 96 97 97 98 98 96 99 98 97 100 97 94 90 90 95 93 93 92 88 91 90 93 94 93 93 89 92 93 95 95 95 95 94 93 87 86 84 83 60 60 65 72 70 80 84
83 92 95 98 93 97 91 100 94 99 95 99 100 100 94 98 98 100 100 95 88 93 90 90 95 93 90 89 93 85 88 97 97 96 94 97 95 86 84 86 91 94 92 93 93 86 84 65 62 66 69 90 90 91
79 87 92 98 98 96 100 100 100 97 100 100 100 99 95 98 100 100 97 81 92 91 78 90 93 89 87 94 94 87 87 94 95 92 91 96 96 91 85 83 68 70 93 92 92 92 92 91 88 88 91 93 92 95
94 93 98 94 98 91 96 100 100 98 99 100 99 97 99 100 100 94 91 89 94 94 93 83 77 89 92 89 89 88 72 94 97 98 91 94 93 91 93 91 88 83 82 77 87 86 86 89 90 88 90 87 77 88
97 98 96 89 88 88 92 86 85 96 100 99 97 100 99 100 96 86 88 93 93 90 91 82 81 81 73 70 81 82 82 94 89 84 92 96 92 87 87 88 87 83 92 83 83 83 80 83 88 88 89 95 93 92
85 84 98 93 98 97 92 99 99 99 95 89 96 99 96 92 88 87 88 89 86 88 93 90 89 86 78 70 70 74 88 96 97 97 96 89 84 84 85 81 78 77 88 89 86 90 89 87 89 88 90 91 93 93
97 93 94 97 100 100 97 94 93 90 80 92 96 96 94 87 87 72 57 65 96 94 89 79 75 83 80 78 82 87 93 96 95 91 86 76 72 78 94 90 89 88 91 90 69 81 89 92 90 91 90 93 94 96
95 95 95 99 98 97 90 88 92 95 90 84 80 87 76 77 73 79 84 87 91 73 66 66 66 72 71 70 71 73 95 92 89 85 82 79 80 93 97 97 97 97 96 92 92 97 78 90 91 97 96 98 99 100
96 98 99 98 96 94 91 94 96 76 88 94 93 87 72 66 59 59 67 63 66 70 74 73 70 71 82 81 82 84 81 94 90 88 86 95 96 94 94 96 97 96 96 95 95 96 96 98 98 99 100 100 100 99
100 99 98 100 96 93 97 94 97 98 98 100 90 99 98 96 94 61 86 84 76 74 70 69 74 70 87 94 93 91 74 93 96 97 95 99 98 96 96 97 97 95 94 95 96 97 99 100 100 100 100 100 99 99
97 97 100 100 98 96 96 94 94 97 100 100 94 91 89 90 86 82 97 99 94 94 99 98 97 98 98 97 98 98 86 97 96 76 73 78 90 97 99 98 96 96 96 98 100 100 100 100 100 100 99 99 99 99

GFSWCAN_sfc_rhum_048.txt.gz
RH
82 81 80 77 75 76 75 74 76 75 74 75 74 73 71 70 75 90 96 84 85 94 94 76 75 85 79 68 74 68 78 83 95 97 94 92 90 76 81 78 83 86 87 94 91 95 86 58 77 75 67 78 78 76
83 82 82 82 77 77 75 75 76 77 78 75 74 75 76 74 74 87 96 88 84 97 91 89 83 78 73 70 79 75 82 80 99 99 98 98 97 87 81 83 81 82 73 84 77 76 51 55 66 69 72 70 79 78
84 84 84 83 79 78 76 77 78 79 86 77 74 72 74 74 74 83 96 98 97 96 91 82 71 61 61 66 63 79 86 85 87 94 96 97 99 93 96 82 79 74 68 71 70 61 59 56 66 74 73 76 72 71
86 86 86 85 81 79 78 79 82 85 79 75 74 75 77 77 73 78 96 97 96 94 98 83 57 67 58 66 68 69 74 77 87 95 93 94 96 91 90 94 90 72 67 69 74 68 68 62 59 66 72 78 78 76
87 87 88 86 84 81 82 86 83 80 78 77 77 78 78 75 76 90 97 97 95 93 97 93 79 63 59 67 72 74 76 82 94 92 99 96 92 97 95 96 97 74 73 73 72 60 58 54 58 67 74 75 76 78
88 89 88 85 84 85 87 84 82 79 79 79 78 77 73 73 81 95 96 91 93 95 97 97 79 71 64 73 69 74 79 80 86 90 92 88 77 95 99 90 74 51 68 84 88 73 67 72 82 79 77 80 75 74
90 89 86 87 88 86 83 83 81 81 78 76 75 71 75 80 93 93 92 86 84 93 97 97 95 75 75 78 83 83 78 87 88 91 94 88 80 91 96 92 55 50 45 65 78 80 84 79 80 78 74 74 71 74
89 86 88 87 88 84 84 82 81 78 76 73 67 73 75 76 81 93 97 84 88 98 94 97 93 91 84 93 95 85 88 93 93 95 93 93 82 83 92 64 58 54 49 44 60 87 83 76 81 81 81 80 84 86
86 88 88 89 88 84 82 80 79 77 73 70 74 78 89 93 94 94 84 86 96 98 98 97 100 98 94 94 96 94 84 95 88 96 92 88 85 92 64 58 61 57 62 79 91 93 83 81 88 89 87 88 89 91
89 89 90 90 87 83 81 79 78 78 70 72 81 85 96 94 76 78 97 96 90 91 98 96 99 99 95 97 98 98 98 98 100 88 89 90 90 64 70 91 64 76 88 95 100 97 97 98 92 90 93 94 94 94
90 91 92 89 86 86 82 78 76 76 78 92 94 96 91 81 94 88 91 95 92 94 94 97 99 92 86 96 96 93 98 98 99 94 88 98 98 99 98 97 81 89 90 87 95 92 87 84 92 95 94 89 90 87
92 92 90 87 87 85 79 76 77 91 94 87 91 91 93 93 95 92 100 91 96 95 95 94 96 95 94 95 99 95 99 98 95 95 97 98 99 98 99 99 98 96 87 87 80 87 87 86 86 87 86 90 89 86
93 89 87 87 86 81 79 74 73 79 87 90 90 88 87 89 63 65 72 79 87 94 97 98 95 94 90 96 99 100 100 96 98 99 99 98 98 96 98 100 99 99 97 96 98 97 90 80 80 82 87 81 87 93
92 88 86 87 87 83 79 73 75 82 88 90 78 61 80 86 86 93 90 91 90 100 98 96 90 99 95 99 97 99 86 99 98 96 99 97 98 97 97 99 99 99 99 99 100 100 98 82 83 80 80 80 78 82
90 87 88 90 88 83 79 74 77 91 94 95 82 60 91 88 97 99 97 99 94 98 100 97 91 96 95 100 95 99 99 97 97 96 95 96 98 98 97 99 98 98 99 99 100 99 98 88 77 81 85 86 87 85
89 89 93 90 87 82 78 80 89 88 96 91 93 81 92 90 93 100 100 99 97 96 98 96 85 94 91 99 99 97 97 94 93 99 99 98 98 98 98 99 94 62 73 86 96 97 94 86 80 60 62 68 86 90
83 97 92 90 84 81 78 93 94 97 93 84 90 95 98 98 95 97 96 92 93 94 95 98 99 90 93 96 99 97 95 95 98 99 98 96 99 98 99 95 81 63 76 91 98 98 97 96 92 57 55 69 83 88
98 96 91 86 84 84 94 96 95 94 95 98 91 97 94 89 93 92 92 93 94 97 97 97 91 95 98 99 97 89 94 99 99 98 94 90 91 92 94 97 94 68 95 99 98 98 98 98 94 83 72 87 88 88
94 92 86 80 82 92 96 97 94 95 97 99 98 98 96 90 92 92 93 92 94 93 95 94 91 90 94 94 96 99 99 99 93 80 72 74 80 88 91 93 98 98 98 98 98 89 77 76 68 59 62 74 83 85
91 86 84 77 75 93 95 98 93 94 96 94 97 96 98 97 96 97 96 96 84 88 87 90 90 85 89 92 96 96 95 93 95 85 66 63 83 95 94 96 97 97 98 98 98 96 82 64 58 62 65 72 89 82
91 91 84 85 96 94 95 97 98 100 99 95 98 98 96 97 99 100 99 98 95 93 96 88 81 84 87 90 91 92 92 84 88 86 80 90 88 96 92 93 96 98 98 97 97 91 70 69 54 55 59 60 74 82
98 84 96 91 96 91 96 94 96 98 97 96 100 100 100 96 99 100 99 95 90 94 92 96 95 93 91 91 92 92 81 82 86 92 82 86 93 96 96 96 99 97 97 94 94 88 66 52 52 56 57 58 67 82
86 88 96 94 91 86 98 93 98 97 99 96 98 97 96 100 100 96 100 98 94 90 85 94 93 92 92 90 92 87 92 93 91 88 87 90 92 95 97 96 96 97 95 94 94 88 82 58 54 58 59 69 73 80
79 90 96 97 92 96 90 100 90 95 95 99 100 100 95 99 97 100 100 93 75 94 96 89 94 96 91 89 85 82 84 94 94 94 92 94 94 84 92 91 87 93 93 95 96 95 89 68 63 68 69 87 88 88
73 79 87 100 98 97 100 99 97 98 100 100 100 99 96 98 98 100 98 73 91 88 79 88 94 92 81 85 89 83 89 92 90 84 73 94 97 97 91 94 82 73 91 96 96 94 90 94 90 88 89 92 90 91
88 90 92 92 97 92 95 100 99 99 100 100 99 98 100 100 100 94 90 90 88 92 92 91 82 83 82 78 77 79 66 86 95 95 84 87 89 93 93 92 85 70 89 79 92 90 89 89 88 87 89 85 74 82
98 99 96 85 86 88 92 87 85 96 100 99 99 100 100 100 98 86 88 94 93 92 94 95 89 79 72 68 76 74 73 93 85 77 80 94 92 92 90 85 83 77 94 87 87 83 80 81 84 86 86 94 91 90
85 87 97 98 98 98 94 99 99 99 94 89 90 99 96 92 86 87 86 89 87 90 87 85 84 78 76 69 65 60 80 94 96 96 94 87 90 89 89 88 83 77 79 91 88 88 85 82 83 84 89 89 90 95
98 93 94 97 100 100 96 92 93 90 78 91 94 93 91 87 89 87 66 84 88 94 88 70 65 83 86 83 79 77 86 93 94 92 86 77 85 88 92 93 93 96 95 94 81 80 88 89 89 88 88 93 94 97
96 94 97 100 99 97 90 90 93 93 91 87 83 88 77 70 61 78 79 70 93 81 71 69 68 78 73 72 71 72 95 92 88 83 86 81 83 93 97 98 98 97 98 97 96 96 72 87 83 97 97 98 99 99
97 97 98 99 97 95 92 95 96 81 93 96 96 90 74 69 62 61 64 66 72 74 76 78 77 80 83 81 82 85 83 94 91 88 86 90 98 98 97 96 97 98 98 97 96 96 97 97 97 98 99 98 98 97
100 99 99 100 98 94 98 98 99 99 98 100 92 99 97 96 95 82 89 91 90 85 75 75 85 78 98 100 99 98 84 97 96 92 91 96 98 98 98 98 99 98 97 97 97 96 95 96 97 99 99 99 99 99
98 99 99 100 100 98 97 94 95 97 100 100 95 96 96 93 86 84 99 98 96 96 97 97 97 98 98 98 98 98 90 98 100 83 81 79 81 95 100 99 98 97 97 97 98 98 100 100 100 99 99 100 100 100

GFSWCAN_sfc_rhum_051.txt.gz
RH
83 82 81 79 76 76 77 76 76 74 77 75 74 75 74 75 76 90 96 87 93 93 92 85 82 87 86 79 80 72 85 83 95 96 98 92 94 82 85 82 84 87 90 95 91 96 91 56 77 76 64 78 78 77
83 82 82 81 80 79 75 76 77 77 78 75 76 76 75 74 77 86 95 92 84 95 90 91 87 83 81 78 82 81 88 91 97 99 97 96 87 95 84 86 84 84 74 84 83 78 54 56 69 68 74 78 77 77
83 83 84 82 82 79 76 77 78 81 83 77 74 74 75 75 75 85 98 99 93 94 85 80 77 64 63 71 68 81 93 85 84 92 94 95 98 90 93 91 84 77 75 76 75 63 64 56 56 71 75 77 78 70
83 84 85 84 83 82 80 80 81 84 81 76 75 76 78 76 74 84 96 97 96 92 96 81 64 78 66 70 74 75 83 84 88 96 93 94 94 84 87 90 93 77 74 73 77 66 65 60 64 59 67 74 79 78
84 86 87 85 84 84 83 83 85 80 77 77 79 79 75 75 79 92 97 97 96 92 96 89 80 70 65 70 75 78 84 88 93 95 98 94 92 96 93 94 96 75 72 87 80 84 92 75 66 67 71 75 77 77
86 87 87 86 85 85 87 86 82 79 80 80 78 74 75 78 79 93 94 91 94 95 96 93 84 80 69 76 74 80 84 84 88 88 91 91 82 96 97 93 69 69 75 81 90 88 69 66 76 81 79 78 82 80
86 88 89 86 86 88 89 84 80 80 79 76 74 79 80 80 94 92 93 87 85 93 96 92 94 79 80 80 85 85 80 90 89 93 94 92 83 93 95 94 56 53 50 46 42 59 60 78 89 82 82 83 76 78
88 89 88 86 88 89 87 82 81 79 76 72 76 76 77 78 81 93 97 87 86 97 95 96 91 91 88 96 95 86 89 94 92 94 94 96 85 84 88 70 58 55 58 58 57 76 92 91 84 80 82 83 85 86
89 86 86 89 89 88 85 81 78 76 72 76 78 81 87 91 92 93 84 85 95 90 98 97 99 98 92 95 98 95 88 96 90 95 92 87 85 93 65 84 92 96 91 70 86 94 92 96 84 90 87 88 89 92
86 86 88 89 89 87 84 79 76 73 76 80 80 84 93 94 78 80 97 90 94 90 97 96 95 98 97 94 98 99 96 93 100 85 89 89 88 70 82 98 99 98 92 96 100 98 98 100 98 94 93 92 93 94
87 88 90 90 88 86 83 79 74 77 75 88 92 95 92 82 94 88 92 94 95 92 90 90 94 92 86 98 95 96 98 97 99 92 86 97 96 96 95 95 99 98 97 89 94 98 99 97 98 97 97 94 93 92
89 91 90 88 87 86 82 78 79 86 91 85 89 92 93 93 92 83 100 89 91 86 95 93 94 96 96 95 99 99 99 99 97 89 96 97 95 98 97 96 97 97 99 97 97 99 99 94 84 88 89 92 91 84
91 91 88 88 86 80 78 78 76 80 81 85 84 86 82 87 58 51 53 76 82 93 98 99 96 96 91 94 96 99 98 95 98 98 98 97 94 95 97 98 97 98 99 99 99 99 99 99 87 80 78 78 81 84
91 87 87 86 84 76 75 77 78 78 84 84 76 56 72 80 79 89 84 87 88 98 99 96 96 95 97 99 94 99 87 99 97 96 92 97 99 97 96 97 97 98 99 99 100 100 100 98 89 80 85 81 77 80
86 87 88 87 84 79 77 77 77 89 90 91 77 50 90 87 98 99 99 98 96 99 99 97 96 93 91 97 93 97 96 98 94 92 94 95 98 97 92 96 99 97 88 99 100 99 99 98 92 80 74 74 86 83
87 88 92 87 83 79 80 80 88 87 94 90 91 83 93 90 93 98 99 99 97 96 98 94 94 92 82 97 88 95 100 96 91 97 97 97 96 95 94 91 97 94 68 86 98 99 99 98 96 93 69 64 80 85
84 98 90 87 82 80 77 91 92 94 90 81 92 95 95 98 94 98 98 92 94 92 90 97 99 87 93 95 94 92 97 92 98 100 98 94 94 86 81 88 96 87 66 83 96 98 98 98 98 96 72 56 77 83
98 93 89 85 82 82 94 95 94 92 94 100 91 96 93 87 92 94 94 95 95 97 97 90 93 94 99 99 92 93 99 98 99 99 92 85 80 86 80 88 90 92 83 95 98 99 98 97 96 89 89 83 81 86
92 90 86 78 80 91 94 97 94 95 99 99 99 99 96 91 93 92 94 95 95 94 95 98 96 94 94 93 95 97 100 98 98 91 84 76 80 77 86 93 95 98 98 98 98 97 98 80 86 75 61 79 82 78
88 83 81 74 73 91 95 99 94 92 95 94 97 96 98 97 97 98 97 96 93 94 95 95 92 85 85 88 95 94 96 92 96 89 68 66 73 90 90 93 92 96 98 98 98 97 98 97 73 61 62 68 84 83
88 88 81 85 94 93 96 96 100 98 100 95 99 98 97 96 99 100 99 98 93 98 96 89 86 76 79 88 90 91 82 91 92 85 77 88 77 97 90 89 95 95 99 99 98 97 98 98 97 56 57 61 66 73
98 82 95 88 95 94 96 95 97 97 94 98 100 98 99 95 99 100 99 97 94 93 91 94 90 78 84 87 89 94 89 80 79 84 79 85 94 93 86 90 97 96 96 96 97 96 95 95 87 58 55 54 57 75
84 87 95 90 90 88 98 94 97 98 96 97 98 96 97 100 100 95 100 99 93 93 95 97 91 91 86 84 94 91 89 85 78 77 78 84 88 92 95 94 96 98 95 90 96 96 94 81 75 62 54 57 70 74
77 89 95 95 91 100 90 100 90 95 96 99 100 100 95 99 96 100 100 93 82 96 94 84 93 87 94 96 96 81 76 87 84 82 84 90 91 71 79 87 91 94 92 91 97 96 94 83 73 67 66 79 82 81
68 84 90 99 98 96 100 99 97 95 100 100 100 100 97 99 100 100 97 87 94 91 89 89 96 96 92 80 76 78 85 77 72 66 66 85 89 96 82 84 79 78 91 97 93 95 92 94 91 85 85 88 88 90
86 96 86 97 98 90 97 100 98 99 100 100 100 100 100 100 100 94 91 91 89 88 88 91 92 96 95 85 78 74 65 80 88 84 69 84 86 86 83 81 75 68 92 91 93 92 90 92 91 88 86 82 73 82
98 99 96 81 86 86 92 87 84 96 100 100 99 100 100 100 97 85 88 93 90 90 90 89 90 88 85 75 81 68 63 82 77 69 82 93 90 85 84 79 76 71 93 94 93 91 87 86 87 87 85 93 88 87
85 90 97 98 98 96 95 99 99 99 95 90 90 100 95 91 84 85 85 89 84 81 85 82 85 84 75 69 64 65 64 85 95 95 95 90 88 83 85 86 83 78 84 94 94 92 92 90 87 85 86 84 84 93
94 88 91 98 100 100 96 92 93 91 79 92 90 92 89 87 89 86 62 80 82 91 84 70 64 74 87 85 84 82 86 95 89 81 81 86 91 78 92 93 95 97 97 96 86 83 94 94 91 90 88 89 90 97
98 96 96 100 99 99 92 91 93 95 90 85 83 90 80 69 56 74 85 67 76 81 78 77 76 84 81 80 80 80 94 91 87 84 83 83 84 90 96 97 97 97 98 99 98 98 86 90 87 99 98 98 98 98
96 96 98 100 99 95 95 97 95 80 95 98 97 91 74 78 74 60 70 69 73 77 83 83 85 92 94 90 92 91 88 95 92 88 87 94 97 97 97 96 96 98 99 99 99 98 99 100 99 100 100 100 100 98
100 99 100 100 100 95 97 100 100 100 99 100 95 100 97 96 95 83 97 93 92 92 87 96 93 90 98 96 96 96 90 93 94 96 95 96 96 96 98 99 99 99 99 99 98 98 98 98 98 98 98 97 98 98
98 98 100 100 100 99 97 95 96 97 99 100 96 97 98 94 84 86 99 99 97 97 97 94 94 94 95 96 95 95 93 94 100 92 83 78 82 91 100 99 99 98 97 98 98 99 99 100 100 100 99 100 100 100

GFSWCAN_sfc_rhum_054.txt.gz
RH
92 86 82 82 80 78 78 78 75 77 77 76 75 75 76 76 78 88 97 94 92 96 93 89 85 88 88 84 83 75 88 83 96 94 96 96 95 88 87 83 86 88 93 96 94 94 92 62 77 80 61 77 78 79
90 86 84 82 81 81 78 77 77 78 79 78 78 76 75 77 80 82 99 94 87 94 91 94 88 86 84 83 86 86 93 95 94 98 94 93 80 97 89 87 81 87 77 85 84 80 58 64 74 68 76 80 79 78
89 85 84 82 82 83 80 78 79 80 79 78 76 76 76 76 77 86 99 98 94 93 81 80 81 69 66 74 71 81 95 90 86 93 94 94 96 97 88 92 95 80 78 84 76 70 70 65 64 68 76 76 73 70
85 84 83 83 84 83 81 79 80 82 81 77 76 78 76 74 76 83 97 99 95 95 93 80 68 80 73 76 78 78 86 87 90 96 97 95 92 91 89 91 92 86 85 84 83 70 80 72 74 75 58 72 78 75
85 86 84 84 85 83 84 83 82 84 79 76 77 77 76 78 80 90 97 99 95 90 94 83 80 75 70 76 78 82 86 91 96 97 99 97 91 94 91 87 91 85 83 92 93 94 91 75 55 46 79 84 76 83
85 86 84 85 85 85 86 86 88 82 78 80 79 75 77 75 75 89 95 92 95 94 92 91 84 81 76 80 76 87 91 88 92 94 94 91 82 93 90 83 66 62 61 69 62 54 58 55 52 56 91 75 83 85
86 86 84 86 86 86 88 88 84 80 81 79 76 76 76 76 93 90 86 89 87 92 92 91 93 78 84 86 90 90 87 94 91 93 92 91 83 93 96 89 58 61 57 67 76 63 66 58 64 83 86 78 82 83
87 87 85 86 87 87 89 87 83 80 78 76 78 78 76 77 79 94 94 84 88 96 93 94 89 93 92 97 94 90 92 93 92 96 93 94 85 85 86 69 61 75 85 85 79 73 80 81 86 79 88 83 82 87
87 87 85 86 87 90 89 86 84 80 76 76 76 77 86 91 92 95 83 86 96 91 95 97 99 96 88 95 97 94 94 92 92 92 92 88 85 93 86 83 95 95 97 96 95 96 94 96 96 93 89 90 93 92
87 86 86 86 90 90 87 86 82 78 81 81 82 78 93 97 77 85 91 91 95 97 96 98 95 97 94 95 95 99 98 97 100 86 89 85 86 71 68 93 92 89 96 97 98 96 98 97 97 95 92 96 96 95
87 86 86 89 90 88 86 82 78 82 82 88 88 95 94 84 93 93 96 94 95 90 94 91 91 96 88 99 98 93 99 98 98 96 94 96 95 86 86 91 84 88 93 96 98 97 99 99 99 99 99 98 98 93
86 88 89 90 89 86 83 80 83 87 92 83 90 92 91 91 90 72 96 86 87 76 96 97 94 95 95 95 96 99 99 98 97 95 97 97 94 95 93 92 88 88 90 92 95 99 99 99 99 99 99 99 99 98
88 90 90 89 88 86 82 83 75 77 79 83 83 83 79 88 55 41 42 77 79 94 98 98 91 97 95 96 96 99 99 98 97 98 95 92 96 93 88 91 90 90 88 90 94 96 98 99 98 95 89 81 77 81
90 90 89 88 86 85 84 80 78 77 79 82 73 59 71 74 72 82 77 85 87 97 99 99 99 96 97 99 93 97 86 98 100 100 94 96 96 95 94 91 87 88 94 90 96 99 98 97 96 92 84 90 87 82
90 89 88 87 85 84 84 80 76 86 89 85 73 48 82 90 100 97 98 98 97 98 99 98 97 95 95 90 93 92 83 98 95 90 94 94 94 94 93 87 87 87 90 92 92 98 98 98 96 89 83 84 95 92
88 84 91 84 83 83 81 78 83 86 92 89 88 86 92 92 99 99 98 100 97 97 96 94 97 96 91 94 84 87 91 97 88 97 96 97 94 90 89 86 82 83 92 86 83 95 99 99 98 97 94 76 84 84
84 97 86 84 84 82 74 90 91 92 88 83 95 90 93 94 92 98 98 91 95 92 88 96 76 67 87 95 92 85 91 92 98 98 99 94 93 90 86 84 80 85 91 84 81 88 98 99 99 98 97 92 94 88
92 89 86 85 79 81 93 94 92 90 92 100 90 97 89 88 91 94 94 96 94 97 95 84 92 100 99 99 92 93 98 95 95 98 97 90 87 82 77 84 86 93 96 92 89 95 98 98 98 95 98 91 83 92
87 88 85 77 78 90 93 97 93 94 100 100 99 99 94 91 94 93 94 96 95 93 96 99 97 99 93 93 93 95 97 97 99 93 90 86 80 75 74 88 92 95 95 97 96 95 97 98 98 96 93 85 84 83
88 84 78 73 72 90 90 97 94 91 96 96 96 97 98 98 97 98 98 97 96 97 99 100 94 84 86 83 92 88 92 90 95 93 76 69 70 88 92 95 94 95 96 96 97 93 98 98 98 97 74 68 82 83
81 85 80 84 93 93 96 99 99 99 100 96 99 98 98 97 100 100 100 99 96 98 98 94 93 80 79 84 88 88 88 94 93 93 86 82 71 96 93 94 97 94 97 95 97 95 90 96 97 99 95 58 67 74
95 79 93 88 92 94 97 95 98 96 96 99 100 99 99 95 100 100 97 98 94 94 94 94 94 89 84 83 84 92 86 88 92 92 79 76 91 87 83 91 95 95 97 96 95 92 89 90 96 98 97 93 55 68
82 86 92 88 85 88 100 95 97 96 92 100 99 92 97 100 100 95 100 97 94 95 94 96 93 93 89 85 93 91 92 93 90 85 82 79 77 86 87 87 93 96 92 83 95 96 95 84 87 85 69 62 57 63
76 91 92 90 87 100 87 99 88 93 96 100 100 97 94 99 97 100 99 92 86 95 96 89 94 88 94 95 98 92 87 94 91 93 86 85 85 65 58 67 76 89 89 86 86 90 94 89 81 83 74 72 72 74
70 93 88 100 98 94 98 98 96 94 100 100 100 100 98 99 100 100 98 88 96 93 90 91 96 93 92 92 93 91 87 92 92 83 70 77 85 89 78 73 76 72 89 92 85 89 91 97 96 95 88 84 82 84
88 97 85 98 98 86 97 100 100 99 100 100 100 100 100 100 100 88 88 90 90 91 86 76 77 92 92 87 81 84 78 91 89 90 74 83 80 83 86 78 70 63 92 87 86 88 88 93 93 89 87 86 79 80
98 99 95 81 83 83 92 89 85 96 100 100 100 100 99 100 96 84 88 93 88 88 88 80 83 80 64 54 60 76 83 92 83 73 87 90 88 84 83 76 72 68 92 90 93 92 90 89 91 91 88 85 86 83
87 94 97 99 98 97 96 99 99 97 95 90 90 99 93 88 80 83 83 89 86 86 91 86 86 81 79 73 70 73 81 92 95 95 96 91 90 87 88 83 79 73 79 92 95 96 96 96 95 94 92 89 88 88
94 92 92 99 100 100 97 93 93 93 80 92 89 91 87 85 90 88 77 86 94 94 89 76 75 90 94 94 93 93 95 97 94 91 89 85 85 84 91 93 92 98 98 97 84 84 93 95 96 96 94 94 94 96
100 96 98 100 100 99 94 93 94 96 90 83 81 92 90 80 67 84 85 88 86 78 83 91 92 96 92 92 89 86 95 96 94 91 90 88 91 89 95 96 97 98 98 98 98 97 86 94 95 97 98 97 98 98
98 96 98 100 99 96 97 96 95 78 96 100 98 94 77 88 87 94 95 99 96 97 96 96 91 97 97 96 97 96 92 96 100 97 97 96 96 95 92 95 97 98 99 99 99 99 100 100 100 100 100 100 100 99
99 99 100 100 100 97 97 100 100 100 100 100 97 100 99 96 97 89 99 98 93 92 90 98 96 90 95 96 97 96 93 93 94 94 95 97 96 95 96 97 100 100 99 99 100 99 100 100 100 100 100 100 100 100
98 99 100 100 100 99 97 94 97 97 99 100 98 100 100 96 83 87 97 100 95 95 96 96 94 94 96 96 96 97 95 95 98 91 90 91 90 90 100 99 99 99 98 99 99 98 100 100 100 100 100 100 100 100

GFSWCAN_sfc_rhum_057.txt.gz
RH
94 93 91 90 84 81 82 80 76 76 77 76 75 77 76 76 75 89 98 96 85 98 95 90 86 89 87 85 84 77 89 84 95 97 96 98 94 90 88 83 88 88 93 97 91 96 89 61 72 75 68 78 76 78
93 92 89 87 84 82 83 80 78 78 77 77 78 76 76 77 75 84 96 93 84 93 93 92 88 87 84 85 89 87 91 95 96 99 95 92 78 95 92 88 80 88 80 82 83 79 60 65 69 70 78 76 78 82
94 92 88 86 84 84 83 81 79 79 80 79 78 76 76 74 74 82 97 98 91 91 85 83 83 72 70 78 75 82 94 90 86 94 94 96 94 93 88 88 98 85 81 82 76 73 80 81 72 76 58 54 62 78
92 89 85 85 86 85 83 82 81 81 80 77 75 77 77 75 73 81 98 99 92 91 90 85 71 81 77 80 83 80 87 89 90 96 96 92 90 90 86 94 96 90 86 89 86 84 74 77 52 49 48 50 76 79
92 88 85 86 85 84 84 84 85 83 79 75 76 78 76 77 78 92 98 99 93 86 89 84 82 78 73 77 83 88 90 91 95 95 98 98 90 94 91 90 95 88 93 95 93 72 83 65 58 56 58 58 84 76
92 89 87 85 84 85 86 86 87 80 81 78 80 78 77 77 79 88 91 90 95 90 89 93 84 83 83 81 83 89 94 93 95 92 97 91 82 94 92 84 66 63 61 60 70 64 74 77 64 56 62 77 77 84
92 90 86 85 85 85 86 88 87 83 79 81 78 78 76 75 95 88 80 86 88 89 88 94 94 78 87 88 92 92 91 96 93 96 93 92 84 89 90 80 54 60 72 78 76 82 86 67 82 77 82 84 84 88
90 89 88 86 85 86 87 89 85 82 80 77 77 73 75 76 80 94 96 85 85 92 91 89 87 92 90 97 84 89 96 95 96 97 95 94 85 84 78 64 64 75 85 85 82 87 91 93 86 83 80 80 87 92
88 88 86 84 86 88 89 86 85 81 77 78 78 76 88 93 94 97 82 84 94 86 93 96 99 85 87 94 96 96 96 95 95 95 93 88 85 94 76 81 83 88 93 96 95 95 86 89 94 88 94 96 92 92
88 86 84 86 88 88 87 86 84 82 82 80 84 82 95 97 80 85 90 89 93 96 95 98 89 97 94 95 95 91 97 98 100 92 92 94 93 74 72 77 89 85 90 94 98 96 96 97 96 95 96 96 97 97
87 86 87 87 89 88 86 85 83 82 82 88 88 97 94 86 92 90 96 89 92 84 97 99 95 98 90 98 98 94 91 98 98 95 98 98 97 91 88 92 91 91 86 89 92 95 96 99 98 97 98 99 99 99
88 86 87 89 89 87 86 84 84 89 93 85 91 92 89 86 86 66 93 84 81 69 97 98 95 94 94 93 94 88 97 96 98 98 99 99 92 93 95 92 91 92 93 85 83 95 96 95 99 97 97 98 98 99
87 87 89 89 88 87 85 85 74 77 81 82 82 79 77 84 50 43 52 77 81 94 99 99 89 95 94 95 96 95 95 97 94 98 97 93 93 92 90 94 94 91 92 92 89 83 90 90 97 94 94 77 85 81
88 88 89 88 86 85 84 78 78 72 78 84 77 59 70 70 66 76 75 84 89 98 97 96 99 96 88 94 85 92 88 97 98 100 97 96 93 85 91 92 95 92 90 92 96 94 96 97 97 95 93 88 89 93
89 89 87 87 85 85 81 80 72 84 87 83 74 56 82 91 98 98 97 97 98 94 98 97 97 94 98 90 79 86 87 82 95 92 94 93 93 93 91 89 90 91 92 93 94 95 95 97 97 96 95 90 87 91
89 87 88 87 85 86 84 74 82 83 91 87 88 91 91 94 100 97 99 97 97 99 92 94 98 96 96 96 85 92 92 92 90 96 96 97 98 90 87 86 86 86 90 91 94 94 91 97 98 97 97 94 86 89
77 96 88 88 88 79 70 88 91 89 88 84 95 86 91 93 92 96 94 88 94 89 90 95 78 65 86 92 89 84 88 93 94 98 96 97 98 90 88 81 76 78 89 92 95 89 89 95 99 99 98 98 98 96
91 90 89 86 77 77 92 94 91 88 91 98 88 96 82 87 93 96 95 98 91 91 91 82 90 99 97 98 93 93 96 97 97 93 93 97 92 89 77 79 76 85 92 94 93 96 96 98 98 97 98 99 97 95
88 88 85 75 80 90 92 95 92 96 100 99 98 99 93 91 94 94 96 96 94 89 95 99 98 98 88 92 90 93 94 95 81 76 90 89 88 88 74 82 90 94 94 95 92 94 94 96 96 97 98 98 96 91
88 83 79 74 69 89 88 95 93 91 96 97 96 98 98 99 97 98 98 97 94 98 99 100 91 79 80 80 92 91 88 82 91 91 72 71 85 86 83 88 92 94 94 96 94 85 98 90 98 99 98 97 96 88
83 80 77 82 92 92 94 98 98 97 98 96 99 97 98 97 100 100 100 98 97 98 98 94 93 81 80 82 82 82 83 90 89 91 77 80 82 92 85 85 96 88 89 86 93 82 89 97 94 98 99 98 97 94
91 76 92 86 91 94 96 93 97 95 96 99 98 96 98 97 100 100 98 98 99 94 94 94 94 94 83 78 84 91 82 85 89 92 82 87 93 94 85 86 93 92 89 88 86 85 83 90 93 97 99 98 97 96
79 83 90 88 84 84 100 94 94 97 89 100 98 89 99 100 99 94 99 97 96 95 95 96 94 92 89 90 94 89 92 92 93 92 88 88 84 85 89 84 85 92 86 73 92 93 91 81 83 85 91 92 97 96
74 90 90 90 85 99 82 97 88 96 98 98 99 90 95 99 97 100 99 94 88 96 97 93 97 93 93 93 94 86 82 94 94 95 93 94 91 73 66 69 65 73 80 83 83 86 94 90 80 90 90 91 92 95
70 90 85 98 96 89 94 98 98 97 100 100 100 100 98 99 99 100 100 90 96 93 92 94 96 93 84 81 88 81 86 93 90 78 74 92 84 89 84 74 66 65 79 92 87 84 87 96 97 97 97 96 90 86
90 98 84 94 97 83 93 97 100 99 99 100 100 100 100 100 100 90 89 91 92 92 88 84 78 85 80 83 72 67 61 89 95 92 70 90 85 78 77 74 68 66 82 79 85 86 85 92 94 93 93 89 80 84
93 100 93 78 78 80 90 88 84 93 100 100 100 100 99 93 94 82 88 93 88 87 87 90 86 83 76 62 66 71 79 94 88 74 66 90 86 83 81 81 79 72 88 89 89 90 88 90 94 96 96 95 94 91
92 90 96 100 96 97 96 98 97 94 93 91 90 98 89 85 75 82 83 88 85 92 94 93 91 89 87 83 82 81 84 89 96 93 93 93 93 89 89 86 82 75 79 92 93 96 95 96 97 97 98 97 95 95
96 92 91 100 100 100 95 91 90 93 80 92 87 90 87 86 90 91 82 90 96 94 90 86 89 96 96 96 95 94 95 96 98 96 96 92 91 92 97 96 95 96 97 98 84 84 97 97 96 97 96 97 98 97
99 94 96 100 100 98 95 94 95 97 90 82 79 92 93 91 90 94 92 93 93 94 96 98 99 98 96 97 94 91 94 96 98 98 97 95 95 95 92 96 95 97 98 98 98 98 88 93 96 99 98 96 97 97
94 97 98 99 97 97 98 95 95 77 94 100 98 96 90 96 92 98 98 100 98 98 94 92 92 100 99 98 100 100 95 96 95 93 93 91 92 93 92 91 97 98 99 100 100 100 99 100 100 100 96 95 99 99
98 100 100 100 100 98 99 100 100 100 100 100 98 100 98 96 94 93 96 97 96 96 93 100 100 94 98 98 98 98 92 95 95 94 96 95 92 93 94 98 99 100 100 99 100 100 100 100 100 100 99 98 99 99
98 100 100 100 100 100 98 94 99 99 98 100 99 100 100 97 82 88 98 100 94 95 97 97 96 96 96 98 99 98 93 97 99 90 92 83 83 92 97 96 98 99 99 99 100 99 100 100 100 100 100 100 100 100

GFSWCAN_sfc_rhum_060.txt.gz
RH
86 84 92 93 91 90 89 82 80 77 76 77 78 77 72 75 76 73 89 77 58 67 75 70 67 63 62 55 55 56 72 72 94 83 74 76 63 60 60 59 63 62 63 64 64 72 71 49 53 58 61 46 46 45
85 86 94 93 91 89 86 81 81 80 76 76 78 77 76 75 77 74 76 76 64 70 69 72 69 67 66 66 60 65 80 88 83 98 80 74 69 71 65 59 57 70 60 57 60 54 55 49 54 56 43 43 41 43
85 86 93 92 89 87 85 83 82 82 79 78 77 76 76 74 75 76 88 81 73 74 63 60 65 58 58 62 59 53 70 78 70 75 78 82 80 80 67 68 70 64 65 68 63 62 55 41 55 40 44 50 50 44
85 91 94 92 88 86 85 83 83 82 78 77 77 78 75 77 75 78 83 82 75 70 70 68 56 62 58 64 66 64 68 72 70 77 72 70 73 68 66 72 69 63 59 60 53 49 46 54 42 47 56 54 48 48
87 92 92 92 88 86 85 84 83 82 80 77 78 78 75 78 79 82 82 84 79 76 72 69 65 60 59 63 72 70 68 68 65 72 80 77 73 70 64 60 61 55 61 63 58 54 61 59 57 61 64 61 59 68
87 88 93 90 88 86 86 85 84 83 81 81 82 78 76 77 76 71 74 76 80 76 87 83 67 70 67 66 71 74 72 71 71 65 70 68 67 75 67 51 48 51 50 61 71 64 72 73 69 64 65 73 74 73
86 90 94 90 88 87 86 86 85 82 84 84 80 77 77 80 87 75 69 75 79 72 75 88 85 66 75 70 71 70 71 78 71 75 70 66 64 74 69 54 42 51 60 73 71 75 87 79 85 79 84 77 75 75
88 93 91 90 89 86 86 85 84 84 83 79 77 77 76 75 75 81 82 74 71 76 77 87 80 82 73 76 80 73 73 73 80 77 73 67 65 64 63 46 48 59 68 72 72 76 85 82 81 79 73 75 87 93
93 91 91 89 87 87 86 85 84 85 82 78 76 77 81 80 79 87 77 78 82 77 83 78 77 77 69 77 89 82 72 72 75 73 69 72 64 81 54 48 51 59 73 75 77 82 83 86 90 85 85 86 96 95
93 91 91 89 89 88 86 85 84 82 80 80 73 74 89 87 82 81 78 75 85 83 80 92 82 76 76 78 85 85 79 82 91 71 72 76 74 59 56 56 58 64 65 69 89 91 91 93 95 94 89 88 96 96
93 92 90 91 88 88 85 84 83 84 76 80 82 93 94 83 82 75 82 78 66 70 81 88 82 76 76 85 80 80 88 89 91 84 81 84 80 64 58 65 63 63 65 67 67 71 78 85 96 92 89 84 86 90
91 90 90 89 88 85 84 84 82 84 87 81 89 88 80 73 75 70 84 72 60 64 88 78 82 74 80 82 80 91 89 89 92 85 90 91 71 80 80 73 68 63 63 66 64 68 74 78 81 84 91 94 87 90
91 90 90 88 86 84 84 81 76 80 78 80 77 78 71 73 59 57 59 73 81 87 95 89 85 76 81 83 85 86 88 88 86 93 88 76 76 72 71 85 79 70 64 62 68 66 69 76 78 83 86 81 61 66
90 89 89 86 84 83 81 80 76 71 76 82 78 63 73 65 59 64 64 79 77 90 89 80 88 85 80 85 77 84 75 88 91 94 92 78 74 70 64 61 66 70 68 69 81 86 89 92 87 82 84 82 79 72
89 89 88 86 85 83 79 79 70 80 82 77 74 65 74 86 91 90 94 95 91 85 87 89 89 75 94 83 71 77 83 89 73 83 77 77 78 84 73 61 61 64 72 79 77 85 90 94 88 84 83 93 89 67
90 89 87 85 83 81 79 73 79 80 87 85 86 90 84 89 98 93 93 97 91 85 80 78 90 89 90 86 81 87 90 90 80 87 82 77 84 86 79 69 63 58 56 64 79 83 88 93 91 90 89 92 91 79
78 93 86 84 81 76 68 86 87 88 87 79 93 78 83 85 87 83 67 73 80 75 78 81 74 60 82 91 87 77 86 81 84 82 77 80 84 73 72 71 65 58 58 63 77 78 85 88 92 96 96 88 93 95
90 88 85 82 72 74 90 91 89 88 90 93 87 89 70 73 76 80 82 82 77 76 75 77 80 88 79 78 75 78 82 87 80 76 73 69 67 72 70 69 63 60 75 85 83 87 89 93 89 85 90 92 95 95
86 87 82 73 72 90 92 91 91 96 100 95 92 89 84 82 86 82 85 83 79 72 84 88 83 82 68 74 77 81 80 73 57 51 56 56 62 65 66 78 80 79 88 85 71 66 67 78 83 85 88 90 92 94
84 80 74 74 72 90 91 93 89 91 95 94 90 92 90 90 89 92 91 87 84 91 92 90 70 54 53 56 71 67 64 59 62 61 51 45 54 76 80 77 69 75 77 76 75 63 64 64 61 73 81 88 94 94
83 82 79 83 91 89 91 93 97 96 95 95 94 88 96 94 99 99 99 92 93 95 92 77 67 59 66 61 59 60 62 66 62 60 56 64 54 71 75 77 82 70 65 61 55 53 57 59 62 66 75 82 92 96
85 78 92 85 91 93 95 91 94 90 92 95 92 90 94 92 100 100 96 96 97 89 81 74 71 67 67 68 63 74 64 65 68 71 73 72 71 68 68 73 79 80 81 80 65 62 57 56 63 71 76 80 84 93
78 81 94 92 87 86 99 89 90 92 83 92 93 89 95 95 96 92 98 93 92 82 81 82 86 88 81 81 84 77 79 76 64 62 62 62 63 72 80 78 76 88 82 70 74 78 78 64 67 67 71 77 81 87
74 91 93 93 87 97 80 95 82 91 91 88 86 91 94 95 92 95 87 86 74 76 78 87 82 74 70 79 72 60 58 70 68 68 67 71 70 55 54 64 58 64 70 61 69 71 69 63 64 66 70 80 81 82
70 90 88 94 91 86 90 93 94 84 96 98 93 97 96 95 91 96 91 86 81 70 68 71 72 72 66 61 64 61 72 69 65 62 58 71 64 65 72 73 64 58 60 82 75 71 71 72 72 75 78 81 84 87
88 99 80 87 90 79 86 88 92 93 93 99 98 94 96 96 93 84 80 83 72 73 68 63 58 59 59 68 62 58 57 70 75 78 69 71 74 78 85 83 80 72 68 72 76 76 72 74 76 84 80 81 78 83
86 98 88 69 71 75 83 84 80 87 94 91 96 98 92 85 86 75 71 75 71 79 76 73 72 72 67 64 66 68 71 80 86 77 73 80 80 79 85 90 87 74 75 80 79 77 75 75 78 81 86 87 88 88
91 87 91 95 90 90 92 94 91 87 88 84 82 92 82 76 70 75 77 78 82 83 83 82 82 84 85 83 83 83 85 88 91 90 87 83 83 85 87 88 89 84 85 87 88 86 86 87 87 88 92 93 92 89
95 86 86 100 100 97 91 85 84 85 74 85 81 83 81 79 84 81 76 82 86 86 89 90 89 91 87 86 87 89 88 89 97 99 97 89 84 86 87 81 82 86 90 91 86 84 93 94 95 94 94 94 92 92
98 92 95 100 93 97 96 92 94 93 83 78 75 85 86 87 88 90 89 90 91 91 93 94 95 93 94 95 94 90 86 93 92 93 96 93 91 86 90 91 91 93 93 93 94 93 88 92 90 95 95 95 92 90
88 93 94 96 96 98 97 91 92 74 92 98 95 95 90 94 88 91 88 90 90 92 93 94 93 96 96 95 98 99 95 89 95 94 94 93 92 92 92 92 92 93 93 94 96 95 95 94 93 95 97 97 94 92
95 100 94 97 100 97 95 98 100 99 99 98 96 97 95 93 91 87 92 92 95 95 90 95 97 91 93 94 95 96 92 93 96 93 96 94 92 94 95 93 94 93 92 92 93 93 95 98 98 96 92 93 94 95
98 100 100 100 100 100 96 93 96 95 95 98 96 98 98 95 82 82 88 93 93 93 95 95 94 94 95 97 97 97 91 96 99 90 92 86 82 93 92 92 92 92 92 91 93 94 96 98 97 99 99 100 99 98

GFSWCAN_sfc_rhum_063.txt.gz
RH
69 80 77 85 88 90 93 91 89 84 78 77 77 76 76 73 68 60 72 61 47 53 65 55 53 50 48 44 47 53 62 63 80 73 67 58 52 47 50 46 50 52 57 56 57 71 66 48 50 55 53 43 42 40
73 78 79 85 88 93 93 92 89 83 80 76 76 75 74 75 69 59 66 54 46 54 67 54 54 56 59 58 48 60 68 68 71 93 68 61 60 54 52 59 49 61 53 52 50 54 50 40 45 46 41 46 48 49
75 80 82 85 92 92 92 90 86 83 82 79 76 74 73 74 69 64 72 61 51 60 56 54 63 55 50 57 52 56 62 67 64 68 71 75 73 66 57 54 57 55 56 59 60 54 53 38 41 41 40 49 52 49
78 76 83 83 88 92 92 88 84 83 83 78 76 75 75 75 69 62 70 63 56 49 61 63 47 55 49 54 58 56 60 57 57 67 68 65 68 59 53 59 58 53 55 53 49 38 37 37 40 42 52 55 54 51
79 78 82 84 89 94 92 88 84 84 80 78 77 77 76 73 71 68 68 70 64 68 65 65 55 55 53 56 61 56 53 53 52 66 74 70 64 62 52 52 51 46 47 48 42 47 53 51 48 56 62 64 58 67
77 82 85 90 93 92 92 89 86 83 83 83 78 77 76 71 66 56 69 70 64 67 82 81 61 66 57 56 57 59 60 59 61 56 61 60 58 69 63 46 38 43 44 49 59 57 65 65 63 60 68 74 73 71
78 82 89 94 92 91 90 88 84 84 87 82 77 75 75 74 78 70 77 74 66 62 72 91 84 68 66 61 61 62 59 66 61 65 60 55 57 67 62 50 36 37 42 51 56 64 72 67 72 69 75 75 73 69
78 83 87 91 92 91 90 87 86 86 85 79 75 75 76 77 74 72 73 70 65 65 75 96 90 79 67 66 70 63 62 63 72 67 63 58 58 58 64 40 39 41 44 47 56 58 65 67 70 69 71 77 81 82
79 83 87 91 92 91 89 86 87 87 83 79 75 68 75 74 67 79 75 71 72 73 87 82 87 81 64 68 74 69 60 64 65 67 61 64 57 75 49 42 37 41 48 50 50 54 57 67 73 76 77 78 84 84
82 89 92 90 90 90 89 87 86 84 82 76 64 64 85 89 82 78 74 71 80 74 73 82 73 75 69 69 80 79 70 73 89 64 65 70 68 48 45 43 45 47 50 54 84 81 74 80 72 72 85 80 80 80
88 90 90 90 90 90 88 87 84 83 72 74 80 94 96 81 74 66 85 82 58 83 69 73 73 70 69 80 76 74 84 84 91 81 76 78 73 53 45 46 45 44 44 46 50 55 60 63 77 77 83 83 82 85
90 93 92 91 90 88 88 85 83 76 80 80 87 84 77 69 79 80 79 71 68 69 72 66 67 64 76 78 74 83 83 85 88 77 87 89 68 78 71 60 50 42 42 46 46 52 58 55 59 66 77 89 86 89
89 93 91 89 87 87 85 83 72 79 76 76 73 90 75 74 70 69 67 72 79 78 87 78 82 68 78 75 77 80 85 83 79 83 82 73 70 49 50 70 65 56 49 49 58 59 59 60 61 68 72 72 72 73
91 89 90 89 87 87 84 79 77 71 76 86 88 64 78 71 71 72 71 87 78 82 79 70 78 76 73 80 73 80 67 76 81 80 81 74 69 61 54 52 54 63 61 63 77 84 84 83 77 77 76 72 76 79
89 88 90 87 86 82 82 76 65 73 85 85 92 65 72 81 84 87 91 86 81 70 74 79 80 67 87 86 68 77 80 84 69 72 80 72 67 67 64 58 55 59 65 72 75 82 86 87 80 74 76 80 84 92
90 91 88 87 83 82 74 68 75 76 93 95 85 84 74 85 90 86 91 92 79 71 71 70 81 81 84 78 79 84 81 80 76 88 71 53 66 66 59 55 50 51 53 54 65 72 80 84 82 81 81 81 81 96
84 93 88 85 80 70 70 86 84 89 94 95 90 69 79 82 84 79 53 59 63 69 80 77 70 68 78 84 80 71 83 77 82 70 58 57 65 52 49 54 56 56 55 51 66 70 77 79 85 89 90 81 80 95
90 91 86 76 62 71 83 93 93 92 85 90 85 84 63 63 67 64 68 66 68 68 74 78 71 80 72 70 67 72 77 92 80 69 58 55 49 47 50 56 57 60 68 79 81 82 83 85 83 69 77 82 87 97
88 84 76 65 64 86 91 86 94 92 97 90 85 80 76 77 77 70 69 68 65 59 78 79 70 77 63 63 74 88 82 69 49 43 43 45 45 47 54 72 81 81 86 84 69 58 54 64 66 69 73 77 83 89
79 72 66 70 71 88 90 90 91 91 94 90 85 88 88 89 83 80 81 76 76 90 81 81 59 50 44 49 70 64 60 52 48 47 39 33 36 66 74 75 68 74 76 75 74 64 60 59 53 52 58 65 74 80
76 75 77 83 92 86 85 90 94 92 92 91 90 86 94 89 96 96 94 88 91 87 83 60 50 48 58 49 48 51 52 52 49 45 39 50 44 57 64 69 76 64 67 61 53 53 59 77 82 64 62 68 72 78
82 78 92 84 90 91 92 86 91 84 90 93 89 85 90 90 94 95 95 94 90 81 72 61 61 60 59 62 57 68 60 58 55 56 57 58 63 60 60 63 69 74 78 76 65 58 63 75 77 59 64 67 69 76
79 83 93 93 89 85 97 86 90 90 87 91 92 84 90 91 93 90 91 86 82 73 73 74 82 87 79 77 80 73 76 73 59 52 48 48 49 57 65 68 62 76 81 75 69 69 73 69 59 58 59 64 66 71
76 92 93 93 87 95 79 92 78 85 84 78 78 85 88 91 88 90 80 77 69 68 70 86 74 62 65 77 60 56 61 65 59 58 55 57 66 58 50 52 50 55 64 64 69 68 65 58 57 58 60 70 74 75
73 90 87 89 86 84 90 89 87 77 83 85 81 88 91 90 87 87 78 83 79 69 71 68 62 61 55 52 54 52 71 62 63 64 60 60 61 62 68 68 61 59 64 80 77 76 75 71 69 75 75 77 81 86
86 94 81 82 86 81 82 82 82 85 84 88 90 90 91 88 86 82 77 82 69 74 72 66 58 53 53 56 59 61 60 63 70 76 71 69 72 79 87 87 85 79 71 78 83 84 81 75 74 81 76 78 73 80
89 95 83 62 67 71 73 72 69 76 84 85 89 93 87 84 80 72 67 69 70 79 73 71 69 68 69 70 67 66 69 76 84 82 76 79 79 78 88 92 91 86 88 89 90 90 90 86 84 81 82 83 85 89
84 81 89 87 81 78 84 82 82 80 81 75 76 85 80 71 68 77 76 74 77 79 80 79 77 80 81 80 81 80 83 80 82 83 80 76 80 83 91 84 82 78 80 84 88 92 92 92 92 91 92 92 92 91
88 79 81 93 89 84 84 79 79 74 64 77 78 76 76 72 78 76 73 79 83 84 84 82 85 88 86 82 83 82 83 85 92 96 93 86 82 81 82 83 87 88 88 90 86 90 92 92 94 95 95 95 91 95
90 86 85 89 86 89 94 89 89 86 73 73 70 75 73 77 81 85 84 83 86 87 89 90 90 92 92 93 91 86 80 85 89 91 95 93 90 84 88 90 90 90 91 93 93 92 88 92 91 95 94 97 97 97
84 85 88 87 95 94 94 88 86 69 86 91 90 88 84 89 81 83 79 81 88 93 92 93 94 94 91 92 93 95 90 85 94 93 92 91 91 91 90 90 92 93 93 92 92 92 94 96 96 97 95 98 98 94
87 94 88 93 97 95 90 92 95 90 91 89 89 91 88 86 86 81 82 88 93 92 87 91 89 88 90 89 90 90 89 92 93 91 94 93 94 88 90 95 94 93 92 92 92 93 93 96 97 97 95 95 97 97
95 94 94 95 97 96 92 90 88 90 89 90 89 90 91 86 81 77 78 87 89 90 90 91 90 90 93 95 92 90 86 92 97 89 90 86 85 91 95 95 94 92 91 91 92 93 95 97 96 98 97 99 99 98

GFSWCAN_sfc_rhum_066.txt.gz
RH
70 66 65 67 75 85 85 87 93 91 89 84 80 76 75 74 69 75 82 72 72 74 73 59 59 62 58 57 70 67 77 77 90 90 79 84 81 66 72 72 74 77 83 82 76 88 83 55 64 75 64 55 56 58
73 68 65 68 74 82 82 87 89 90 89 82 81 74 73 72 68 67 80 59 58 76 74 59 60 59 65 65 76 74 79 78 86 93 82 77 73 73 70 80 69 79 76 80 68 77 59 52 61 53 53 60 66 70
72 69 67 67 74 83 89 87 91 89 88 84 77 75 73 72 66 67 77 64 67 74 76 73 72 59 56 63 59 81 81 73 76 84 90 90 84 83 82 80 76 78 70 78 74 72 65 57 56 51 62 69 67 65
74 71 68 70 74 81 86 93 89 88 87 81 77 74 71 67 65 65 76 79 75 73 84 81 50 66 56 60 61 63 70 65 71 88 91 76 83 75 80 78 79 73 72 65 65 55 53 54 58 68 69 66 68 67
76 71 69 73 72 80 86 93 89 88 85 80 76 75 72 67 69 75 82 82 78 84 86 85 68 62 60 63 65 59 59 64 76 92 97 94 84 85 71 71 75 64 65 70 76 72 74 66 70 69 74 71 72 75
76 71 70 73 74 78 89 91 90 88 87 83 80 78 71 70 69 80 86 81 76 82 93 95 75 70 65 64 66 67 71 73 81 83 85 82 69 89 89 74 58 56 54 59 71 71 75 73 70 70 74 75 75 75
74 70 75 75 77 81 93 89 88 88 84 83 80 74 72 75 88 90 90 80 69 80 92 94 97 83 74 74 75 77 73 84 87 85 81 78 79 88 88 76 52 52 52 62 68 75 80 75 82 76 74 72 74 74
72 72 76 80 86 92 91 88 90 87 82 80 76 72 74 74 75 83 84 77 81 87 96 96 98 93 80 70 80 79 82 86 90 88 81 79 81 80 89 60 49 51 51 57 60 63 70 68 69 74 75 80 77 78
72 76 76 84 93 92 90 90 90 84 77 77 76 70 78 84 82 86 72 73 87 88 94 98 96 98 79 76 78 85 82 87 85 89 82 81 80 93 69 53 51 53 58 62 62 68 72 69 70 73 74 79 75 73
77 76 76 85 88 92 91 92 88 83 80 75 73 77 94 93 74 80 86 88 93 94 95 96 95 96 86 78 82 81 78 79 91 90 85 87 90 63 56 59 60 60 61 66 87 86 84 88 85 80 79 76 74 74
77 74 76 85 89 93 90 91 87 83 76 81 92 98 96 82 91 80 93 91 90 92 94 95 93 94 84 84 80 79 83 84 91 94 95 79 94 74 59 60 55 52 52 55 58 63 69 73 84 83 76 74 79 76
77 74 81 91 88 89 90 88 84 73 80 82 89 88 93 90 92 76 92 86 83 89 88 90 86 89 87 88 76 85 84 87 90 89 88 88 97 90 81 74 66 65 61 58 55 59 67 66 70 73 77 81 84 79
76 81 90 89 89 90 89 82 70 79 76 87 86 86 87 85 80 60 67 87 94 94 96 94 95 88 82 75 77 79 85 88 90 91 84 94 78 60 66 80 72 69 63 61 68 70 73 76 75 78 79 75 79 72
80 87 91 88 90 89 85 77 79 71 82 92 79 52 75 79 81 90 91 95 97 94 90 91 94 94 80 83 76 86 79 81 87 89 90 94 78 79 71 66 70 74 73 77 86 86 88 91 89 83 81 77 83 84
85 93 89 90 90 88 78 82 72 78 92 84 84 68 86 92 95 98 97 96 96 90 93 94 95 88 89 94 87 89 84 96 91 92 99 94 82 79 80 75 74 75 84 88 86 86 85 89 92 86 80 83 85 88
92 93 87 90 89 82 82 71 78 82 95 92 90 89 82 91 98 97 95 96 95 89 94 94 92 93 95 94 92 94 92 93 93 97 95 80 79 76 75 69 65 64 69 72 80 83 88 88 89 84 85 88 91 88
85 93 90 89 83 81 69 89 93 90 93 89 97 81 93 85 94 95 73 82 82 92 96 95 78 84 94 96 93 90 94 93 96 96 94 75 75 73 66 65 67 71 71 74 79 83 87 89 90 94 93 84 91 90
89 92 89 82 74 69 88 97 92 90 93 97 95 96 76 80 78 82 82 82 91 94 95 89 87 91 90 83 91 94 95 97 97 95 91 73 70 65 62 68 69 74 84 87 89 90 93 92 89 83 84 82 90 90
88 88 82 68 63 88 91 94 94 96 100 97 94 94 91 87 82 80 82 80 80 79 86 94 83 90 92 92 94 96 96 95 76 65 62 59 61 63 62 77 88 90 92 92 91 87 83 77 80 77 78 78 79 79
86 82 68 63 71 90 90 95 95 92 98 96 95 96 96 96 93 94 95 92 94 96 83 83 76 72 67 81 95 94 93 80 76 74 68 60 53 71 82 89 88 89 91 93 91 78 90 87 80 77 74 74 85 78
82 73 68 84 94 89 92 97 96 97 96 96 98 96 98 97 98 97 99 97 96 95 91 92 78 71 68 69 68 70 70 70 75 73 68 80 64 84 91 89 89 90 90 76 79 73 68 70 70 94 90 78 89 89
85 67 91 85 92 93 94 90 94 92 94 97 96 96 97 98 98 98 98 98 97 96 95 92 92 90 77 72 76 88 76 75 75 76 66 66 78 88 84 86 91 87 90 90 89 86 82 75 71 92 87 81 78 87
63 80 95 94 90 84 97 92 92 94 87 95 98 91 97 98 98 97 97 97 96 95 95 94 93 93 91 91 91 89 91 91 81 76 70 69 68 75 85 86 85 88 91 84 90 91 86 72 70 72 76 71 81 87
77 94 95 96 88 99 85 96 84 91 93 92 90 90 95 98 97 97 90 95 95 93 93 92 94 91 92 89 90 88 89 95 92 89 81 88 88 78 74 73 73 79 85 79 86 88 89 79 75 77 75 89 87 89
74 93 91 94 93 87 90 92 95 89 92 92 86 96 98 98 95 93 89 94 95 94 94 93 92 91 89 91 92 89 85 90 92 89 77 90 84 82 90 92 88 83 85 94 96 96 94 93 87 91 93 95 92 91
91 96 88 87 90 81 93 87 92 91 89 92 98 98 98 96 85 76 92 94 93 93 93 91 90 88 91 91 91 93 92 93 95 94 84 93 95 95 94 90 88 84 95 92 95 95 94 92 93 93 93 89 84 84
91 96 79 66 75 76 81 82 76 85 86 86 95 98 94 76 79 84 91 91 90 94 94 93 91 93 94 95 95 94 95 95 95 93 87 86 92 96 98 92 92 88 91 94 95 95 95 94 94 91 92 95 96 96
85 84 86 94 93 94 88 87 87 85 94 88 84 87 70 66 69 90 94 95 96 94 95 96 96 96 96 97 97 97 96 97 93 90 93 94 97 97 97 96 95 81 84 92 90 94 94 94 94 94 96 96 96 97
92 88 90 94 90 88 94 92 93 92 77 92 88 90 84 91 94 94 95 96 97 96 95 95 97 98 97 97 97 97 97 98 100 100 100 98 96 93 88 88 91 91 92 93 85 84 93 94 95 96 96 96 97 97
94 94 87 90 89 98 100 99 98 95 83 82 79 94 92 94 97 97 96 97 96 95 96 97 98 98 97 100 96 94 97 98 99 99 100 99 95 90 92 92 93 92 93 94 94 92 88 93 92 97 96 97 99 99
92 93 90 93 99 100 99 95 94 73 93 97 96 94 95 96 94 97 96 97 98 98 98 98 98 99 99 99 100 100 98 98 99 99 99 96 95 94 93 92 93 95 96 96 96 95 95 96 96 97 97 99 98 97
92 95 92 95 100 98 97 98 98 98 97 96 96 97 95 95 85 94 97 96 98 99 94 97 99 97 98 98 99 99 86 99 100 98 99 97 96 95 95 96 98 99 99 97 96 96 96 97 97 97 99 98 98 98
95 96 96 96 98 98 97 94 93 93 95 97 97 99 99 95 75 88 96 98 96 97 98 98 98 98 98 98 99 98 91 99 99 86 88 84 80 80 92 98 98 98 98 97 97 97 96 96 98 98 99 100 100 100

GFSWCAN_sfc_rhum_069.txt.gz
RH
71 71 70 70 70 68 76 76 85 86 94 91 88 88 75 78 75 74 83 78 78 93 86 78 78 80 69 77 88 76 81 83 93 92 87 91 86 74 79 75 79 82 89 89 87 95 93 58 69 77 70 65 67 68
72 73 71 70 70 68 75 82 88 89 89 89 89 84 74 79 69 74 78 66 66 85 85 70 73 74 77 79 81 86 85 89 93 94 91 88 82 85 81 87 75 79 75 79 77 79 61 62 66 70 70 77 81 82
74 74 73 71 70 69 80 84 86 91 88 87 85 79 78 70 65 74 81 73 81 87 81 82 80 66 63 72 69 87 90 80 83 90 94 94 86 91 89 90 84 83 77 84 72 77 70 75 78 76 77 80 80 80
75 75 75 72 71 70 80 82 89 90 89 88 82 75 73 68 66 70 81 88 79 81 92 89 60 75 62 68 65 69 77 72 80 93 94 92 90 83 90 84 84 80 76 72 74 73 73 83 82 82 77 76 77 74
77 76 74 72 71 71 78 83 92 89 89 86 86 83 73 70 72 81 90 87 83 77 95 93 78 68 68 72 70 68 70 75 88 94 97 95 92 88 83 77 87 76 76 77 76 77 78 81 86 80 86 83 79 82
77 76 74 74 70 71 76 88 92 88 88 88 85 82 74 72 73 78 71 70 80 79 92 98 80 78 72 72 74 74 77 84 89 89 92 89 76 92 90 86 62 66 66 66 82 80 82 84 82 84 84 83 83 84
77 76 74 74 71 73 77 92 88 87 88 88 79 76 75 77 94 88 77 72 70 82 92 98 99 88 83 82 86 86 83 92 91 91 86 88 86 92 93 83 60 60 67 74 78 80 84 84 85 79 82 83 82 83
77 75 75 73 74 75 76 92 91 90 86 82 80 80 70 72 76 77 81 76 82 91 92 96 99 94 82 87 94 89 89 92 92 93 87 86 83 86 88 73 64 61 65 64 66 71 76 74 72 75 75 77 86 87
79 79 75 74 79 75 79 92 93 90 84 80 78 77 80 88 79 71 67 80 94 77 95 95 96 98 82 83 84 90 90 91 89 93 89 84 87 91 71 66 67 66 66 72 71 76 80 82 82 83 85 84 85 82
82 80 76 78 82 86 91 92 91 85 82 81 77 79 84 94 73 81 82 78 91 95 92 96 97 97 87 83 83 85 84 94 94 92 87 87 91 74 70 70 68 66 63 66 87 78 81 84 81 82 83 80 86 83
82 80 78 76 91 90 90 89 85 82 74 86 93 98 98 84 86 80 89 77 90 91 96 98 94 96 89 92 88 82 86 85 92 93 94 84 88 68 66 64 60 59 59 60 65 68 72 76 86 84 79 76 77 80
81 82 78 82 93 91 89 85 78 79 89 82 87 92 94 86 88 69 90 82 84 88 94 93 94 95 93 90 93 85 86 87 85 90 86 88 97 84 69 68 69 70 68 65 64 66 71 73 78 84 89 89 88 85
81 82 78 88 87 89 88 79 66 79 77 90 84 86 79 82 58 50 56 85 94 97 98 96 98 96 92 79 77 78 85 89 84 84 84 81 91 64 70 86 75 71 70 70 73 73 76 80 82 87 89 82 82 83
82 80 79 79 85 91 88 74 81 74 81 86 74 56 68 69 77 83 82 89 96 96 89 93 98 95 84 86 75 96 81 79 93 93 91 94 74 74 75 69 74 76 77 78 84 86 87 88 83 82 86 84 86 83
82 80 85 90 90 88 83 82 73 78 91 76 78 52 84 91 99 99 99 96 98 92 93 95 96 90 95 95 92 90 87 99 92 92 91 98 89 82 74 78 82 82 88 87 86 88 84 84 87 83 76 83 88 86
82 82 92 90 88 87 81 68 74 82 94 92 90 88 89 96 98 98 95 91 97 93 96 91 95 94 98 95 95 96 93 95 88 98 96 85 78 75 78 74 70 70 75 79 86 86 85 87 86 82 86 86 85 88
87 98 91 89 88 82 66 86 92 92 93 88 94 90 95 95 98 98 88 89 92 92 91 90 71 76 94 96 95 94 93 90 96 97 98 84 73 72 72 68 65 66 72 76 86 87 89 87 93 95 92 76 87 82
95 92 90 89 81 68 85 96 94 92 96 98 94 98 91 90 86 86 87 88 91 96 93 80 89 87 86 75 91 92 96 98 98 97 95 83 76 73 67 68 64 70 82 87 88 91 93 93 93 85 83 83 89 85
90 90 89 82 68 85 86 91 92 97 100 98 98 98 95 90 87 84 81 84 87 87 86 90 77 87 86 94 93 97 98 97 76 65 70 67 66 67 65 75 81 88 89 90 84 81 80 84 87 83 79 84 90 82
88 88 83 70 69 88 90 96 93 92 96 96 96 98 99 99 97 95 95 96 96 94 75 77 65 72 73 83 96 96 96 89 83 74 66 64 63 80 80 84 79 85 87 93 94 80 86 83 76 85 83 82 91 91
88 86 70 83 94 90 93 95 98 97 97 96 99 98 99 97 98 98 98 98 91 95 85 95 79 76 75 75 74 72 71 73 76 76 74 85 70 86 83 84 89 88 90 82 83 80 78 83 81 79 78 81 88 88
89 70 93 85 91 93 94 91 93 94 94 96 97 96 97 97 98 97 99 95 97 96 97 95 94 92 77 72 77 90 75 77 77 79 67 74 82 81 76 80 92 89 92 87 84 85 81 76 80 82 88 90 86 86
73 73 94 91 86 81 95 92 91 95 81 95 98 92 96 96 98 96 92 98 96 98 98 96 95 95 92 93 92 88 92 90 76 75 72 78 77 81 86 83 87 91 87 89 93 89 86 78 80 84 84 80 81 84
76 94 94 94 89 100 87 97 90 94 95 96 91 92 96 96 96 94 81 96 96 96 94 92 96 92 90 88 89 90 89 96 95 92 90 94 89 82 85 85 86 93 92 91 95 96 92 87 81 82 86 94 94 94
69 93 89 98 95 87 91 96 96 87 93 96 88 90 94 97 93 88 82 91 97 95 96 97 96 94 84 92 95 93 92 93 95 95 85 97 96 94 91 92 88 93 95 93 92 93 91 90 92 94 94 95 96 96
88 95 89 85 92 78 88 88 88 92 93 90 95 96 96 93 76 66 88 93 94 94 94 87 84 92 91 95 92 94 93 98 97 97 90 98 94 98 96 89 90 88 93 96 96 94 92 91 92 93 94 91 91 95
92 96 82 73 76 76 81 87 86 82 80 80 93 95 86 70 72 75 92 95 91 95 96 95 92 92 92 95 97 97 98 98 97 96 91 93 96 98 96 96 96 88 90 94 93 94 95 93 93 92 94 92 95 96
87 84 78 93 92 94 89 92 82 82 93 88 78 82 64 63 67 85 91 96 97 98 98 99 98 97 97 97 98 99 98 99 95 93 96 93 95 98 98 93 91 84 86 94 93 95 95 95 95 94 95 95 95 96
96 90 90 95 93 92 96 87 88 94 79 90 81 88 83 92 95 95 94 96 99 95 94 96 98 99 98 97 98 98 99 98 99 99 100 97 97 92 96 92 93 93 94 96 87 88 93 93 95 96 97 98 98 98
96 96 91 94 91 94 98 98 98 96 85 84 81 94 94 96 97 98 97 98 94 92 96 98 99 96 97 98 96 95 98 99 98 98 100 100 97 92 92 94 94 94 95 95 96 95 89 91 93 97 97 97 98 98
95 94 92 92 97 98 98 95 93 75 93 97 96 93 95 95 94 98 97 98 99 98 97 99 99 100 99 99 100 100 96 97 100 100 99 97 96 96 95 94 95 96 96 100 99 99 99 99 100 100 97 97 97 98
92 95 90 93 98 98 97 97 98 97 97 95 94 96 93 90 72 92 97 98 99 98 97 100 100 96 97 98 99 99 88 99 100 98 98 98 96 95 96 96 99 99 99 99 100 100 100 100 100 98 98 98 98 99
92 94 94 94 96 97 97 92 94 92 93 96 96 99 99 91 58 81 96 98 95 95 96 97 98 99 98 98 99 100 90 99 100 86 87 79 82 81 92 99 98 98 98 98 98 99 100 100 100 100 100 100 100 100

GFSWCAN_sfc_rhum_072.txt.gz
RH
72 72 71 71 72 72 72 75 78 90 93 91 90 88 84 79 69 73 83 83 79 96 91 83 83 76 73 87 91 82 81 83 93 90 88 90 87 78 84 81 83 84 90 92 90 95 94 65 74 72 71 78 77 80
72 73 72 71 73 72 71 74 81 90 91 89 88 86 82 79 70 70 80 69 69 88 89 74 76 79 78 80 86 91 85 91 92 94 94 91 85 88 84 89 79 84 78 84 80 82 69 81 77 82 72 80 86 86
74 74 71 72 75 73 72 74 82 90 91 90 87 84 76 73 64 70 79 79 84 90 82 82 82 67 66 75 74 89 92 83 88 91 94 94 85 92 90 90 84 84 81 86 81 79 88 88 85 82 84 86 86 86
76 75 72 72 75 72 71 76 81 91 89 86 84 81 76 67 68 66 79 93 79 82 93 92 66 78 68 72 69 75 79 80 86 94 94 93 89 87 92 86 87 82 80 82 80 88 89 90 89 87 86 86 85 83
78 76 74 73 75 73 71 75 82 89 88 86 84 75 74 72 72 79 86 87 83 76 93 94 79 71 72 70 71 72 72 80 92 93 97 95 94 88 89 83 88 82 80 82 83 77 79 85 87 85 86 87 86 90
78 77 76 74 75 73 71 73 80 91 88 89 85 76 74 74 68 66 68 74 80 80 93 98 85 82 77 75 77 80 83 89 92 89 94 92 82 92 90 86 70 73 72 72 84 84 83 85 85 85 86 85 86 88
80 79 77 76 74 72 72 86 91 88 88 88 78 78 77 76 89 84 72 76 74 78 93 99 97 87 86 84 88 87 88 94 89 92 87 88 86 93 93 84 68 73 84 85 81 82 86 85 83 79 78 81 79 85
82 79 78 76 74 73 74 89 87 89 87 84 81 78 73 72 73 75 79 78 81 87 91 97 98 92 84 90 90 93 90 92 92 93 89 85 84 87 85 74 73 73 70 70 72 76 75 80 80 77 79 82 86 87
86 82 79 77 76 75 76 78 88 90 86 80 74 74 78 86 74 75 69 82 91 73 93 94 96 98 84 94 91 90 92 91 90 93 90 84 89 91 70 70 69 68 69 70 76 79 80 81 79 79 84 84 88 88
86 82 80 80 80 78 77 84 92 89 84 80 78 81 85 93 81 78 80 74 91 94 94 98 98 96 92 94 90 94 88 97 97 94 86 85 93 77 75 73 71 69 70 68 85 74 80 88 80 82 81 84 86 87
86 85 85 83 81 81 78 89 90 87 73 81 87 94 96 85 82 83 88 75 87 88 97 99 95 99 90 94 90 84 88 86 90 92 91 96 93 76 66 63 61 62 65 67 68 68 74 79 88 85 82 81 84 84
86 85 84 82 79 79 81 89 86 82 84 81 88 91 88 82 85 68 86 81 86 85 96 96 96 96 94 89 93 91 86 84 89 90 84 88 94 85 73 62 63 69 73 67 68 70 75 74 81 86 91 91 90 90
86 85 82 77 88 88 89 85 74 77 78 86 83 84 82 82 50 51 50 80 99 99 99 99 99 95 89 85 86 86 90 92 88 88 88 91 90 74 77 88 74 74 76 71 74 75 77 80 80 84 86 84 87 88
86 84 79 83 92 88 85 78 80 75 80 83 74 59 71 76 75 76 78 88 94 96 91 96 99 95 90 91 88 89 85 84 97 97 93 94 90 74 74 71 74 77 77 78 85 85 86 85 81 77 80 87 88 85
84 82 82 95 90 87 84 82 70 76 89 83 76 57 87 88 97 100 99 98 99 89 95 96 96 89 98 96 88 92 92 99 93 91 93 96 87 82 73 72 78 81 90 90 91 91 87 87 87 83 78 84 86 86
83 82 82 83 91 89 85 73 77 82 93 89 87 89 89 97 99 98 98 95 98 92 96 92 95 92 99 95 93 94 86 87 84 96 96 92 84 76 75 74 74 73 73 72 88 89 88 90 88 86 88 89 86 81
82 94 82 82 85 90 72 84 91 91 93 85 93 89 94 97 98 98 89 88 92 84 87 86 65 72 94 96 96 94 89 87 92 97 98 86 68 67 70 71 67 63 64 71 82 84 88 87 94 94 92 78 87 80
93 88 84 88 89 82 91 96 93 91 96 98 95 98 91 96 93 89 94 93 86 96 90 74 90 84 79 72 87 90 96 97 98 96 96 84 81 78 69 73 67 66 76 85 87 90 94 91 92 89 89 87 89 87
84 92 92 87 83 90 94 93 91 96 100 98 98 97 94 94 92 90 84 84 90 89 84 90 72 86 84 91 89 96 98 98 83 66 71 71 70 68 68 80 85 87 86 88 79 75 79 87 89 89 91 92 92 86
85 92 87 82 67 87 92 98 94 92 94 93 93 98 98 100 97 93 91 96 96 90 70 74 62 61 70 83 95 95 96 90 78 65 57 59 66 83 87 87 84 89 90 93 90 79 91 93 88 90 91 90 86 89
93 90 88 86 94 92 92 97 97 94 96 97 99 98 99 97 98 96 96 96 88 95 83 96 82 79 77 80 75 72 73 73 72 70 69 86 78 95 91 91 94 88 91 79 84 84 82 90 86 86 87 89 93 94
94 87 97 86 93 92 93 89 92 93 93 96 98 96 96 96 96 95 99 91 95 96 96 95 96 94 78 74 78 90 74 77 78 82 69 78 83 89 82 82 94 92 96 93 91 92 92 88 87 90 96 94 91 85
92 83 95 94 90 83 97 92 92 95 81 90 97 91 97 97 96 96 92 95 96 98 98 97 96 96 92 95 90 88 93 89 79 80 79 84 85 94 96 95 96 99 96 94 97 95 93 79 76 76 76 79 85 87
86 96 96 94 90 99 90 97 89 93 96 96 91 95 97 93 96 92 76 94 93 95 96 94 95 92 89 86 89 90 92 97 96 96 92 95 97 94 96 94 94 96 98 94 90 91 90 83 80 80 83 91 92 94
91 97 92 97 97 90 94 98 97 89 94 96 88 95 94 96 89 81 75 90 97 95 97 97 96 92 80 92 95 95 94 96 97 97 95 98 99 97 97 95 93 93 92 93 94 94 92 89 90 92 91 93 94 94
95 96 87 82 94 77 87 84 87 91 92 94 94 96 98 91 73 63 84 89 94 94 94 82 77 89 91 94 93 95 95 98 98 98 95 98 98 100 97 92 96 88 96 98 97 94 92 91 92 93 91 91 93 94
93 94 82 74 77 78 85 88 83 85 89 88 91 92 83 66 65 74 91 96 92 95 92 87 88 86 89 95 97 98 99 100 95 94 93 97 98 99 98 98 98 91 90 95 94 95 95 94 93 91 93 91 92 95
81 80 84 90 93 93 88 94 92 92 92 82 74 74 59 60 67 86 90 96 97 95 96 98 97 96 97 97 98 99 99 99 96 95 96 95 97 98 99 97 96 88 91 97 94 94 95 95 94 94 95 96 95 95
95 87 86 93 91 93 97 94 94 88 75 84 78 82 80 92 95 96 97 97 98 88 92 95 98 99 98 98 99 98 99 97 92 96 98 98 97 93 97 93 95 95 98 98 92 88 92 93 95 96 97 97 96 97
95 96 89 93 92 95 98 94 95 92 82 83 79 94 94 97 98 99 98 96 92 91 94 97 98 96 96 96 97 95 99 99 98 96 100 100 97 94 93 95 95 95 98 98 96 96 92 93 94 97 96 96 97 98
97 93 92 92 98 96 95 91 90 74 89 94 94 92 96 95 94 98 97 98 98 98 96 100 100 100 98 98 98 99 94 97 100 100 100 98 97 97 96 95 95 96 98 100 99 100 100 100 100 100 99 99 99 100
93 96 90 94 97 95 92 95 96 94 94 90 92 96 93 86 75 93 97 98 99 98 96 99 98 96 98 98 99 99 84 99 100 100 99 99 97 96 96 97 98 98 99 98 98 99 100 100 100 100 99 100 100 100
95 87 93 93 94 94 97 90 89 90 92 94 95 99 98 88 61 80 97 99 96 93 96 96 99 98 98 98 98 100 91 99 100 87 85 79 75 78 95 99 98 98 98 98 99 100 100 100 100 100 99 100 100 99

GFSWCAN_sfc_rhum_075.txt.gz
RH
67 66 71 72 74 71 74 73 74 83 91 91 91 91 91 88 71 79 80 81 82 98 93 89 88 80 84 89 91 84 83 82 92 89 86 91 86 84 86 82 84 86 90 92 87 89 93 72 77 70 71 84 78 82
67 69 71 73 74 73 74 73 74 84 90 90 89 87 87 78 69 70 72 73 71 88 90 78 80 85 84 82 89 91 84 90 91 94 94 93 89 89 85 88 83 84 78 85 81 83 78 89 84 86 76 80 86 86
68 71 72 74 73 73 75 73 78 91 88 88 85 83 76 78 64 69 77 81 81 86 86 86 84 70 70 79 77 88 92 86 90 91 93 93 83 91 90 89 85 85 84 87 82 83 90 90 88 86 84 86 88 88
70 72 74 74 73 72 74 73 81 88 86 84 78 80 75 70 66 66 77 91 78 82 92 92 70 80 69 74 72 78 82 86 90 93 94 92 88 89 92 86 88 82 83 84 83 91 91 89 89 88 88 86 88 88
72 73 75 74 75 76 75 73 77 85 84 82 80 78 73 73 70 78 89 89 82 74 94 95 81 73 75 75 76 73 75 84 93 93 96 95 95 89 91 87 89 87 83 86 88 80 82 84 87 86 85 85 87 92
73 75 77 78 76 77 75 73 75 82 82 84 81 79 75 73 71 69 71 79 82 82 92 97 88 86 82 78 79 81 85 91 93 91 95 93 85 91 90 88 73 78 78 76 80 84 83 87 88 86 82 83 84 88
71 75 78 79 78 77 76 74 84 86 83 82 75 79 76 73 88 80 78 77 75 80 93 98 98 85 88 85 89 85 88 95 89 93 89 89 88 93 90 80 70 78 87 85 84 84 87 84 80 84 82 79 81 84
74 77 78 80 79 76 74 87 88 86 82 78 81 78 73 71 73 77 87 80 78 85 92 97 98 91 82 91 88 92 88 88 94 93 90 85 84 86 84 75 77 82 78 76 77 76 69 81 80 81 83 82 85 83
77 79 80 82 79 77 75 81 89 85 82 81 74 74 79 84 73 76 72 76 84 74 91 95 96 97 86 95 92 88 90 87 91 93 92 84 88 89 66 76 77 76 72 68 77 78 80 80 77 75 79 79 84 85
79 80 82 82 81 81 79 81 88 87 82 81 79 84 86 89 83 79 79 75 90 93 94 97 92 97 92 96 96 92 90 96 96 95 88 87 91 78 78 77 70 69 68 69 81 68 80 87 79 80 79 81 87 88
80 83 85 86 84 85 82 85 90 85 80 80 87 93 94 84 82 79 89 76 86 84 93 98 95 98 90 95 96 87 96 94 95 94 91 97 96 83 74 71 66 63 66 68 68 70 77 78 88 85 82 81 84 87
85 86 87 88 86 85 82 83 90 84 83 81 87 88 87 82 85 63 82 84 82 75 98 97 96 95 96 89 94 90 94 93 91 91 93 96 86 86 76 65 63 67 74 70 73 74 78 75 82 86 90 91 90 88
86 88 89 87 86 84 82 87 80 75 73 80 81 83 82 81 51 48 51 77 98 98 98 99 99 94 89 86 92 92 90 94 87 88 93 92 87 80 74 88 73 73 75 69 71 73 74 78 77 82 85 82 87 90
88 89 88 87 86 84 80 87 81 76 80 85 76 62 73 78 76 73 80 89 94 95 96 98 98 95 90 93 88 90 85 86 97 100 93 93 88 79 75 74 73 74 71 75 84 86 85 82 79 76 79 84 89 89
89 88 87 87 85 83 83 86 78 79 89 84 78 58 83 87 99 99 98 97 99 89 94 97 97 86 98 97 86 88 92 100 91 87 91 94 91 86 78 73 72 77 89 88 90 91 87 86 86 81 78 84 90 87
88 87 89 84 89 86 87 84 82 84 94 90 91 89 91 96 99 99 100 100 99 93 96 90 92 90 99 96 93 93 81 81 82 95 95 94 90 80 77 71 72 77 79 77 84 87 86 87 84 84 90 89 86 85
83 95 85 94 92 87 80 89 90 96 96 86 94 90 92 95 96 98 94 93 93 85 83 88 66 73 94 94 94 93 84 86 92 96 98 88 73 63 70 71 68 68 71 72 79 78 84 89 94 94 91 84 90 89
92 92 90 94 88 90 97 98 98 98 95 98 97 98 87 95 96 94 96 95 90 95 86 74 90 85 78 70 85 92 96 97 98 97 96 82 81 78 66 70 68 74 84 87 88 88 94 90 90 86 91 91 95 93
91 85 89 89 87 96 99 99 94 95 98 98 98 95 91 90 91 92 89 88 91 89 85 91 70 83 77 87 89 97 98 98 92 80 71 73 71 66 69 82 89 91 90 92 85 83 81 87 89 92 94 96 96 92
82 84 87 90 79 93 97 98 94 94 98 94 95 99 98 99 96 95 94 93 94 90 76 74 57 57 66 81 95 94 96 88 69 54 52 57 74 88 93 93 90 91 92 92 94 80 93 95 91 93 93 88 90 95
80 87 90 93 99 97 95 97 96 96 96 97 98 95 98 96 96 95 93 96 91 91 88 93 84 82 86 87 78 77 76 66 64 60 64 88 79 96 95 95 96 94 96 92 94 92 90 92 91 91 92 89 93 96
96 88 99 99 98 96 94 89 93 95 96 96 97 94 94 90 92 93 98 92 94 96 94 93 94 90 78 75 77 90 76 77 80 79 69 78 84 93 90 95 96 98 98 98 96 92 90 78 75 75 82 80 79 80
90 95 99 99 97 91 98 92 95 97 91 95 97 89 95 96 96 96 91 96 96 98 98 96 96 96 90 96 92 93 92 87 78 82 84 88 90 97 98 97 98 100 99 95 97 90 90 80 79 77 76 78 80 82
84 98 98 96 92 97 88 97 92 94 94 92 91 90 95 96 96 92 76 94 90 97 97 96 82 84 87 85 91 93 96 97 97 96 92 96 98 94 94 94 95 96 95 90 93 95 92 86 81 81 84 92 92 92
97 97 96 96 96 94 94 98 96 91 94 94 87 96 96 97 86 82 75 90 98 97 96 91 90 86 78 94 96 96 96 97 97 96 97 98 98 98 97 96 93 96 97 97 95 96 94 91 91 92 92 93 94 95
96 97 93 88 93 77 87 85 88 91 91 94 94 96 97 91 75 64 78 86 94 93 91 74 74 86 90 93 92 95 95 98 97 98 96 98 99 100 100 99 99 90 97 99 97 95 94 92 92 94 93 93 94 94
96 95 84 73 74 76 82 83 79 86 82 83 93 96 88 68 64 73 89 94 90 94 89 84 80 79 82 95 98 99 99 99 94 94 96 98 98 99 98 99 100 93 92 96 96 96 96 94 94 94 95 93 93 96
77 80 83 90 88 94 90 95 93 89 89 89 79 79 61 59 65 80 91 97 96 88 93 96 96 91 92 98 99 97 100 100 98 97 97 96 98 99 99 98 97 87 93 98 93 95 96 96 96 95 96 96 94 94
94 87 83 95 94 93 96 93 93 94 78 88 80 81 80 88 95 98 99 95 98 83 87 93 99 99 98 99 98 99 99 96 90 96 98 98 98 94 98 98 97 96 98 99 94 90 92 92 95 96 98 97 97 98
97 96 92 95 93 95 96 94 96 95 82 79 75 88 88 97 99 98 97 94 86 86 93 92 94 93 95 93 95 95 99 99 97 94 98 98 96 96 98 97 96 96 98 99 98 98 94 96 97 98 97 96 97 99
93 93 93 93 98 96 96 94 93 77 88 91 90 91 92 95 95 98 97 98 96 95 92 98 100 100 94 100 97 98 94 97 100 100 100 100 100 100 97 96 96 97 99 100 99 99 100 100 100 100 99 100 99 100
93 94 90 96 98 97 96 95 94 90 89 87 88 94 93 90 86 93 96 96 96 95 90 92 94 96 97 98 98 99 80 96 98 98 100 99 98 96 97 99 100 100 98 98 99 100 100 100 100 100 100 100 100 100
94 89 93 95 96 95 94 90 86 86 88 90 93 99 98 87 74 81 98 99 91 82 92 94 99 98 95 97 97 100 96 99 100 89 81 80 76 84 97 99 99 98 98 98 99 100 100 100 100 100 98 99 99 99

GFSWCAN_sfc_rhum_078.txt.gz
RH
63 62 68 74 72 72 72 73 76 85 86 88 91 90 84 73 72 75 81 85 85 98 90 89 86 80 84 82 90 85 83 80 91 87 85 90 87 87 87 84 86 85 89 91 84 83 92 85 76 75 71 85 83 84
64 64 70 74 73 72 71 74 77 89 86 86 87 86 83 70 71 66 77 76 75 90 90 81 84 76 88 86 90 91 83 88 90 93 93 94 87 90 86 87 85 85 79 84 83 78 80 90 86 86 80 83 86 85
66 66 70 75 73 72 74 75 78 88 86 84 79 78 76 66 68 69 80 89 81 87 90 88 88 72 71 81 80 87 92 87 90 91 93 91 83 88 89 89 86 85 85 86 81 83 86 89 88 87 86 87 88 89
68 69 73 74 75 76 76 76 77 88 82 80 74 77 79 72 65 67 80 90 80 83 91 90 72 82 71 77 75 80 83 88 90 93 94 92 86 90 91 86 87 83 85 85 86 84 90 87 87 86 87 86 88 89
67 70 73 72 76 77 76 76 74 74 85 73 79 74 72 69 72 81 90 92 83 74 93 93 83 77 79 76 77 76 77 85 93 93 96 94 96 90 92 90 92 88 85 88 86 78 82 80 86 85 82 82 86 91
66 71 70 74 77 78 78 77 75 75 84 79 82 78 74 72 71 69 76 81 85 81 91 94 90 86 85 78 81 83 87 88 92 92 96 94 86 92 91 92 76 79 80 78 76 85 81 88 88 86 82 83 86 87
68 68 72 74 78 79 79 77 77 80 82 80 79 78 74 71 84 75 77 80 75 80 91 98 96 85 88 85 90 87 88 93 89 93 89 89 88 93 91 84 68 79 86 87 86 85 87 86 82 86 82 81 80 83
71 69 73 76 79 80 79 79 87 84 81 75 80 74 73 71 71 76 84 80 74 83 91 97 97 92 82 88 85 93 87 86 94 94 90 85 84 86 86 76 80 85 82 77 76 76 70 81 78 80 80 80 79 78
73 72 73 78 80 80 77 81 88 86 80 80 76 71 77 80 72 78 75 74 86 73 92 95 96 96 87 93 92 88 89 82 89 92 93 84 86 87 65 73 83 83 73 74 72 77 80 77 76 74 79 78 81 80
72 73 76 79 82 82 81 81 90 87 82 79 79 81 84 86 81 76 79 76 88 92 94 96 98 98 93 96 94 92 90 94 94 91 90 90 90 76 79 78 74 73 72 68 76 62 77 82 70 76 78 81 86 87
70 74 79 82 86 86 84 81 89 86 74 82 90 93 92 82 80 78 88 76 84 84 91 96 96 99 87 93 95 89 96 97 96 92 92 96 96 88 78 79 76 70 64 70 64 67 75 76 88 84 80 80 83 87
73 79 84 86 87 87 83 82 89 85 88 83 87 89 84 81 84 64 84 84 86 72 98 97 96 94 96 90 94 91 94 94 92 93 96 98 87 85 80 71 68 66 67 71 72 68 73 73 82 84 89 89 89 88
76 82 85 86 88 86 84 82 87 77 74 77 82 83 87 83 60 60 54 78 94 96 98 99 98 95 93 88 92 92 92 94 91 92 96 92 83 82 82 84 65 73 75 70 68 71 72 77 74 80 79 79 84 88
78 83 87 89 90 88 86 84 87 79 79 88 84 73 76 80 79 74 74 85 94 96 96 96 98 95 90 94 88 93 83 82 99 100 90 93 82 82 82 74 72 73 66 70 82 85 84 81 76 71 76 81 86 90
80 86 88 90 89 87 82 85 87 86 88 90 88 71 87 83 98 99 99 98 99 90 94 96 97 86 98 97 88 87 94 100 90 80 90 92 90 89 81 78 76 75 89 89 90 90 85 86 86 78 75 80 87 87
83 87 93 87 88 88 83 92 96 97 95 91 89 84 91 95 100 99 100 99 99 92 95 88 95 93 98 95 95 87 79 76 77 94 94 93 92 84 77 70 69 74 78 80 88 88 86 87 86 85 88 88 82 84
84 95 88 87 87 86 85 96 99 99 99 96 94 91 94 95 96 97 92 94 92 84 84 89 61 63 94 94 87 92 80 83 92 96 98 90 82 68 75 72 66 68 76 82 88 88 91 88 95 94 91 85 90 90
97 90 86 87 87 86 99 100 99 98 98 98 96 97 88 89 91 90 92 90 85 88 84 72 91 90 79 66 81 90 96 98 96 98 97 83 82 72 62 69 71 78 91 93 92 94 96 94 94 92 93 93 96 95
92 95 88 84 82 96 99 99 99 97 95 97 99 96 91 86 87 86 91 88 90 84 84 91 71 80 74 84 88 97 98 98 95 91 76 74 68 68 74 88 94 94 95 94 92 91 92 94 96 96 93 92 94 93
89 88 85 81 85 99 98 98 98 94 98 96 98 98 97 95 90 90 91 90 88 90 70 69 55 55 61 76 94 91 96 80 64 51 54 64 80 91 93 95 96 96 98 97 97 85 96 94 87 86 88 77 85 89
93 92 92 94 99 99 98 98 98 94 98 96 98 95 95 92 92 94 94 93 89 88 86 90 82 85 88 89 86 77 70 53 51 45 51 85 79 97 96 97 98 94 97 94 97 92 88 89 82 81 83 84 85 83
96 93 99 98 98 98 97 92 94 94 95 98 96 94 94 91 91 93 97 90 89 91 93 91 95 90 75 76 77 88 74 76 79 82 78 77 86 96 97 99 99 100 100 100 97 93 88 82 77 78 80 78 80 78
92 92 99 99 97 97 97 93 94 97 94 96 97 95 96 95 94 95 88 91 91 97 97 96 94 96 87 96 90 89 88 83 78 84 86 90 92 98 98 96 98 100 100 98 98 94 95 82 81 77 78 80 81 83
84 98 98 97 96 96 95 97 95 95 96 96 94 91 93 94 93 91 76 91 92 98 97 94 80 79 85 85 92 95 97 96 97 97 93 94 99 92 93 95 96 97 98 95 96 96 95 87 84 83 86 94 93 93
93 98 93 97 97 96 97 97 98 95 96 95 91 92 93 96 88 84 74 89 100 97 92 90 88 77 74 95 97 97 97 96 95 92 97 98 98 98 97 96 94 92 98 100 98 97 95 94 94 95 94 94 94 95
95 97 93 93 96 87 93 93 90 90 89 93 91 94 96 93 79 63 72 83 93 90 83 71 67 80 86 88 86 95 96 98 95 95 97 98 97 99 100 100 99 93 97 97 99 98 96 94 95 95 94 94 94 94
95 96 94 78 77 79 86 84 80 84 87 87 92 95 94 78 65 71 87 89 89 94 78 74 73 68 75 93 98 98 97 98 94 94 96 98 98 98 97 99 100 95 93 97 98 98 96 96 95 94 94 93 94 96
94 88 90 91 94 96 85 86 84 79 91 87 74 84 77 62 62 85 91 92 95 83 88 93 95 85 87 95 96 96 100 99 96 97 96 96 98 99 100 98 97 89 93 98 94 97 97 97 96 96 96 96 95 95
91 88 87 98 98 96 96 89 91 97 84 78 77 79 80 93 97 96 94 94 83 76 82 88 98 94 94 96 97 98 96 90 86 91 94 97 98 94 99 98 98 99 100 100 94 91 92 93 97 98 100 99 97 98
95 97 93 96 92 94 97 96 97 95 81 80 77 92 91 94 95 95 94 92 77 74 80 82 92 87 90 89 96 98 99 98 97 91 94 97 95 96 99 100 99 100 100 100 99 98 94 98 98 98 98 97 98 100
96 96 95 95 99 99 97 95 94 82 92 96 94 95 94 95 95 95 97 96 92 88 86 91 98 97 90 93 94 93 94 98 100 99 99 99 99 100 100 99 100 100 100 100 99 99 99 100 100 100 99 100 100 100
96 94 94 97 99 97 97 97 97 94 94 93 91 94 93 90 91 93 95 95 93 90 81 84 87 91 95 98 94 98 75 92 96 97 100 99 99 97 98 100 100 100 99 99 99 100 100 100 100 100 100 100 99 99
96 95 96 95 98 98 98 95 93 88 89 87 85 85 85 86 79 80 95 98 89 82 86 89 98 93 92 92 94 99 93 98 99 90 92 87 78 83 100 100 100 99 98 98 100 100 100 100 100 100 100 100 99 98

GFSWCAN_sfc_rhum_081.txt.gz
RH
62 63 65 69 74 74 73 74 77 87 88 90 87 82 77 72 66 76 85 88 86 97 92 84 85 90 87 89 88 85 83 81 89 85 83 89 87 88 88 84 87 83 88 90 86 91 88 81 76 72 68 82 76 78
61 64 66 68 74 74 75 75 78 90 85 86 86 83 74 74 66 68 78 78 77 90 90 76 76 85 88 86 91 91 81 87 90 92 93 94 84 91 86 85 86 86 78 82 78 75 74 85 84 83 78 78 81 80
62 66 64 68 73 74 76 76 76 89 87 81 77 78 73 68 65 67 84 91 83 89 89 82 80 72 74 82 82 86 92 87 90 90 93 91 81 85 88 89 87 84 85 86 80 81 83 86 88 85 84 85 86 86
64 67 65 69 72 76 77 77 75 75 86 79 78 78 73 69 67 66 78 89 81 85 92 87 72 82 72 80 79 83 85 89 90 93 93 91 83 91 91 84 87 81 86 86 86 82 87 86 85 84 86 83 87 87
64 67 66 66 72 76 78 78 77 74 79 78 81 72 70 72 72 82 92 94 81 74 92 91 81 80 82 78 78 80 82 86 92 93 96 93 96 91 93 92 94 90 85 87 83 78 80 79 86 84 80 75 81 88
65 68 64 67 70 74 79 79 78 76 78 81 83 76 73 70 65 71 76 83 84 82 90 93 87 86 84 78 81 83 86 90 93 92 95 95 87 92 92 92 76 82 81 77 76 85 79 89 88 85 76 77 81 86
66 69 65 67 71 78 81 80 80 79 79 82 83 75 70 69 89 78 77 76 76 78 90 95 95 82 87 84 89 86 88 93 89 93 88 91 92 94 93 90 68 80 82 86 86 85 86 88 86 86 78 79 76 79
68 70 66 68 73 79 81 80 85 85 82 82 76 73 73 72 73 78 87 75 74 84 91 96 96 91 84 84 82 93 86 86 92 94 90 84 85 89 90 78 79 84 83 76 75 76 65 82 77 78 74 74 72 70
70 70 68 69 75 80 81 80 87 86 81 82 76 69 78 80 77 80 76 73 86 73 91 96 93 93 87 94 93 87 88 80 91 90 90 83 84 88 69 70 80 87 76 69 72 76 80 76 69 69 73 71 76 73
71 71 69 70 78 81 83 79 89 85 83 75 76 81 87 88 83 74 77 78 86 95 95 95 95 98 91 95 95 92 89 95 94 91 90 93 91 73 77 76 75 83 70 71 79 64 72 80 71 68 68 74 80 82
71 68 68 75 81 84 85 80 90 84 74 82 85 93 91 82 82 79 87 77 83 76 97 98 96 96 89 93 94 89 95 97 97 92 93 96 95 86 82 81 82 81 76 67 56 58 72 69 84 77 75 75 79 83
72 72 70 78 82 84 85 82 88 83 88 83 85 86 83 82 87 68 86 82 85 67 98 97 94 91 96 91 95 93 93 94 92 95 96 98 86 83 84 78 77 70 65 63 71 67 70 68 78 83 87 87 86 86
73 74 75 79 82 84 85 84 86 78 75 78 81 80 84 84 64 74 66 77 94 94 98 99 98 94 95 88 93 94 93 94 93 96 96 90 82 81 84 84 69 69 68 71 69 70 72 76 75 80 81 76 79 85
74 74 76 81 84 87 88 86 85 84 87 94 92 94 84 86 85 82 79 90 90 96 97 97 98 94 89 93 87 91 84 81 99 100 86 92 82 80 87 75 69 74 76 70 85 89 86 84 82 76 75 78 82 83
72 74 81 86 88 90 90 87 84 93 96 99 96 86 87 86 98 99 98 98 95 88 89 93 96 85 98 96 88 85 94 100 89 75 87 92 90 89 85 78 76 76 87 90 91 92 90 89 88 82 76 81 85 84
69 76 88 85 88 91 87 90 94 96 99 98 97 84 83 95 96 98 100 99 97 84 90 85 93 93 94 94 98 94 84 75 74 94 94 93 95 86 83 74 70 74 77 82 91 92 93 92 91 90 91 89 87 86
74 94 84 88 90 89 86 96 99 100 99 98 96 88 94 94 94 97 92 89 88 86 86 88 74 66 92 95 90 90 81 81 92 96 98 90 87 76 76 68 67 71 80 86 92 94 95 94 96 97 97 92 95 92
91 91 88 89 90 90 99 100 100 99 98 99 96 96 92 82 91 89 86 91 86 87 85 75 89 94 86 72 76 86 93 97 98 98 94 81 82 71 64 73 74 81 94 96 96 97 98 98 98 96 95 91 93 89
92 88 87 87 89 96 99 99 99 99 96 98 98 99 94 87 87 88 88 84 86 83 87 90 74 82 70 80 86 96 97 98 97 93 81 71 70 74 80 89 95 96 97 98 95 97 97 95 95 96 89 89 89 83
85 87 90 88 84 99 98 98 99 97 99 95 99 99 98 96 91 91 92 86 82 90 80 79 56 50 55 70 93 92 94 87 67 64 64 70 85 94 93 96 98 97 98 98 98 84 97 88 82 83 86 80 85 88
92 93 92 95 99 100 97 98 99 98 98 97 98 97 98 97 96 96 95 89 91 86 82 76 64 74 86 90 88 75 67 50 42 40 49 87 84 96 97 99 98 95 96 96 97 93 90 94 88 84 84 81 82 82
98 90 100 97 98 98 98 96 96 96 96 98 98 97 98 96 96 94 94 91 89 82 80 84 87 86 81 78 72 77 65 74 84 81 77 79 87 97 98 100 98 100 100 100 97 95 92 85 80 80 83 82 84 82
90 93 99 99 97 97 97 98 96 97 97 97 98 97 97 97 96 94 91 90 84 90 92 91 91 94 85 93 86 82 84 75 79 90 90 93 94 98 98 97 98 100 100 99 98 98 97 83 85 81 81 83 84 86
90 99 98 97 97 96 96 97 94 96 97 97 97 97 96 96 95 96 86 88 87 92 91 92 80 80 81 85 86 87 91 93 94 96 94 93 97 92 93 95 96 98 98 95 98 98 97 88 86 86 88 96 95 94
98 98 97 97 97 96 98 98 98 96 96 97 97 97 96 96 92 92 77 84 96 94 87 82 74 64 59 80 91 92 94 93 84 91 98 97 97 98 98 96 93 93 97 99 100 99 98 97 97 98 96 96 96 94
97 97 95 93 97 90 95 98 97 95 96 97 92 97 97 94 89 72 72 79 92 83 81 74 61 74 73 80 79 91 95 97 91 92 98 96 96 94 99 98 98 96 98 99 99 100 98 97 98 98 97 98 95 97
96 96 96 86 83 82 87 84 81 88 89 88 93 97 92 77 72 68 86 91 90 83 68 65 63 57 61 84 90 94 97 96 94 93 93 96 97 96 95 97 98 94 98 98 99 98 98 98 98 97 97 97 98 98
95 91 97 98 96 94 86 89 81 79 81 84 80 86 77 69 63 84 93 93 94 79 83 89 88 79 77 86 93 93 98 98 97 96 93 95 97 99 99 98 98 87 93 99 95 93 99 99 97 98 99 100 98 98
94 86 81 98 98 95 92 82 78 86 79 76 73 83 79 90 95 96 94 95 87 75 78 86 97 92 94 93 96 97 92 90 86 90 90 95 97 95 99 100 99 100 100 100 92 90 94 96 99 99 100 98 98 99
98 95 90 95 87 86 92 94 96 98 84 84 78 90 89 92 95 95 95 97 86 77 78 81 87 81 87 86 96 99 98 98 96 87 89 92 92 96 99 100 100 100 100 100 99 99 88 100 96 99 99 98 99 100
93 93 93 92 96 98 98 98 96 80 93 97 94 94 94 96 96 96 94 94 93 88 85 88 91 83 83 87 87 92 95 97 97 96 96 94 96 98 99 99 100 100 100 100 100 99 100 100 100 100 100 100 100 100
95 94 92 97 100 99 97 97 97 96 97 95 94 96 96 96 95 96 94 94 85 79 71 76 76 82 92 92 92 97 68 86 94 96 96 99 99 98 99 100 100 100 100 99 100 100 100 100 100 100 100 100 100 100
96 96 97 96 98 100 98 95 96 93 94 92 89 90 91 89 83 89 94 94 86 80 79 82 89 87 89 88 90 94 87 89 92 90 89 89 94 97 100 100 100 99 98 98 100 100 100 100 100 100 100 100 100 99

GFSWCAN_sfc_rhum_084.txt.gz
RH
65 62 62 65 69 70 75 75 80 85 86 89 88 84 80 73 64 61 66 69 62 70 75 75 74 70 68 65 57 67 63 61 66 61 58 59 55 58 59 57 59 58 57 54 58 63 54 53 56 52 48 54 52 53
64 61 62 64 67 71 75 75 79 88 84 83 84 85 80 76 66 60 59 61 59 66 72 64 64 64 69 70 69 69 62 67 63 66 63 57 53 59 59 47 61 58 51 49 51 45 51 55 57 56 55 52 57 56
64 61 64 66 66 70 76 76 76 79 85 82 77 79 80 70 66 60 63 66 62 65 65 64 66 61 61 64 64 67 68 70 71 67 61 62 61 52 51 52 57 58 58 55 57 55 54 55 60 59 58 58 61 62
66 62 64 65 65 70 75 78 77 75 79 78 78 80 78 73 69 62 65 73 61 62 70 66 58 62 59 63 68 66 69 70 69 72 66 60 58 63 55 58 57 52 63 60 57 55 58 57 57 56 62 63 63 62
68 63 64 64 65 70 73 79 78 77 75 80 79 74 73 73 70 73 74 74 68 64 71 68 64 60 63 61 66 67 67 66 65 70 76 64 66 66 62 65 63 58 54 54 45 53 52 54 56 60 63 57 55 56
68 64 67 64 66 68 75 80 80 78 77 84 83 75 72 70 66 60 66 70 72 69 82 81 67 68 66 62 65 67 67 65 67 63 66 69 71 70 72 60 48 55 58 54 50 56 56 64 66 64 60 56 56 58
68 66 68 66 65 71 78 82 80 80 79 82 83 76 71 71 75 63 67 72 72 68 74 87 83 67 68 65 69 65 67 70 64 70 66 64 72 76 71 60 46 52 55 58 57 62 67 70 62 66 61 56 58 53
69 67 70 67 65 72 79 83 82 86 84 83 77 73 72 73 72 66 71 74 69 71 82 90 86 78 68 65 66 71 62 65 74 70 67 62 66 68 72 53 52 57 62 62 64 59 48 60 60 58 52 50 46 42
69 69 70 67 66 73 80 82 86 87 86 79 73 65 68 68 62 70 78 74 74 67 85 84 87 84 73 78 75 70 66 63 73 70 66 66 62 77 52 51 55 65 60 54 54 53 57 52 49 46 45 42 45 41
70 71 71 68 69 75 81 82 87 86 82 71 70 67 75 74 85 68 71 73 78 77 79 82 81 84 75 77 78 76 71 70 86 70 75 75 65 50 50 48 50 60 56 57 78 63 60 64 56 41 42 41 47 50
71 73 72 70 73 80 83 83 89 80 70 78 79 81 77 78 71 67 79 77 62 69 77 79 83 83 74 80 69 73 82 85 88 81 80 76 73 58 60 59 60 60 53 50 41 37 42 45 61 54 49 53 58 62
72 74 73 73 76 82 84 83 87 82 85 78 80 78 75 71 77 74 80 65 72 62 80 81 79 76 81 76 76 81 83 88 86 78 88 82 68 69 71 65 64 59 55 46 43 46 51 50 55 59 68 77 75 73
73 75 75 73 76 81 84 85 87 76 73 74 74 84 77 77 77 74 76 74 78 78 88 90 90 79 82 74 81 80 88 86 80 91 81 69 62 65 68 72 66 52 45 49 52 51 54 57 58 60 60 53 52 53
77 76 76 76 80 82 87 88 84 83 85 92 94 92 85 86 77 79 72 77 77 86 88 82 88 78 74 79 73 84 72 74 97 94 75 71 67 68 64 56 57 61 58 57 74 76 71 70 65 60 58 58 60 60
78 79 79 80 85 87 88 89 84 92 96 99 95 97 92 76 85 86 92 92 87 82 81 80 83 70 84 85 73 81 90 97 82 72 71 72 74 78 70 59 57 62 69 72 73 78 86 84 72 66 67 72 72 71
78 78 81 78 83 87 88 87 92 94 100 100 99 92 73 83 88 93 96 91 87 82 78 76 80 85 82 83 93 92 83 75 72 84 76 70 83 76 70 64 56 54 53 60 73 77 83 85 84 83 80 74 68 70
78 86 80 82 86 88 88 96 99 100 100 100 98 82 78 85 82 77 70 71 76 75 83 80 78 72 83 88 85 78 82 76 79 82 80 79 77 67 58 56 55 55 58 65 76 78 85 88 89 85 83 76 79 77
87 79 84 85 90 92 98 100 100 100 100 98 95 88 76 67 77 78 78 84 81 80 75 77 79 85 84 78 72 79 81 88 86 84 77 67 62 57 54 56 60 66 79 86 85 90 91 88 77 70 77 76 76 71
85 85 85 90 88 96 100 100 100 99 96 94 91 90 83 78 77 78 79 82 78 73 77 83 80 85 69 71 78 86 87 88 79 73 63 57 57 59 67 81 86 87 91 87 78 73 71 71 70 69 70 71 70 66
81 85 88 86 85 99 100 99 99 97 99 92 94 97 88 87 85 85 88 85 84 90 85 82 60 47 45 50 70 75 80 73 63 58 58 62 66 82 83 82 76 83 82 85 78 72 67 63 62 68 70 70 72 73
88 93 90 93 100 100 96 98 99 96 94 95 95 93 94 95 97 99 97 88 93 93 85 61 51 48 72 73 72 73 73 58 50 45 47 66 70 76 84 84 84 74 73 73 68 67 70 69 70 71 70 67 70 68
97 90 100 97 98 98 96 92 93 94 94 96 99 94 98 99 98 97 94 97 95 83 68 65 73 79 77 76 67 69 59 54 62 56 60 69 80 85 85 80 82 89 87 87 74 72 71 68 69 68 70 69 72 68
90 91 100 99 97 97 96 94 96 98 97 98 98 99 99 98 97 94 96 94 90 77 76 82 89 88 80 81 78 76 78 67 65 68 65 66 73 81 84 82 84 91 91 84 78 77 80 75 72 71 67 68 70 70
90 100 98 98 94 96 94 97 93 95 94 95 97 99 99 98 95 96 95 91 74 81 86 91 80 76 74 76 67 68 73 75 76 78 75 76 83 75 74 76 78 82 78 77 79 79 77 72 78 72 74 82 81 83
98 98 97 97 97 95 98 97 97 96 96 96 99 100 98 96 97 98 93 84 86 86 85 84 73 60 55 55 76 77 84 72 71 73 79 75 75 83 86 83 75 77 80 88 83 83 83 82 81 82 82 85 87 87
98 96 95 89 96 90 94 99 97 96 96 100 97 95 95 94 97 94 82 77 78 81 86 82 70 64 60 52 62 80 78 80 72 72 82 79 75 79 89 87 86 84 82 85 90 90 87 84 86 92 85 89 90 91
97 97 95 78 81 81 84 83 80 86 93 89 97 99 96 86 82 73 73 81 80 85 72 70 61 56 53 71 75 83 81 80 79 77 78 81 79 73 82 87 89 78 81 87 89 89 90 88 88 88 90 87 87 88
93 93 95 97 92 89 90 90 88 82 79 81 78 94 84 79 77 77 84 89 91 86 76 70 62 63 66 72 84 84 90 90 91 89 87 86 88 89 90 88 89 86 88 91 90 90 89 91 92 92 93 91 89 86
95 92 88 99 99 95 83 80 78 77 70 75 74 74 78 82 91 93 91 94 92 88 84 84 92 89 90 89 88 89 88 84 83 87 84 82 93 93 94 90 92 93 93 93 90 85 93 93 93 92 92 88 88 91
95 90 90 96 86 84 85 90 90 93 82 79 75 87 88 93 96 95 95 95 92 88 82 77 86 78 84 84 93 95 89 84 81 76 77 81 82 87 92 93 93 94 95 94 91 92 86 90 89 91 90 90 92 91
90 93 94 94 88 94 93 93 91 77 89 95 92 91 88 98 98 96 94 92 93 92 89 87 87 85 81 81 81 86 88 87 89 85 87 86 86 90 92 94 94 96 95 92 92 91 92 92 92 93 93 96 98 97
92 90 91 95 99 98 97 95 94 91 98 98 97 98 98 99 94 94 92 94 91 89 80 79 81 82 75 75 81 83 68 82 87 90 89 90 92 92 93 95 98 96 94 93 93 92 94 95 94 95 94 98 98 98
98 97 98 97 98 100 96 94 93 93 96 97 97 97 96 90 80 89 90 91 89 79 78 76 83 84 84 79 83 85 81 83 86 86 85 87 92 99 98 96 96 95 94 93 93 94 96 98 98 100 100 100 100 98

GFSWCAN_sfc_rhum_087.txt.gz
RH
77 67 61 62 66 70 74 75 78 86 84 83 84 84 83 80 70 58 60 56 62 56 64 64 62 58 58 55 48 57 56 55 55 56 49 46 43 43 47 43 42 45 45 42 45 53 51 43 48 49 45 45 45 47
78 67 62 63 66 68 73 76 76 81 85 83 81 82 77 78 72 65 54 50 50 59 65 56 56 55 60 61 59 57 55 53 52 56 48 43 43 44 43 35 47 46 42 44 43 41 42 44 47 48 46 45 48 48
80 69 62 64 66 66 72 77 77 77 78 82 79 79 77 71 69 62 55 58 54 58 60 58 58 53 52 54 55 59 54 60 58 60 53 51 56 44 40 38 44 46 46 48 49 39 44 42 45 48 47 48 51 52
80 71 65 64 65 65 70 75 79 78 76 80 79 75 75 74 69 60 59 62 55 54 69 60 49 55 50 52 59 57 60 60 59 64 61 53 52 50 42 48 46 42 52 47 47 40 46 46 45 46 51 53 56 54
81 73 67 65 65 65 68 74 80 79 78 78 81 73 72 68 67 62 62 63 59 62 70 58 56 52 51 53 59 59 62 60 57 65 75 59 54 56 51 56 52 45 42 50 35 39 41 47 47 47 53 55 50 48
82 74 69 66 66 65 68 76 81 80 80 79 83 77 69 69 63 53 60 63 60 62 79 79 59 59 56 54 57 60 61 57 60 57 58 58 62 68 67 50 34 36 41 39 41 44 47 53 54 54 55 53 49 48
82 75 70 68 68 66 70 78 82 81 80 81 83 79 70 70 61 55 58 68 68 60 71 93 81 61 60 58 58 56 57 60 61 64 62 56 64 74 69 56 32 37 43 48 47 51 58 59 53 56 54 52 52 47
84 76 70 69 70 66 71 80 83 85 86 81 80 73 73 73 74 61 63 67 64 60 78 99 91 75 62 60 61 59 57 58 67 63 58 59 62 64 72 48 43 42 46 51 51 52 44 50 54 58 51 44 42 37
84 77 71 71 70 67 73 82 84 87 87 81 75 66 61 58 56 63 78 74 64 60 86 84 94 88 66 67 65 61 60 65 65 67 59 61 57 80 53 42 46 49 56 52 57 48 46 45 43 42 41 37 37 34
84 78 72 72 71 70 77 82 86 88 83 74 63 59 68 65 82 72 68 69 74 74 72 81 70 79 72 68 68 70 61 65 90 63 65 71 67 49 43 42 41 48 52 53 77 69 62 69 56 39 40 33 35 40
83 78 76 74 74 77 80 84 87 82 72 70 67 71 66 73 64 57 82 82 62 80 70 71 73 69 66 78 62 61 80 79 87 78 74 75 68 48 42 42 44 49 50 48 43 40 43 47 64 48 45 47 52 59
82 79 78 77 77 76 82 84 88 75 75 72 72 68 65 65 78 87 88 66 70 62 64 68 67 66 69 67 70 71 86 84 84 72 82 82 68 68 60 53 54 51 47 43 37 48 48 44 48 54 66 79 78 76
82 79 79 77 74 77 83 86 85 75 72 68 66 94 75 82 82 73 74 75 76 70 81 82 86 70 73 71 74 80 91 85 71 87 80 71 63 60 66 71 66 56 48 43 48 48 50 50 51 53 54 49 48 50
81 80 80 79 78 82 86 89 84 78 83 86 100 86 87 88 77 79 66 79 70 75 80 78 82 74 66 80 67 89 64 68 89 92 77 76 64 60 58 60 59 58 52 64 80 78 70 66 60 53 55 58 61 62
82 81 82 81 80 85 89 89 82 92 94 100 100 96 95 73 82 83 89 79 78 69 78 78 81 65 81 82 66 77 84 92 75 77 85 77 75 69 61 53 54 63 72 77 73 81 89 85 70 61 63 66 62 58
84 82 83 80 84 87 88 86 90 93 100 100 100 99 77 84 92 86 92 88 81 73 74 74 84 84 83 78 82 87 78 77 82 89 78 65 79 70 61 55 51 50 51 61 73 77 83 84 79 74 71 65 64 65
84 83 80 82 86 87 86 96 99 100 100 100 99 84 78 85 86 71 56 53 62 74 85 83 84 77 80 83 80 73 86 89 88 78 71 69 74 64 57 54 51 49 48 56 68 73 81 85 86 79 76 72 76 72
86 78 84 86 85 91 98 100 100 100 100 97 96 88 73 56 61 56 56 65 73 78 77 85 74 80 78 77 77 89 89 87 82 76 72 67 57 52 53 52 51 58 76 86 81 88 92 87 72 60 70 70 72 69
80 84 84 85 84 95 100 100 100 99 96 94 88 78 72 66 58 58 59 65 67 63 78 84 80 86 73 74 82 94 90 82 71 65 59 53 49 49 59 74 82 84 89 84 70 63 60 63 63 62 63 64 64 61
83 87 87 84 82 100 100 100 100 100 97 88 89 90 81 78 69 69 71 76 76 87 91 90 66 56 51 59 77 76 82 74 63 60 55 53 54 78 80 77 69 80 76 82 78 68 61 56 55 60 63 66 67 67
82 87 88 86 100 100 97 98 97 96 93 90 89 89 88 91 93 95 93 84 93 96 94 75 52 41 53 60 62 63 70 64 56 47 46 61 57 67 78 79 79 67 65 64 59 60 63 59 61 64 64 63 63 65
90 92 100 98 99 99 100 89 91 89 91 91 96 90 94 98 96 94 93 98 94 77 75 61 58 52 59 70 73 78 70 59 47 49 51 60 69 79 78 76 78 80 77 78 64 60 60 58 61 63 65 63 66 63
92 94 100 100 98 97 97 89 94 95 97 98 96 96 95 96 91 91 96 90 84 66 63 63 77 87 75 80 77 76 71 59 55 57 59 56 63 75 78 76 76 88 88 79 71 71 74 67 64 66 62 62 64 66
91 100 100 98 97 96 94 96 92 93 93 93 95 95 93 93 93 96 96 82 68 73 75 81 75 73 73 77 70 70 71 59 65 68 63 67 79 67 66 65 67 72 70 71 75 73 70 63 70 65 67 77 77 78
99 99 100 98 96 94 95 95 93 92 94 91 94 93 96 93 96 94 90 84 84 73 72 74 71 61 59 61 62 60 77 61 60 64 73 72 68 72 77 72 68 69 74 87 80 78 79 76 76 77 78 80 86 87
98 98 97 91 94 90 90 94 95 95 90 97 94 90 91 93 98 96 83 83 64 68 72 75 69 67 60 55 58 62 68 69 60 63 79 75 70 79 88 86 82 80 76 76 82 83 81 79 80 89 82 83 84 89
97 98 93 67 72 76 80 74 72 85 96 95 94 94 87 94 91 75 65 67 70 83 72 68 64 63 59 57 52 62 67 72 74 74 74 76 75 72 82 84 85 74 78 82 82 82 82 82 83 84 86 84 84 85
89 86 93 91 84 80 91 87 92 91 84 76 80 95 93 84 73 76 80 82 85 85 90 81 73 71 69 63 73 77 87 90 91 86 83 84 83 85 87 85 85 80 86 86 84 85 86 86 87 88 89 90 89 84
95 86 83 98 93 88 87 85 83 72 63 76 80 73 79 73 84 79 79 87 90 89 89 88 90 86 86 83 80 79 86 80 80 84 80 80 90 92 89 90 93 94 91 90 84 83 92 93 92 90 92 88 87 91
98 83 87 92 91 87 82 76 83 84 72 71 66 72 70 77 85 86 87 93 92 91 88 85 89 85 87 83 89 89 82 76 80 67 71 75 78 84 89 92 93 93 92 91 90 92 83 88 88 93 92 93 91 93
88 88 91 84 88 86 87 87 82 71 83 89 88 86 77 89 86 87 87 90 91 94 92 92 88 84 80 79 81 84 86 88 86 83 83 83 86 86 86 89 91 93 93 92 92 92 94 93 93 95 94 96 98 95
88 88 86 91 91 94 93 93 93 91 92 92 91 92 91 90 88 89 90 94 95 94 86 85 81 84 75 72 73 79 56 81 86 85 86 84 84 85 88 92 94 93 93 93 93 93 94 95 95 95 95 97 98 98
95 92 94 93 98 99 95 92 92 93 92 92 90 91 91 86 83 85 90 86 87 86 85 82 78 78 79 78 82 86 79 77 79 78 77 79 85 90 92 92 93 92 93 93 94 94 96 96 97 97 98 99 99 99

GFSWCAN_sfc_rhum_090.txt.gz
RH
89 83 69 63 63 67 72 76 77 80 84 83 82 84 83 81 74 72 76 67 82 79 78 67 64 74 72 69 72 73 72 72 76 80 70 66 66 64 69 59 66 62 69 71 65 76 73 56 63 71 62 61 61 63
90 86 72 65 63 66 68 75 77 78 79 83 80 81 80 78 74 67 74 61 60 80 81 61 61 61 67 72 85 72 70 66 77 84 73 64 64 62 57 58 67 67 60 73 60 65 55 61 66 63 59 61 66 74
91 88 75 67 64 66 66 74 77 78 79 79 80 78 77 76 70 68 74 76 80 80 80 73 69 60 55 60 63 91 76 74 73 80 86 80 76 66 68 61 68 63 62 70 61 60 60 56 60 62 64 66 65 66
93 90 78 69 65 66 66 71 75 79 78 76 80 77 74 70 68 68 76 77 78 74 95 83 53 63 58 59 66 66 73 70 73 86 90 86 79 65 67 67 68 62 65 64 62 54 68 58 64 60 62 65 66 65
93 92 81 72 67 67 67 69 76 80 79 79 81 81 70 70 70 74 79 75 71 83 91 81 66 63 58 60 67 66 71 78 85 91 98 92 82 76 73 78 82 64 67 70 66 56 58 70 64 59 67 69 65 64
93 92 83 74 68 67 67 70 76 81 81 81 83 84 77 73 72 81 88 79 72 77 96 96 74 70 68 65 69 73 75 75 84 90 89 84 77 87 94 86 51 47 49 54 56 62 65 66 65 69 70 65 60 64
94 92 85 76 69 69 68 71 78 82 81 81 82 85 79 78 84 83 88 87 74 79 92 96 97 77 72 74 74 76 72 83 85 89 88 84 87 93 94 84 51 47 53 60 61 65 76 72 75 71 66 61 61 63
94 93 86 78 70 70 70 72 80 84 86 83 82 73 71 73 80 88 82 70 78 83 97 98 97 90 79 83 87 77 85 84 90 91 81 84 86 89 96 74 63 52 60 64 64 63 65 67 69 72 68 60 60 53
94 92 86 78 72 71 70 75 84 88 89 86 79 68 75 78 81 91 77 82 86 84 98 97 96 97 81 86 85 84 82 90 88 92 86 79 84 92 76 65 60 58 66 68 72 60 61 64 64 62 60 56 54 48
95 92 86 80 75 73 72 78 84 89 83 77 77 76 87 86 78 79 88 89 94 96 95 97 94 96 90 89 90 91 83 94 97 90 87 92 88 63 64 60 56 61 65 71 78 77 71 74 62 54 56 48 49 57
95 91 86 80 78 78 76 82 86 84 75 86 85 90 85 71 84 79 95 96 92 92 94 94 93 94 84 96 92 84 95 96 98 94 94 96 92 72 60 59 59 67 66 67 65 69 66 67 76 58 60 65 73 78
96 90 86 81 80 79 77 84 88 85 89 85 86 78 81 85 94 87 93 87 85 87 84 90 88 88 90 89 93 88 95 95 98 92 96 98 90 78 70 66 68 65 60 50 52 58 59 61 64 68 80 87 89 90
95 91 87 82 80 76 79 85 88 78 75 79 86 91 93 92 89 90 83 90 92 91 95 95 96 90 90 91 92 94 98 96 87 94 94 86 83 81 83 81 76 66 54 57 64 64 64 63 64 65 68 67 70 71
95 92 89 83 80 80 85 87 86 77 84 97 94 92 88 96 93 91 92 96 94 95 96 95 96 94 86 95 88 98 81 85 99 100 87 95 82 78 81 77 72 67 72 79 86 83 81 78 70 68 74 78 77 75
94 92 89 85 82 83 88 90 80 91 97 99 97 94 97 89 95 97 97 94 93 91 94 95 96 87 95 94 85 91 92 98 92 85 93 95 84 80 81 73 70 78 88 89 88 88 92 92 85 78 77 77 76 74
94 93 92 85 83 86 90 86 90 94 100 100 100 97 91 95 98 97 98 98 95 91 94 95 93 96 94 95 95 94 93 86 85 96 97 85 87 79 74 71 70 71 77 80 88 90 92 94 94 93 90 80 83 82
94 97 90 85 84 88 86 96 99 100 100 100 99 94 97 96 97 96 92 86 84 93 97 97 96 81 93 97 97 90 90 88 96 97 96 83 88 78 69 62 59 59 61 70 84 89 95 95 94 94 91 92 92 87
94 92 84 85 88 93 99 100 100 100 99 97 99 97 95 88 86 75 75 80 92 95 96 92 91 89 90 90 91 91 95 97 96 97 92 81 73 67 61 62 59 68 87 92 91 96 96 94 94 90 87 88 89 87
90 86 87 88 87 96 100 100 100 99 95 99 97 93 91 88 80 78 79 81 87 86 94 96 93 94 91 92 90 96 97 94 83 83 73 64 61 62 67 78 87 92 92 93 87 78 73 75 81 84 84 86 90 87
87 86 85 85 83 99 100 100 100 99 98 96 96 96 96 97 90 88 89 89 94 94 98 97 88 81 79 74 91 91 94 90 75 73 68 63 62 88 86 85 86 89 88 95 96 76 83 77 69 72 75 85 92 90
91 88 87 91 99 100 99 99 99 98 98 97 96 95 98 97 98 97 98 95 98 95 98 91 79 67 62 58 65 66 71 80 72 61 64 72 66 79 89 93 92 79 77 77 78 75 78 81 82 82 81 83 85 88
98 91 99 98 100 100 100 98 95 95 98 98 98 96 98 99 99 97 94 98 94 78 79 64 64 76 77 69 73 79 74 81 75 59 55 61 70 85 84 86 86 87 84 86 73 69 70 68 69 77 84 82 79 83
92 96 100 100 98 99 98 88 97 98 99 99 98 100 99 99 98 88 97 96 91 80 67 67 68 85 79 86 90 91 88 85 69 64 63 65 67 76 81 85 84 90 92 89 85 88 90 67 72 74 73 71 79 85
94 100 99 98 98 97 97 98 98 96 97 98 98 99 98 98 98 99 96 97 76 93 81 74 79 90 94 93 90 83 84 78 82 79 73 74 84 84 82 74 83 86 84 82 84 87 84 70 69 73 74 93 94 94
98 99 99 98 98 96 97 97 98 98 96 96 96 96 99 98 99 97 94 94 82 80 75 79 86 78 74 69 72 85 84 71 70 69 77 73 74 78 85 79 76 81 81 90 89 90 93 94 94 95 95 96 96 98
98 98 96 91 96 90 92 97 96 97 95 97 94 97 98 98 100 96 95 92 70 70 79 83 80 83 79 69 83 83 78 65 64 69 83 75 69 78 87 88 88 86 83 83 86 89 91 90 94 95 97 93 86 98
97 98 98 75 82 81 85 83 81 92 95 95 97 98 97 99 96 87 90 91 72 87 88 80 76 77 73 79 84 81 71 72 75 73 78 80 86 84 84 84 84 79 80 84 86 86 90 92 92 96 97 97 98 97
96 92 95 92 94 92 93 92 94 92 90 88 84 98 92 89 85 85 85 96 97 96 96 96 93 92 91 91 83 80 92 92 90 88 85 86 90 93 92 92 89 79 86 88 89 91 92 93 96 97 99 100 98 97
97 90 84 98 96 94 89 88 86 81 73 82 84 90 89 89 92 94 96 97 98 98 97 96 98 96 93 93 91 87 88 79 78 82 78 81 92 92 95 92 89 92 91 88 85 90 97 97 97 98 99 97 98 99
97 88 93 94 92 89 88 84 90 90 86 86 85 89 86 88 96 98 97 100 99 97 95 95 95 92 94 92 96 95 84 73 67 59 63 73 80 86 90 94 95 95 94 95 97 99 78 92 91 99 99 99 99 100
90 96 93 92 91 96 96 96 92 78 92 97 95 92 75 96 95 98 98 97 97 97 96 98 96 92 91 91 90 89 90 84 93 91 89 87 87 86 88 89 90 92 93 94 95 97 97 99 99 100 100 100 100 100
95 91 90 94 96 99 98 97 98 97 98 98 96 98 97 94 88 92 98 95 99 99 92 90 90 89 84 83 78 77 58 83 88 90 89 89 87 85 86 90 92 91 92 93 94 96 95 96 98 99 98 100 100 100
97 96 97 96 100 100 100 96 99 99 98 99 98 96 95 90 80 86 99 90 89 83 88 89 92 92 85 80 77 78 80 82 86 84 79 82 85 88 89 89 90 90 92 94 95 95 97 98 99 99 100 100 100 100

GFSWCAN_sfc_rhum_093.txt.gz
RH
80 85 88 74 66 63 68 73 77 78 80 83 83 86 84 84 82 84 80 78 90 93 88 77 74 83 83 86 88 81 75 77 85 86 79 78 75 68 70 64 68 65 72 77 75 80 68 56 67 64 59 70 64 70
82 83 90 79 70 64 67 70 76 78 79 80 82 81 78 79 79 78 80 74 75 90 85 70 69 68 72 75 88 88 80 82 88 90 89 80 71 73 69 65 70 63 58 69 59 62 54 63 68 68 64 64 66 68
83 81 88 85 74 67 66 68 75 78 79 78 79 79 75 71 70 77 86 87 91 91 90 86 81 68 63 68 71 88 90 85 86 86 92 90 82 78 76 73 70 70 69 66 62 60 62 60 71 66 65 72 71 72
85 83 87 89 77 70 66 67 72 77 80 78 76 81 74 72 72 73 83 88 90 89 96 85 62 76 65 66 72 76 79 79 84 92 94 93 89 73 76 68 73 62 68 70 72 62 67 64 66 65 68 71 72 68
86 85 88 91 80 72 68 68 71 76 81 80 79 82 80 72 70 81 88 86 81 89 94 87 74 71 66 67 73 76 80 87 93 94 98 92 91 82 85 85 91 71 65 72 64 57 58 70 68 67 73 74 72 67
86 86 89 92 83 75 70 69 70 76 82 83 82 84 84 77 76 87 90 89 85 89 96 92 84 82 78 75 74 81 86 85 92 93 93 93 81 86 93 95 68 65 64 57 57 67 68 69 68 68 71 71 64 63
88 87 89 93 85 76 71 70 72 76 81 83 83 84 81 76 92 91 86 89 77 88 93 89 96 84 80 81 83 84 82 90 90 93 93 91 89 93 96 80 63 57 54 65 67 70 80 76 76 72 67 65 62 62
89 88 91 93 88 78 72 72 72 78 83 84 83 81 70 70 79 87 93 76 84 89 96 94 90 90 83 89 90 89 90 92 92 92 91 87 89 92 95 79 65 57 61 71 73 72 71 77 77 76 72 64 57 52
90 89 91 93 88 79 73 72 75 86 90 88 85 72 83 87 91 93 78 81 94 86 96 97 93 94 85 89 92 89 91 93 90 93 92 86 90 94 75 74 69 66 70 74 73 73 75 79 82 74 62 58 53 50
92 91 92 93 87 81 76 74 80 90 88 83 83 87 92 91 76 78 89 90 95 97 98 96 98 93 93 94 94 94 92 96 97 91 88 93 89 69 66 69 62 65 70 75 82 80 76 78 70 61 56 54 62 71
93 92 93 93 86 82 80 77 84 85 76 93 92 92 90 72 90 85 94 93 95 90 96 96 95 95 88 95 94 91 96 97 97 90 94 95 95 82 70 66 66 69 76 74 73 72 66 66 75 60 65 73 73 73
93 93 94 93 86 83 81 80 88 85 94 91 86 85 89 89 94 76 89 89 88 84 90 92 86 92 92 91 95 90 95 95 96 94 97 97 84 82 77 77 77 78 69 62 65 67 66 64 65 70 78 86 88 90
93 93 94 92 86 84 82 84 89 81 74 81 89 86 89 88 88 84 80 86 95 93 95 96 93 91 89 93 95 97 98 97 91 99 96 88 87 76 77 83 76 62 58 62 66 67 66 68 66 66 70 74 74 76
93 94 95 92 90 88 84 87 88 79 86 94 89 87 87 95 93 89 88 87 89 95 96 97 98 95 93 94 93 96 84 89 100 100 88 93 88 78 79 79 70 68 70 76 85 83 78 74 70 74 76 76 76 72
94 94 95 95 92 88 88 90 83 88 96 97 97 98 96 86 97 97 98 93 95 95 95 96 96 92 97 96 92 92 96 100 93 84 89 96 86 82 83 74 72 77 84 85 85 86 89 90 78 78 75 78 75 74
94 96 97 94 92 88 90 90 90 94 100 100 99 99 93 96 99 99 98 98 96 94 96 95 96 99 97 95 97 95 95 90 76 93 94 91 85 81 80 75 70 73 73 77 83 84 90 89 85 84 89 80 79 79
97 98 95 94 89 89 90 95 99 100 100 100 99 96 95 97 95 97 92 93 94 93 94 96 94 77 90 99 100 93 92 85 92 97 98 88 86 83 72 71 70 69 71 73 84 86 91 91 92 91 88 91 92 86
97 97 93 90 89 93 99 100 100 100 99 99 99 97 92 93 91 92 93 94 95 96 95 93 90 92 87 87 91 87 92 96 98 96 96 89 87 81 66 66 61 64 77 87 88 94 94 91 88 82 84 87 90 88
93 93 90 88 88 96 100 100 100 99 96 97 96 98 91 89 86 82 89 87 92 92 92 97 89 90 82 88 87 91 97 95 64 79 90 83 79 76 71 76 80 86 89 90 84 80 80 79 76 76 77 79 83 82
93 91 88 89 86 100 100 100 100 100 99 95 98 98 95 93 87 91 93 91 92 95 98 98 83 72 74 79 88 86 92 88 83 81 78 77 71 85 86 84 78 87 89 94 90 78 77 73 70 70 74 77 87 80
94 93 91 92 100 100 100 99 99 98 99 99 98 95 98 98 98 97 97 95 97 96 97 86 82 63 72 69 65 72 71 82 75 64 56 89 76 84 91 90 91 84 81 79 81 82 79 74 75 73 74 76 78 79
99 90 99 99 100 100 100 100 98 96 96 98 98 98 99 100 99 98 96 98 97 77 79 92 69 66 75 78 65 76 64 76 81 80 68 70 86 93 88 86 87 86 84 84 80 81 76 67 68 71 77 76 73 76
89 97 100 100 99 99 99 97 96 98 99 99 98 100 100 100 98 93 98 95 91 89 70 73 65 79 76 78 90 91 82 77 79 81 75 73 77 83 83 87 80 86 89 91 83 82 80 64 66 73 71 70 72 78
92 100 99 98 98 98 98 98 97 96 97 97 98 100 100 99 98 99 98 93 89 93 92 79 77 93 96 94 88 75 84 84 84 92 81 80 89 90 83 84 84 80 81 85 85 84 79 71 68 72 72 84 86 88
98 98 98 99 98 96 97 97 98 97 96 96 98 99 99 98 99 99 93 94 93 74 75 85 87 81 78 71 75 74 88 82 83 79 86 73 90 95 94 91 90 89 85 91 90 88 87 82 85 86 88 90 91 95
98 98 97 91 96 91 93 97 96 96 96 98 94 98 98 97 100 97 95 91 74 68 80 85 82 88 89 78 74 90 85 82 84 82 90 77 73 77 84 86 90 91 85 82 87 89 88 86 88 92 90 90 84 96
97 98 98 84 82 83 88 87 81 92 96 95 97 99 97 96 94 86 83 87 84 88 88 82 79 80 75 83 83 94 89 81 86 86 86 76 79 80 78 79 79 74 84 86 83 82 85 86 88 90 91 94 94 96
97 96 94 96 92 90 95 96 96 90 91 90 86 99 94 88 83 82 84 89 97 97 97 98 96 93 94 94 94 95 97 96 94 94 92 94 97 98 93 94 93 83 88 83 82 83 84 86 88 91 94 94 95 97
98 89 84 98 93 92 90 91 89 91 82 82 82 90 88 85 88 88 94 95 98 94 93 94 97 98 97 97 98 98 91 87 86 89 88 91 97 96 96 93 90 91 88 85 81 85 91 91 92 92 94 96 96 97
97 88 93 94 92 94 89 89 92 93 92 84 86 95 93 91 95 98 97 100 97 90 87 90 94 92 96 93 99 100 98 88 77 81 73 75 74 86 92 93 94 92 88 88 90 88 82 89 88 99 98 97 97 98
91 94 94 94 92 98 99 98 93 82 93 96 94 93 90 95 93 98 92 93 94 97 96 99 98 95 93 95 93 95 95 90 93 92 92 85 88 85 88 90 90 90 91 91 92 94 94 99 96 96 96 96 100 99
97 94 92 96 98 97 96 95 96 96 95 93 93 99 94 93 86 88 94 94 96 96 88 87 90 86 86 89 88 93 68 89 83 91 89 88 86 84 88 90 90 89 90 91 92 94 93 93 95 96 96 97 98 99
97 97 97 96 97 98 98 94 96 96 96 98 96 96 94 88 80 79 98 87 84 72 77 80 84 95 89 86 87 86 83 90 83 81 78 80 85 89 89 89 88 87 88 89 92 93 93 94 95 96 96 97 98 100

GFSWCAN_sfc_rhum_096.txt.gz
RH
85 85 83 86 82 71 65 67 73 78 79 80 82 84 82 82 82 81 82 83 88 92 88 78 77 84 86 89 86 79 76 76 88 87 83 82 80 72 77 68 70 60 74 79 81 84 73 64 69 61 49 76 68 72
85 84 84 83 87 76 68 66 69 77 80 80 80 82 78 75 78 74 75 77 82 90 85 76 72 74 79 76 86 88 80 82 88 91 91 91 75 83 74 73 68 75 61 62 63 61 48 65 61 67 64 63 71 73
86 85 84 81 89 81 71 67 67 74 78 80 78 79 78 72 72 75 88 88 93 92 91 86 80 73 66 73 76 90 92 84 89 87 93 92 88 82 85 79 73 69 71 73 60 57 63 61 73 70 67 71 76 77
88 86 84 80 86 85 76 69 67 72 76 80 78 78 82 73 71 72 81 89 90 93 96 86 67 76 67 69 74 79 84 80 86 94 94 94 91 78 84 71 74 62 71 71 74 65 65 61 67 68 69 74 75 75
89 87 86 83 85 89 80 72 69 71 75 81 82 80 84 80 73 85 92 90 86 80 90 85 80 76 71 72 77 82 82 88 95 95 98 95 93 89 91 89 94 73 66 71 58 56 53 58 72 70 75 76 75 69
91 88 87 86 86 90 83 75 71 71 75 81 84 83 85 85 77 90 91 92 90 91 93 87 86 83 80 79 81 86 90 92 94 95 95 94 86 88 94 95 72 70 66 52 54 62 66 74 74 77 74 77 74 67
91 89 88 87 89 91 86 77 72 72 75 80 82 84 85 77 92 92 86 87 79 90 91 87 88 86 81 83 88 88 85 91 93 94 97 93 90 93 96 79 64 66 61 62 70 73 80 78 75 75 72 69 65 64
92 90 88 88 90 92 87 80 74 73 76 80 82 83 78 69 77 83 92 78 86 89 94 92 86 88 84 90 90 93 92 93 93 94 94 92 91 95 98 81 74 71 66 67 72 74 70 78 80 78 74 67 56 51
93 92 89 88 91 92 87 80 76 75 80 89 88 79 82 88 93 90 77 83 94 83 91 96 88 85 87 91 93 91 93 93 91 96 94 91 92 96 82 78 75 72 72 77 79 84 85 83 84 79 68 56 52 53
94 93 90 89 92 92 87 82 76 82 90 83 82 86 91 91 75 78 87 90 94 97 98 95 98 95 91 95 95 94 94 96 98 92 92 97 93 79 71 72 74 70 70 76 85 86 82 92 85 69 58 54 55 65
94 94 91 90 93 92 86 82 79 88 76 90 92 95 87 75 87 86 93 91 93 93 96 96 94 95 90 93 93 92 97 97 100 88 95 95 94 84 78 78 77 83 76 70 71 73 70 72 76 65 70 71 70 69
94 95 93 91 93 92 87 83 88 84 86 87 87 86 88 88 92 82 90 89 93 89 94 94 89 92 94 92 94 93 93 94 99 94 98 99 84 77 84 80 80 82 71 66 68 70 69 65 63 69 76 81 82 83
94 94 95 92 94 91 89 86 89 85 77 79 84 85 89 88 92 88 82 91 96 93 97 97 97 93 92 93 96 97 96 96 92 99 98 88 80 81 85 83 77 66 61 64 66 67 66 70 70 67 71 71 72 74
94 95 95 94 94 92 90 88 91 82 85 91 88 89 91 95 93 87 86 87 85 94 94 95 98 95 94 96 93 96 81 88 99 100 86 91 79 84 85 83 70 73 69 73 83 80 75 72 70 71 72 71 70 67
94 95 95 95 95 92 90 91 89 90 94 97 95 98 96 84 94 93 96 96 98 91 95 94 97 89 98 95 95 93 97 99 94 84 88 89 83 85 86 85 78 76 87 85 86 86 86 84 78 78 76 78 72 71
94 96 96 93 95 93 90 93 94 97 100 100 99 100 95 98 97 98 97 95 98 94 97 93 97 99 96 94 98 96 95 93 79 92 91 91 83 83 86 86 81 77 78 76 82 82 87 86 84 82 87 79 76 74
97 95 92 95 95 92 90 97 100 100 100 100 98 95 97 98 95 94 82 86 93 90 92 96 91 78 92 100 99 92 91 85 88 93 98 89 80 83 86 84 79 76 75 73 76 83 88 91 93 94 90 87 86 84
97 91 95 95 94 93 96 100 100 100 99 99 98 97 92 90 92 92 87 94 90 92 91 86 87 92 90 89 93 89 90 96 96 95 92 82 87 88 84 81 78 78 82 88 89 91 93 91 91 87 84 85 86 89
90 94 95 94 88 98 100 100 100 99 98 98 98 98 94 94 88 79 86 86 94 92 91 97 89 92 83 87 86 92 96 93 77 83 85 82 86 87 86 83 84 88 90 90 83 80 80 82 82 82 76 80 81 80
94 94 94 89 82 99 99 100 100 99 99 94 98 98 96 95 88 89 90 90 92 95 98 97 82 66 72 73 83 82 89 85 77 77 68 75 84 90 87 85 79 87 92 96 94 76 89 85 76 74 72 78 86 85
98 96 92 91 100 100 100 99 99 99 98 98 98 94 97 98 98 98 97 89 96 96 95 79 71 59 72 72 74 75 73 82 72 56 52 76 75 81 92 91 91 87 84 83 84 91 80 79 75 72 70 80 82 79
98 90 99 99 100 99 100 100 98 98 97 99 98 96 99 100 99 96 96 96 96 77 75 53 54 62 66 80 68 81 64 75 74 73 65 71 80 95 95 89 92 88 84 80 76 77 84 86 72 70 74 77 75 78
90 97 100 100 99 98 99 98 97 98 98 98 98 100 100 100 98 91 97 95 90 85 63 60 65 84 76 76 87 86 84 77 72 74 73 78 77 87 92 90 85 86 87 87 81 84 86 75 71 67 71 72 74 76
92 99 99 98 98 98 98 98 97 97 97 97 97 97 98 98 98 100 99 96 95 94 74 72 72 76 95 94 86 69 69 84 77 87 85 89 89 88 83 86 85 80 76 82 88 92 86 72 68 72 72 78 80 82
98 98 99 98 98 96 97 98 98 98 96 96 97 97 97 98 99 100 97 96 95 82 75 80 87 86 82 77 74 72 81 84 85 82 81 82 93 98 99 97 94 92 89 91 94 92 87 78 80 82 84 85 89 92
97 98 96 92 97 91 94 97 96 96 95 97 94 96 98 97 100 95 93 91 70 71 70 76 81 91 88 78 73 84 81 91 91 90 87 84 80 80 87 92 96 96 91 79 87 89 88 81 83 87 85 85 82 91
97 98 98 87 84 85 90 87 84 92 96 97 96 97 97 94 92 86 86 88 82 82 75 76 76 77 76 82 82 95 96 90 90 92 95 87 81 75 79 82 85 74 87 84 82 81 82 83 83 84 87 90 91 93
97 97 94 95 93 95 95 96 94 91 91 88 84 98 94 85 80 82 80 90 89 94 96 97 94 86 93 94 95 96 98 98 98 97 96 96 98 98 94 88 92 78 85 83 82 80 82 81 82 86 88 90 94 94
99 91 86 98 94 93 90 91 89 84 75 81 79 89 87 88 90 89 92 96 98 91 93 96 99 98 98 98 99 99 95 93 93 95 95 95 100 97 99 96 93 93 90 86 80 82 87 85 85 86 89 91 93 96
98 90 95 94 93 92 89 84 90 89 89 78 78 94 93 94 95 97 96 97 92 87 84 90 93 91 93 93 99 100 99 92 84 85 88 88 91 94 94 96 96 93 89 88 87 85 76 82 83 97 98 96 96 97
92 95 96 96 93 96 98 98 94 84 95 97 96 95 92 95 92 98 96 93 94 93 91 94 98 98 93 94 93 94 92 92 93 92 96 93 90 89 92 94 91 89 88 88 87 87 90 96 96 96 95 96 96 96
97 96 94 97 98 97 97 97 96 94 95 94 95 98 95 92 84 90 90 90 93 94 85 83 87 83 85 88 91 94 72 91 86 88 87 92 90 89 90 90 89 89 89 89 89 92 93 93 94 93 94 95 97 96
97 96 96 95 97 99 96 95 96 97 98 98 97 97 94 90 81 84 96 82 75 71 74 76 74 93 88 84 85 87 83 94 88 80 78 79 84 89 89 88 88 89 90 90 93 92 93 92 92 94 94 95 96 96

GFSWCAN_sfc_rhum_099.txt.gz
RH
87 86 86 86 85 87 78 69 67 74 79 80 80 83 82 77 81 81 83 88 87 91 86 83 79 83 87 90 87 78 78 78 89 85 87 83 84 74 83 74 68 61 73 83 86 90 79 67 72 60 51 76 76 75
90 88 86 86 85 85 84 74 69 69 77 80 79 79 82 76 78 75 80 79 85 93 85 80 76 78 79 80 88 89 81 83 90 91 93 92 82 88 79 73 72 74 59 56 68 66 51 63 60 68 64 66 73 74
92 90 88 87 86 82 87 80 71 69 74 78 79 76 80 76 71 76 90 90 93 94 92 87 81 79 72 76 79 83 92 86 89 90 94 93 90 86 88 87 77 69 73 74 66 60 61 58 67 68 67 66 70 74
93 92 90 88 86 82 88 84 75 70 71 76 78 78 78 82 73 71 82 91 92 93 96 83 70 79 75 75 78 83 84 85 89 94 93 94 91 80 85 73 74 62 72 76 78 66 66 62 65 70 69 74 78 80
94 93 92 90 88 83 87 87 80 72 71 74 81 81 80 84 78 86 94 91 87 80 88 80 80 79 77 76 78 84 84 88 95 96 99 98 94 91 93 92 90 73 60 68 59 54 49 48 64 68 74 78 78 72
94 94 93 92 89 87 87 89 84 76 73 76 82 83 82 84 78 91 92 92 91 92 93 85 83 85 82 81 81 88 91 92 95 96 96 95 88 88 94 97 76 72 67 52 50 60 61 71 76 80 74 78 79 72
94 94 94 93 90 88 88 90 86 78 74 76 81 83 84 76 92 87 86 84 81 91 90 86 88 87 83 85 90 91 88 93 94 94 98 95 92 94 98 86 70 65 68 67 68 74 76 78 70 80 81 78 70 68
93 93 94 94 92 89 90 90 87 82 74 75 80 83 84 70 77 87 89 78 86 87 94 90 86 88 82 89 91 94 94 95 94 95 94 96 93 95 98 84 79 76 75 75 75 74 70 78 82 82 80 70 65 56
93 93 94 94 93 90 91 91 88 83 78 77 82 82 82 88 92 89 79 85 93 82 91 96 89 81 89 92 94 94 94 96 93 97 96 93 95 98 83 82 78 76 77 74 81 82 87 84 86 83 76 65 56 55
93 93 93 95 94 93 91 91 87 82 82 87 77 83 94 91 75 82 87 91 95 96 98 96 96 96 90 95 96 95 96 97 97 92 93 99 96 80 76 74 78 78 77 83 89 91 90 93 87 80 71 57 52 59
93 92 92 95 95 94 94 91 86 89 77 83 88 94 86 77 84 86 94 95 93 97 96 96 92 94 90 92 90 91 96 97 99 92 96 97 95 82 76 81 81 85 89 89 80 77 80 84 86 70 61 62 67 70
91 91 93 94 95 95 95 92 90 88 86 82 84 82 84 84 91 88 93 87 96 90 93 96 94 92 95 94 93 94 94 95 98 95 98 99 84 71 78 81 82 78 83 74 75 77 76 78 69 66 74 80 82 85
89 91 92 94 95 95 95 92 90 82 82 84 84 87 89 89 95 93 84 90 95 92 97 97 98 94 96 93 96 96 95 96 92 99 98 91 79 72 80 84 83 75 74 69 71 70 68 70 70 70 74 72 74 78
90 91 92 94 95 96 95 92 92 85 90 97 97 94 92 95 94 88 84 86 86 96 94 95 99 93 93 97 92 92 84 89 100 100 90 91 73 70 82 86 76 74 73 75 87 84 78 73 66 66 66 70 72 71
90 91 92 94 95 96 95 92 91 91 96 99 98 97 96 84 96 96 93 94 95 89 93 94 96 89 98 96 95 94 98 99 96 86 87 86 68 81 82 87 85 77 87 87 91 89 86 84 76 75 75 76 70 68
93 94 96 93 95 96 95 94 93 98 100 100 98 99 95 97 98 99 97 96 95 86 92 89 96 95 92 93 99 96 94 94 80 92 87 84 80 80 82 87 87 78 80 79 89 87 88 87 84 84 86 80 77 73
98 97 90 92 95 96 94 97 100 100 100 100 98 93 95 98 95 93 88 87 85 83 87 92 88 75 90 98 97 91 90 85 87 87 88 88 72 69 80 85 87 81 81 79 84 86 90 94 94 94 95 92 86 81
98 95 94 92 96 96 99 100 100 100 99 98 99 93 92 93 96 96 87 90 87 91 88 86 87 92 87 85 89 90 90 94 93 92 85 80 74 80 83 87 85 85 85 87 85 89 93 93 90 83 90 91 93 92
92 95 95 94 92 98 100 99 100 98 97 100 96 98 94 96 90 90 86 82 89 86 87 95 88 89 79 82 88 91 94 92 71 72 86 83 76 82 86 90 90 90 89 89 86 78 78 80 77 88 87 87 81 81
94 95 96 95 84 99 99 100 100 99 99 96 98 98 98 97 89 93 91 89 88 94 98 99 81 70 67 75 80 75 81 74 68 64 61 71 83 90 90 91 87 88 92 96 94 83 94 92 85 88 84 81 85 85
95 94 96 95 100 100 100 99 99 98 99 97 98 94 98 99 99 98 98 93 96 97 89 82 52 44 63 62 60 64 65 74 65 51 50 69 64 75 85 90 94 90 89 87 86 86 80 78 79 83 81 79 86 88
99 96 100 98 100 99 100 100 98 98 97 99 98 94 99 99 99 96 96 98 95 81 81 61 55 53 56 67 61 73 64 70 71 70 62 63 69 91 90 86 94 90 88 83 78 74 76 81 83 82 78 82 78 83
94 96 100 100 99 98 98 99 98 98 98 99 98 98 98 98 99 93 97 92 81 94 72 65 63 72 65 65 83 80 73 69 65 70 65 67 63 74 84 88 85 86 90 86 80 80 81 84 78 80 77 72 81 79
92 99 99 98 98 98 98 98 97 97 98 99 98 97 98 97 97 98 98 96 88 87 71 73 68 66 68 93 78 67 67 83 72 68 68 78 78 77 74 73 83 83 78 90 86 84 86 85 80 80 76 86 85 81
98 98 98 98 98 97 97 97 98 96 96 98 98 100 97 98 97 97 94 96 98 87 74 72 67 67 68 64 62 65 76 74 77 78 73 78 75 98 98 96 93 87 90 93 94 92 90 87 87 89 87 89 91 91
98 97 96 94 97 92 96 99 98 97 97 98 94 96 98 97 97 93 94 86 82 80 74 72 68 70 71 72 72 86 76 81 78 82 84 87 85 83 87 92 96 94 91 80 88 90 88 86 89 91 89 83 81 90
97 97 98 91 87 86 92 88 86 94 96 96 97 97 96 96 94 87 92 92 78 69 63 63 67 70 70 75 76 79 95 88 88 90 95 92 88 82 82 85 87 86 90 84 83 84 85 85 86 85 86 87 87 90
98 98 96 96 95 95 95 97 96 91 93 88 84 99 96 88 82 82 84 91 81 92 91 94 90 80 84 90 93 95 98 98 97 97 97 97 98 98 96 95 94 79 90 84 82 80 80 80 83 84 85 86 91 94
99 94 90 97 99 96 92 90 89 85 81 83 85 88 89 89 90 90 91 91 93 92 96 96 99 98 98 97 98 98 95 93 92 95 95 92 98 95 99 96 95 96 93 86 78 82 87 84 84 83 84 88 91 95
99 88 92 94 95 92 89 87 94 94 90 83 80 91 92 94 94 97 93 94 91 86 79 86 91 91 93 91 98 100 99 95 90 85 85 86 89 95 95 96 96 95 93 91 91 87 76 80 80 92 95 95 96 96
93 94 96 97 93 96 97 98 95 85 94 98 95 90 88 95 89 91 92 90 91 94 92 95 100 98 91 94 92 91 91 91 94 94 95 97 95 95 94 94 94 92 90 90 89 86 87 92 93 92 93 95 95 95
98 95 95 98 98 97 98 97 97 96 98 96 96 97 95 93 85 83 84 90 92 90 82 86 88 87 86 84 88 94 74 90 89 89 93 95 96 95 94 92 91 90 90 88 86 90 92 91 92 91 93 93 94 95
96 96 96 96 96 96 97 96 98 98 97 98 97 95 93 91 86 83 95 79 71 65 75 79 73 78 83 80 86 91 84 95 89 84 82 83 89 94 93 90 88 87 86 88 91 91 91 92 92 92 93 93 95 95

GFSWCAN_sfc_rhum_102.txt.gz
RH
93 91 89 88 87 85 84 83 73 70 73 79 80 80 83 78 79 82 88 90 88 92 85 83 80 83 89 91 87 78 81 79 91 83 87 85 85 80 85 76 73 65 75 87 92 94 84 69 74 62 49 73 73 77
94 93 92 90 88 87 84 86 80 73 71 77 80 80 80 79 75 76 85 81 88 93 83 83 80 78 78 78 86 89 83 81 88 92 94 93 87 91 82 76 74 67 59 59 68 66 53 64 64 62 62 63 72 73
95 94 93 92 90 88 87 82 85 77 72 74 78 79 78 82 72 74 92 91 94 94 91 88 82 80 74 76 79 85 92 87 90 90 93 93 89 90 91 90 81 68 70 70 70 61 62 59 59 70 68 66 70 74
95 95 94 94 92 90 88 84 87 81 74 72 74 78 79 81 80 70 83 90 90 92 96 81 74 81 79 78 81 83 84 88 90 94 93 94 92 82 89 79 80 63 73 74 81 63 66 55 61 61 66 72 73 78
94 94 95 94 94 92 90 87 88 86 79 73 73 81 82 80 84 87 93 92 87 77 86 79 77 81 80 80 83 85 85 88 95 96 99 98 94 92 93 94 98 74 66 77 62 50 55 52 58 68 75 73 77 79
94 92 94 94 94 94 92 90 88 90 84 79 76 82 84 82 81 92 94 93 91 88 93 88 76 86 85 83 85 90 91 92 95 96 96 95 90 90 92 96 78 76 72 61 60 73 62 58 65 72 72 77 81 76
89 91 93 94 94 95 94 91 90 90 85 78 77 82 84 84 93 88 86 84 85 89 88 88 88 84 84 86 92 93 92 95 95 95 98 96 93 96 98 89 62 72 67 71 76 81 80 77 69 73 77 81 77 74
89 90 91 94 94 95 95 93 92 91 86 79 76 81 84 76 78 90 90 80 85 88 93 92 87 84 82 91 92 96 96 96 95 96 95 95 90 96 98 72 79 79 79 78 76 81 76 80 82 84 86 80 75 70
92 89 86 87 90 91 96 94 93 92 87 80 80 81 82 87 94 88 81 83 93 83 92 94 90 82 90 94 95 96 95 97 94 98 96 94 92 98 86 83 82 81 77 74 78 84 84 87 83 87 83 78 74 61
89 89 86 84 86 90 94 96 94 92 87 83 87 91 99 86 74 83 88 94 95 97 98 95 96 89 90 96 97 96 96 97 98 93 94 96 94 76 73 78 84 82 83 84 94 90 89 92 89 88 84 71 63 56
86 86 88 89 90 91 94 96 96 91 90 90 92 94 86 78 80 82 94 97 96 97 96 95 89 92 91 91 90 91 96 96 99 94 98 97 96 85 76 77 81 83 86 88 90 83 81 83 90 86 76 64 60 66
84 82 84 88 89 91 93 96 95 95 94 84 87 84 84 85 90 92 93 90 96 88 94 89 90 90 96 94 94 97 96 96 98 94 99 98 87 74 76 75 78 81 80 81 80 81 76 83 86 80 75 77 82 87
84 78 79 83 86 91 93 96 92 88 85 90 90 98 93 91 98 98 88 92 95 91 95 96 99 91 98 93 96 95 97 97 92 100 97 89 79 68 75 80 81 78 72 72 71 72 77 84 77 74 76 77 80 83
86 88 88 82 84 89 91 96 93 89 94 100 99 98 95 97 94 88 84 89 88 93 90 88 96 89 90 98 93 95 87 88 100 100 92 87 74 65 73 81 84 76 71 72 86 87 84 80 71 72 71 77 76 79
86 88 89 89 87 88 92 96 92 93 98 99 99 96 97 87 96 96 96 96 98 84 90 91 93 83 98 96 95 93 99 100 95 86 87 83 66 66 76 81 87 84 83 86 91 90 89 87 77 73 75 79 77 74
85 88 89 86 88 89 92 97 95 97 100 100 99 99 95 97 97 100 98 98 96 81 92 93 94 93 88 92 100 92 88 85 80 92 86 72 65 74 79 77 84 85 78 76 87 86 86 88 84 85 87 82 79 76
87 90 81 85 89 88 93 98 100 100 99 99 99 97 96 98 95 94 90 90 80 83 89 91 89 74 93 98 98 89 87 86 88 89 87 78 65 61 66 71 81 86 81 78 80 84 84 90 93 94 91 92 92 88
93 84 85 84 89 95 100 100 100 100 98 99 99 97 90 92 96 97 94 85 81 93 90 88 85 92 89 88 90 86 88 91 92 86 79 69 72 63 67 74 82 88 87 88 85 86 89 92 89 80 84 90 96 96
86 88 86 89 96 97 98 99 100 98 96 99 98 98 94 96 94 93 88 78 94 86 90 98 83 89 82 84 85 91 92 82 63 66 73 71 69 65 71 85 90 91 91 92 86 77 73 76 71 75 81 90 89 93
83 84 86 88 92 99 99 99 100 99 99 95 98 97 98 98 93 94 89 86 92 96 97 98 80 70 70 70 84 86 80 66 66 65 61 65 72 82 81 83 83 86 93 97 94 83 90 89 81 80 84 86 92 88
84 84 86 94 100 100 100 98 99 98 99 99 97 95 96 99 99 96 98 91 98 98 95 66 78 61 63 59 66 69 62 61 56 47 46 59 57 71 73 80 90 91 91 89 89 87 83 79 72 78 79 81 86 88
93 81 100 98 100 100 100 100 98 98 98 99 98 95 99 99 99 95 93 98 96 81 73 65 65 66 57 59 57 66 61 64 59 61 60 60 58 82 79 74 88 88 88 84 81 78 78 78 80 79 77 83 82 90
93 96 100 100 99 99 98 99 98 98 99 98 98 99 99 99 98 96 98 96 80 67 67 66 70 80 67 60 67 71 69 65 57 58 56 56 55 62 76 77 78 81 83 83 81 81 83 79 78 78 76 77 89 92
92 100 99 98 98 98 99 98 98 97 98 99 98 97 99 99 97 98 96 87 68 84 74 76 77 74 70 71 67 60 62 70 62 59 56 60 66 63 66 65 71 73 70 89 87 86 88 81 81 82 76 84 88 88
100 98 99 98 98 97 97 99 99 98 96 97 97 98 97 98 97 97 96 94 86 78 75 73 71 70 68 63 61 61 70 66 76 74 65 73 68 90 96 91 86 77 88 92 96 92 93 90 87 89 84 86 90 90
98 96 96 96 98 94 94 98 98 98 98 98 96 96 99 98 97 94 93 91 73 77 72 69 67 70 72 67 66 66 81 74 72 78 70 78 78 78 83 87 91 87 90 81 88 91 92 89 91 91 88 84 83 89
98 98 98 93 90 90 94 88 86 94 97 95 97 97 96 96 95 87 90 88 79 71 64 62 65 66 66 64 66 66 93 83 80 86 92 87 80 78 81 88 86 87 91 87 86 86 88 88 88 88 87 86 84 87
96 96 98 97 97 96 95 98 96 94 90 91 86 98 94 90 83 84 82 89 84 95 92 89 89 78 74 80 94 96 99 98 97 97 95 93 96 98 97 97 95 81 94 89 88 86 84 84 84 85 86 87 93 92
100 96 92 98 99 99 93 89 91 89 84 86 86 91 90 91 92 91 92 96 97 92 93 93 96 95 97 98 99 97 95 92 90 92 89 89 95 91 97 96 95 97 96 92 82 85 88 84 83 84 85 87 91 95
99 92 94 97 96 96 89 87 92 95 90 83 80 91 92 94 92 97 93 95 92 86 82 86 93 91 93 92 97 98 98 90 82 83 83 83 85 95 95 94 96 97 96 92 92 90 77 83 80 92 95 94 92 94
93 96 97 97 95 95 96 98 98 88 96 97 96 93 79 93 91 94 89 85 85 95 92 94 97 92 90 91 89 87 89 90 93 94 94 93 95 95 95 95 95 95 93 92 90 89 89 94 95 92 91 91 93 94
99 96 95 100 98 96 99 98 98 97 98 97 95 98 96 94 88 88 91 89 91 91 82 81 85 87 84 77 78 92 69 83 85 91 91 93 95 96 95 94 94 93 92 90 89 91 92 91 91 88 89 92 93 94
98 99 99 95 99 100 98 95 98 96 99 99 96 94 94 90 82 84 96 79 72 67 68 76 76 86 82 79 79 82 82 92 87 84 84 83 88 96 94 93 92 91 90 91 93 92 90 90 90 90 90 92 94 94

GFSWCAN_sfc_rhum_105.txt.gz
RH
93 93 93 92 90 89 88 86 85 79 74 73 78 81 80 82 78 84 90 92 89 91 85 82 76 84 90 90 87 77 79 81 92 87 86 85 87 82 85 75 73 73 81 91 95 97 87 64 71 58 47 60 62 73
94 93 94 94 93 91 89 88 86 85 78 74 75 80 79 81 77 75 91 82 89 92 76 83 79 80 74 74 86 89 82 81 88 91 94 93 88 92 84 80 75 71 55 57 69 68 53 63 59 60 55 58 61 69
94 94 94 94 94 93 91 89 88 88 83 76 74 75 78 78 79 76 93 93 93 94 90 90 85 80 79 77 79 85 92 85 90 89 93 92 90 85 91 91 82 70 71 69 64 61 57 57 56 59 65 64 61 64
95 95 95 95 94 94 94 92 90 89 85 78 74 72 79 79 82 77 88 91 90 90 96 80 76 84 81 82 83 82 84 90 91 94 93 94 92 84 91 81 84 67 70 73 76 62 59 54 63 58 57 66 70 68
95 95 95 94 93 94 95 94 92 90 89 83 76 73 80 81 82 90 95 93 87 81 93 81 76 82 83 83 83 85 86 90 95 96 99 97 95 94 94 95 98 76 70 78 64 57 55 57 57 58 62 61 66 76
94 95 95 92 90 92 95 96 94 92 91 88 82 76 81 84 83 84 91 95 91 87 93 90 78 88 87 85 87 90 91 93 95 95 96 96 90 92 96 97 77 78 73 56 57 73 69 68 68 66 65 62 71 80
91 92 91 86 87 89 93 96 95 93 92 90 82 80 83 85 93 93 82 83 84 86 87 88 87 83 84 87 94 95 94 96 95 96 99 96 94 96 98 88 55 72 70 71 74 82 79 76 73 76 78 79 77 84
90 90 90 90 91 90 92 94 96 95 94 89 84 82 83 83 80 93 90 82 83 85 93 94 88 82 85 92 95 96 98 97 97 96 93 98 97 95 98 80 69 77 79 82 79 80 76 81 84 83 84 87 85 80
91 90 91 91 91 85 89 89 95 96 96 91 83 83 87 89 96 89 80 83 90 83 91 94 91 82 90 95 95 97 96 99 95 99 97 96 95 98 86 85 81 77 76 74 79 83 83 84 83 87 88 87 84 77
91 90 88 87 89 87 79 86 91 96 96 90 92 98 100 90 79 85 90 95 97 96 98 97 89 85 90 97 97 96 97 97 100 92 94 97 90 71 75 79 79 78 80 84 89 80 84 92 88 87 88 86 81 70
89 89 88 88 88 89 85 88 90 96 90 98 99 99 92 78 81 84 94 96 96 99 96 94 85 90 87 92 90 90 96 96 100 94 99 97 93 89 78 78 70 81 83 83 83 80 85 84 91 86 87 79 73 68
87 87 88 88 87 87 84 86 88 94 95 90 93 89 90 94 97 94 94 89 97 92 95 96 88 83 91 88 90 98 96 98 98 96 98 98 82 77 73 74 80 82 82 81 84 87 88 87 85 88 88 85 78 82
86 86 87 86 82 81 82 83 88 91 88 95 96 100 99 99 98 98 94 96 98 94 97 97 98 91 98 90 92 92 99 96 91 100 96 84 80 67 70 74 75 80 81 76 74 73 73 79 82 85 79 72 75 80
85 85 85 86 87 88 85 82 85 91 96 100 99 98 97 98 96 92 87 90 90 96 94 96 99 96 93 98 93 97 89 91 100 100 90 87 77 64 63 72 75 74 77 75 84 87 84 82 79 73 73 75 74 76
84 84 85 86 87 88 89 86 85 94 98 99 100 97 97 87 96 96 97 95 96 91 90 93 98 90 98 97 93 94 99 100 95 84 85 85 71 70 65 76 80 81 88 87 91 89 87 88 79 74 74 78 74 71
82 84 87 84 84 86 88 91 95 98 100 100 99 99 95 97 98 99 98 96 94 84 92 89 93 98 89 93 100 94 94 89 79 92 85 78 66 66 62 67 70 78 83 79 86 86 86 86 81 81 82 78 76 72
80 84 77 78 81 83 86 93 100 100 100 99 98 98 98 98 93 93 84 83 80 78 91 93 95 79 92 98 98 92 90 83 86 85 83 76 62 58 65 66 65 75 83 82 83 82 88 90 91 91 86 85 87 83
88 83 80 82 84 88 92 99 100 99 98 98 97 88 94 90 92 94 90 82 86 90 94 93 90 89 90 87 90 86 85 91 90 80 74 65 64 62 60 63 64 74 84 88 87 88 90 90 87 76 80 84 88 93
81 88 83 84 86 97 100 100 100 98 93 98 98 99 94 95 94 90 90 79 92 90 91 98 94 93 66 85 85 88 92 87 65 61 62 63 63 64 67 76 82 84 88 88 86 78 76 76 70 73 77 79 74 80
80 81 82 84 86 100 100 99 100 99 98 94 98 98 98 99 97 94 88 81 92 97 98 97 92 54 72 70 77 74 87 73 68 62 57 54 64 77 74 71 69 73 84 93 90 82 89 87 80 77 77 76 79 78
82 83 83 87 99 100 100 99 98 98 100 98 94 94 99 100 100 98 96 86 96 98 98 89 67 57 52 49 62 69 67 66 58 53 49 62 54 65 69 77 78 84 81 80 80 81 83 84 72 77 76 74 75 72
88 77 98 95 100 100 99 99 99 99 99 98 98 94 99 99 99 94 93 97 97 86 83 65 62 63 62 60 53 64 54 63 57 60 60 62 58 78 78 73 84 82 81 76 71 70 73 74 81 78 78 72 74 83
81 85 100 100 100 99 97 98 98 98 97 98 99 98 98 99 98 92 98 96 83 69 68 67 66 78 71 66 76 65 62 59 53 52 55 53 53 58 60 62 68 73 78 75 73 72 74 74 79 80 78 75 86 87
89 100 99 98 98 97 99 98 98 98 98 98 98 98 98 100 98 98 97 97 72 79 68 70 69 74 71 72 72 68 62 64 65 62 57 59 64 60 55 59 65 69 66 71 78 76 81 79 81 83 80 84 85 84
100 98 99 98 99 98 97 97 97 98 98 96 97 97 97 98 97 97 96 91 74 69 69 68 70 69 68 65 64 64 72 64 69 74 69 69 65 64 90 80 67 67 74 84 88 88 89 85 86 89 87 85 88 88
98 96 96 91 97 96 95 97 97 98 98 99 96 96 98 97 97 93 93 77 66 69 70 70 70 69 70 67 69 66 62 77 74 76 70 75 74 75 79 80 85 80 84 75 81 87 88 89 91 93 90 85 84 88
98 98 98 95 94 91 94 89 88 95 100 97 99 98 96 96 94 84 91 92 78 68 70 66 66 67 66 63 66 66 89 86 80 79 89 89 82 77 78 83 84 85 90 86 84 84 87 90 90 92 91 90 86 87
95 95 92 96 97 97 95 98 97 98 93 92 90 100 94 90 82 85 81 86 86 93 93 88 85 80 73 82 92 94 98 97 96 95 96 96 98 98 97 97 96 81 94 90 88 87 87 87 89 91 91 90 92 87
98 98 96 97 96 97 96 92 92 90 83 90 89 92 89 89 92 91 86 89 94 96 93 91 89 97 97 98 98 97 95 93 92 93 91 86 94 89 97 96 97 96 96 95 83 89 92 91 90 89 88 88 90 92
97 95 97 96 95 95 90 89 93 94 91 85 84 91 92 92 91 95 96 97 93 85 80 87 93 91 90 92 94 96 98 94 85 79 84 82 84 93 95 95 93 96 96 95 96 94 80 88 84 93 96 95 94 95
97 97 99 97 96 94 95 98 97 90 96 98 97 94 72 91 89 93 91 88 77 90 92 92 94 91 89 93 89 90 87 90 91 90 89 90 89 91 93 93 94 95 94 93 93 93 92 97 96 96 94 94 93 93
99 94 97 100 99 96 100 100 100 99 99 99 94 99 97 95 92 67 88 87 88 86 78 76 76 74 83 76 78 82 76 89 86 88 87 86 88 91 93 94 94 93 93 92 92 93 93 93 94 92 92 92 91 93
97 96 98 99 100 100 100 97 100 98 100 100 98 93 89 77 70 69 95 82 66 62 62 66 71 74 83 80 80 81 80 90 83 80 80 78 84 92 94 94 94 93 92 94 95 93 93 92 91 91 91 92 93 92

GFSWCAN_sfc_rhum_108.txt.gz
RH
91 91 92 93 93 92 90 89 88 86 82 74 74 77 81 81 79 72 73 74 63 62 56 61 58 63 70 63 49 56 58 67 68 65 57 50 55 47 54 44 46 50 61 69 70 80 79 42 53 40 30 34 37 43
94 93 93 91 94 94 94 92 90 88 88 81 74 75 79 79 81 70 70 69 72 66 58 64 59 58 58 55 54 65 58 59 56 60 61 57 61 60 50 46 48 50 36 33 43 40 34 41 36 38 39 41 42 44
95 94 94 93 92 94 94 94 93 91 90 87 78 74 75 78 78 73 74 76 73 74 64 68 64 60 64 63 62 57 67 64 69 66 60 61 67 56 54 56 50 44 41 44 46 30 36 31 32 34 34 38 38 40
95 94 94 94 94 92 93 94 95 94 92 88 82 76 74 79 78 79 80 76 70 70 80 61 61 64 62 64 64 64 67 71 71 73 71 67 67 56 55 49 53 37 49 44 45 39 37 37 36 36 38 41 44 45
94 94 94 95 95 93 91 93 95 96 93 91 88 81 75 81 80 87 86 80 73 71 76 67 62 62 67 66 68 69 70 71 72 77 86 86 68 69 63 72 68 51 47 52 46 34 34 32 34 42 46 47 46 49
92 93 94 94 94 92 89 90 93 96 96 93 92 87 79 82 85 81 81 86 80 76 83 88 68 72 72 72 75 75 73 73 74 74 74 71 72 72 77 71 47 47 42 38 37 33 37 37 46 48 50 51 50 56
92 93 92 91 90 88 85 84 89 94 96 95 93 88 82 85 87 84 75 75 80 76 79 89 86 73 70 73 76 79 81 78 77 79 87 75 75 81 85 66 33 44 46 46 43 48 54 56 50 52 56 53 56 62
90 89 90 90 90 91 92 88 86 91 95 96 94 87 84 85 85 88 80 81 77 78 85 91 88 72 73 81 81 78 82 84 86 81 83 86 83 84 92 59 50 46 45 51 49 51 49 56 62 59 56 58 66 64
89 90 89 89 90 91 91 87 83 88 92 97 93 88 92 94 97 81 79 80 79 80 93 88 89 85 77 80 79 83 78 90 76 90 85 83 82 96 67 54 52 57 60 55 60 61 61 64 61 55 60 66 69 66
89 90 90 89 89 89 88 88 81 84 90 94 93 97 100 92 83 79 86 91 94 91 90 95 78 79 80 82 85 86 82 84 98 79 82 94 86 65 57 55 54 57 58 61 87 79 68 74 68 63 67 66 66 63
87 88 88 89 90 90 90 89 87 93 88 96 99 99 94 83 83 85 94 97 89 97 89 89 84 76 74 84 75 76 87 87 99 83 91 89 88 67 55 57 52 54 65 63 63 59 59 63 77 71 68 72 72 68
86 86 86 87 88 89 89 88 86 93 95 93 95 93 93 97 100 99 96 87 94 88 79 86 81 71 79 75 76 86 88 91 97 83 94 94 75 65 63 63 62 60 63 64 62 62 68 69 72 73 77 84 80 79
84 85 86 86 86 85 86 84 84 87 89 95 96 100 100 99 98 97 96 95 95 82 88 86 88 73 86 82 80 84 99 93 79 94 91 78 67 55 60 70 69 63 60 58 61 66 64 65 66 72 74 69 63 60
82 83 84 85 85 85 86 87 87 90 96 100 99 98 97 98 93 86 80 84 74 85 84 77 88 79 77 88 78 96 74 80 98 99 85 78 64 56 50 57 58 62 62 63 82 82 78 75 69 69 70 61 59 56
80 81 82 85 85 85 87 88 84 94 99 100 100 97 97 81 88 86 88 85 86 81 81 81 85 71 87 89 83 87 96 99 89 79 80 78 64 64 58 55 55 59 70 78 76 83 85 82 72 65 65 68 62 57
80 81 82 80 82 85 86 86 87 99 100 100 100 100 94 95 95 92 92 88 85 80 84 81 86 92 88 87 96 95 85 85 76 88 78 63 60 59 60 55 52 52 53 61 76 77 81 80 76 70 67 66 62 59
78 85 75 75 78 84 83 95 100 100 100 100 98 89 84 96 91 83 69 66 72 78 91 95 98 92 93 92 92 78 86 80 86 82 73 68 60 50 49 50 53 55 56 60 68 71 77 81 84 79 76 73 74 69
87 86 78 77 77 86 90 98 100 100 100 97 98 77 74 68 66 68 72 76 80 85 90 97 92 95 92 89 77 78 79 80 78 75 67 58 52 51 51 51 55 58 69 80 80 82 84 85 80 70 72 76 79 81
82 87 79 78 82 96 100 100 100 99 92 94 90 74 74 73 78 70 75 74 74 81 90 98 98 97 88 77 74 78 86 79 59 48 46 50 58 51 53 67 69 70 78 81 77 70 67 70 65 61 63 66 62 64
79 79 80 80 82 99 100 100 100 99 92 85 95 93 86 79 79 82 80 78 86 94 98 98 89 74 72 56 66 58 55 50 52 51 47 45 48 68 71 67 59 62 67 78 81 73 75 74 71 67 67 64 66 65
79 80 81 83 98 100 100 100 99 97 97 99 94 81 88 98 98 99 95 84 93 98 95 79 64 57 54 47 45 53 49 58 53 47 36 40 48 57 58 68 70 63 63 63 65 67 74 73 62 68 70 68 66 62
89 74 99 95 100 100 99 99 99 96 98 98 98 98 98 98 96 97 96 98 97 83 69 61 59 58 59 58 53 56 53 48 50 48 52 51 51 61 63 60 75 75 72 70 64 62 62 65 66 71 71 68 67 69
79 86 100 100 99 97 91 99 99 99 94 96 99 98 98 98 96 93 98 97 81 64 62 64 64 65 63 57 61 66 65 64 58 54 48 47 46 52 58 62 69 77 78 72 71 73 78 72 73 80 72 70 71 75
84 100 99 99 98 92 98 99 97 95 97 92 97 96 99 96 96 98 97 96 71 61 68 72 67 67 64 69 70 66 63 63 66 63 58 58 61 54 53 56 51 56 62 56 67 84 83 88 95 95 83 77 79 77
100 98 99 95 98 98 98 97 97 96 96 97 97 97 96 96 97 97 95 90 69 65 68 67 68 68 70 66 62 60 60 65 68 69 63 64 66 65 68 66 60 56 65 82 79 76 80 82 83 78 82 81 84 86
98 92 97 90 91 96 94 97 98 96 97 98 96 94 96 96 97 94 88 69 60 61 64 68 66 68 69 66 66 64 60 72 69 72 68 67 70 76 83 80 80 75 74 70 75 79 81 81 81 86 86 83 82 84
97 92 96 87 92 90 93 87 84 93 96 96 96 97 96 96 95 84 82 80 71 76 77 68 67 68 67 63 63 65 78 84 82 75 74 84 79 74 80 83 82 80 82 80 79 78 81 84 83 84 86 85 83 84
95 93 83 88 98 96 93 97 97 99 93 88 89 97 94 92 82 81 80 84 85 90 91 88 84 79 76 75 80 83 87 89 90 85 83 82 86 90 91 87 88 81 85 86 84 83 83 83 84 86 88 88 89 85
94 81 97 98 100 98 94 92 92 87 78 87 88 87 89 84 87 86 81 86 93 91 87 81 84 93 92 90 91 93 91 90 89 90 90 80 80 83 89 90 91 91 89 89 82 85 89 86 86 87 88 87 89 88
94 96 99 98 97 95 89 88 92 91 85 80 79 87 88 86 86 91 91 90 88 79 73 75 81 89 81 84 80 90 94 90 84 78 82 81 82 84 91 92 92 92 91 92 94 92 83 86 87 93 95 95 92 91
96 98 100 97 89 83 94 94 90 80 90 94 95 92 69 82 84 88 85 81 73 75 91 79 76 83 78 82 83 78 81 88 88 87 83 85 82 87 91 92 92 92 91 92 92 91 92 95 94 95 94 94 93 90
98 98 90 99 91 97 98 99 97 97 98 99 93 99 97 97 94 60 81 87 81 77 71 72 69 63 70 73 71 73 73 90 84 85 88 83 82 87 90 92 93 92 92 92 91 93 94 94 93 92 93 93 93 92
99 99 99 99 100 100 100 98 100 100 100 100 98 92 82 77 75 60 87 78 63 62 60 57 63 70 73 79 77 76 76 82 84 80 80 77 79 87 92 92 92 91 91 92 94 93 94 93 92 92 91 94 93 92

GFSWCAN_sfc_rhum_111.txt.gz
RH
93 91 91 92 92 92 93 93 91 89 87 82 75 76 78 81 82 68 68 64 64 54 46 48 46 47 54 52 40 50 52 58 62 58 43 40 42 33 42 27 36 45 57 67 59 65 74 34 45 38 27 29 30 34
94 94 94 93 93 91 92 94 94 92 89 88 81 76 76 79 80 71 62 61 58 67 54 51 44 42 46 44 43 47 44 48 44 54 48 42 47 42 38 36 30 39 29 29 39 43 29 35 26 30 33 35 34 35
94 94 94 94 93 92 91 91 93 95 93 91 87 79 75 76 76 76 71 70 74 74 63 65 56 48 53 54 46 48 43 42 56 55 52 49 62 40 47 42 39 32 29 40 31 26 27 25 28 28 29 31 32 34
93 94 93 93 94 94 93 90 90 94 96 92 88 84 78 76 79 81 76 67 64 65 80 54 52 56 52 54 57 53 55 61 60 65 63 57 54 41 48 37 41 35 36 40 38 32 29 29 28 27 27 30 36 38
89 90 92 93 94 94 94 92 90 92 94 96 92 90 83 78 81 80 82 78 68 70 77 65 57 58 59 59 63 63 62 61 63 72 84 75 53 58 51 54 60 40 40 45 43 28 28 27 28 34 36 40 40 43
90 92 92 92 92 93 92 90 88 89 91 94 96 94 87 81 84 72 72 76 73 64 86 91 63 65 65 66 67 68 72 67 67 69 70 64 60 63 68 58 36 30 34 32 33 28 29 29 37 34 40 42 42 44
88 90 92 92 92 90 89 88 87 85 89 92 96 96 90 86 84 71 68 75 76 75 78 92 81 68 67 69 71 75 73 72 80 81 82 70 70 78 76 64 32 25 31 34 32 33 39 40 44 41 43 46 48 48
86 90 88 90 89 89 90 91 91 89 88 89 93 97 89 86 90 86 72 79 73 75 91 97 94 71 66 72 73 70 77 76 79 75 80 84 74 80 88 55 41 35 37 35 38 39 41 40 50 52 51 52 52 50
89 89 87 90 88 89 89 89 89 86 84 88 95 92 95 96 97 76 81 81 78 82 98 92 95 92 71 71 68 76 70 84 68 84 78 73 71 95 70 55 46 40 47 50 47 45 46 55 56 54 51 50 57 58
90 89 88 89 89 89 88 88 89 88 85 92 90 94 100 97 85 78 83 92 98 95 97 96 69 80 70 71 74 75 73 78 92 73 75 92 78 59 52 50 47 45 47 52 88 81 74 78 71 51 59 56 57 60
88 88 88 89 89 90 90 87 87 89 86 94 99 100 97 85 86 82 94 99 92 98 88 83 77 72 62 79 67 65 84 81 97 81 88 83 81 60 46 45 44 41 44 53 54 58 56 56 72 67 63 67 72 71
86 87 88 88 88 88 86 85 85 88 89 94 94 93 95 98 100 100 99 87 94 87 70 79 74 67 65 63 68 77 86 86 93 76 89 91 69 62 60 52 49 49 42 52 54 61 64 57 60 68 74 84 84 87
85 85 85 86 84 82 83 85 85 86 88 95 97 100 100 100 100 97 95 95 94 77 82 81 86 66 72 76 74 82 96 91 69 88 85 70 58 50 44 66 64 56 54 59 58 54 57 60 69 72 74 72 67 69
84 84 84 84 84 83 85 84 86 88 85 100 100 98 99 97 94 87 80 87 73 78 83 74 81 74 65 83 72 93 69 73 90 92 81 71 56 53 43 50 58 63 59 60 81 82 79 76 70 67 70 67 64 61
82 82 82 82 83 84 85 86 86 87 97 100 100 96 97 82 89 89 99 84 80 73 80 93 95 88 94 97 90 92 92 91 77 76 80 79 67 58 56 52 50 57 67 76 77 83 85 84 73 63 66 71 65 59
81 82 82 79 80 81 85 84 82 84 100 100 100 100 88 97 99 92 94 93 80 73 77 82 96 96 94 92 96 92 87 83 80 89 82 63 63 56 53 57 51 45 43 54 76 80 83 82 77 73 70 68 67 62
82 76 72 77 80 82 85 86 88 100 100 100 99 77 77 83 86 78 67 61 62 85 96 98 97 91 94 95 93 76 87 77 79 86 75 65 61 53 45 48 53 53 48 47 62 69 80 86 85 83 78 76 76 71
82 74 76 75 78 79 78 92 100 100 99 95 97 83 71 54 57 54 50 62 75 78 92 97 88 97 94 95 89 79 77 74 73 69 58 52 51 47 49 49 50 52 60 74 75 82 85 86 82 73 75 81 85 83
79 79 80 79 80 88 100 100 100 96 96 79 62 58 62 65 60 54 55 61 64 67 88 98 99 94 74 59 65 70 71 65 60 44 48 46 44 46 45 64 70 69 76 72 70 64 62 69 63 65 66 73 71 66
81 80 81 81 79 99 100 100 100 97 78 66 79 82 68 65 58 58 62 71 77 94 98 98 79 61 57 51 55 55 52 45 47 50 46 40 37 55 70 67 61 64 66 74 79 68 67 68 66 65 66 71 74 68
81 82 83 86 98 100 99 99 98 93 94 80 78 81 76 86 90 90 91 84 93 96 88 66 60 52 46 40 38 43 43 43 42 42 44 49 41 41 54 68 74 59 58 56 59 60 67 64 57 64 70 77 74 67
84 75 92 88 100 100 100 100 99 93 97 94 98 98 91 85 89 91 99 98 96 83 73 64 58 55 55 52 48 48 47 47 48 49 55 54 56 55 55 55 62 70 69 68 56 51 50 55 61 67 76 78 76 74
76 82 100 100 100 100 96 97 93 84 83 79 95 89 84 83 87 98 98 94 80 62 60 62 62 61 62 56 56 55 54 56 56 56 54 55 54 56 62 60 58 76 75 67 64 62 63 64 64 69 79 86 95 95
86 100 100 99 98 94 96 94 86 78 76 78 78 78 71 72 86 98 91 75 62 54 56 64 62 62 60 64 66 63 61 60 61 61 59 61 67 62 56 56 51 54 62 61 63 67 73 64 66 77 92 94 96 96
100 98 99 97 96 94 98 93 90 81 82 76 81 83 85 91 94 92 82 63 62 61 60 61 62 64 67 63 59 58 56 61 65 68 62 64 63 63 68 68 61 57 64 81 77 74 74 77 85 93 95 94 96 96
98 94 94 90 92 91 88 79 83 83 78 87 89 84 86 96 97 93 72 66 62 61 59 62 67 64 64 64 65 64 60 62 64 69 66 67 68 74 85 83 82 77 76 73 78 79 78 80 89 94 95 97 96 96
97 95 91 73 69 78 78 70 65 74 94 96 89 98 97 97 92 65 44 67 60 65 69 67 64 64 64 60 60 62 64 74 80 68 74 85 82 74 82 86 83 78 82 82 81 80 80 82 84 91 94 91 85 82
89 80 83 82 93 77 73 71 93 94 84 80 83 98 96 88 77 68 82 88 92 96 92 87 84 79 77 74 74 77 86 86 95 91 87 83 82 83 83 85 85 82 89 87 85 84 84 82 84 85 87 88 88 84
92 80 82 88 80 94 93 90 77 73 69 82 74 72 74 65 56 67 67 84 90 87 82 78 78 90 85 83 85 86 89 89 88 87 86 82 78 84 91 86 90 91 90 87 80 85 89 87 87 88 88 87 89 88
91 83 81 88 94 91 84 83 81 70 72 67 66 73 68 68 69 75 77 77 80 74 73 75 74 91 76 76 74 73 86 84 84 79 81 78 77 91 91 92 92 92 91 91 94 92 80 87 86 93 94 95 93 93
82 89 91 79 74 68 64 78 86 72 84 91 89 83 67 66 67 74 72 68 71 73 74 72 74 79 81 77 73 73 74 82 83 82 80 81 90 86 90 90 92 92 92 93 92 93 94 94 93 94 94 95 94 93
95 92 82 83 76 76 93 94 94 94 93 98 82 95 91 88 77 59 51 75 72 73 67 68 69 66 67 67 68 75 71 69 89 86 84 85 86 85 89 93 94 92 92 92 92 94 93 93 94 94 94 94 94 92
94 96 97 85 94 89 95 95 98 99 98 93 88 76 76 74 75 53 67 71 62 59 58 59 63 65 67 71 75 75 76 78 79 80 80 79 80 86 91 92 91 90 91 92 94 93 94 93 94 94 94 94 93 91

GFSWCAN_sfc_rhum_114.txt.gz
RH
94 93 92 92 92 92 90 91 94 94 91 89 82 78 77 81 82 83 85 76 86 83 71 54 53 58 64 69 58 67 69 75 81 83 71 64 63 49 64 44 69 78 91 90 78 88 88 50 57 49 41 45 39 44
95 94 93 94 94 92 91 90 90 93 95 92 88 81 76 78 80 82 82 68 67 86 74 62 55 57 59 67 69 59 62 61 64 78 75 67 67 59 57 60 45 50 47 57 63 66 45 47 44 44 44 46 47 48
92 93 93 93 93 93 93 93 91 88 93 95 92 86 78 74 76 82 89 84 86 89 82 82 72 60 56 59 58 70 61 60 68 81 88 79 82 70 71 62 52 43 37 50 45 39 33 31 40 42 42 44 44 45
89 89 90 90 91 92 93 94 92 89 90 93 94 90 85 77 77 82 91 84 85 83 97 73 56 68 61 62 66 66 69 69 71 84 89 83 78 58 64 56 59 52 49 49 46 39 34 32 31 30 34 38 42 46
86 86 86 89 90 92 93 93 92 90 89 91 93 96 90 81 79 86 92 81 83 88 97 88 68 70 66 68 72 72 74 77 85 92 99 95 82 70 63 64 64 50 44 48 47 37 37 39 42 44 45 48 47 52
86 88 90 91 91 92 92 92 91 88 86 88 92 94 95 86 82 87 85 91 86 81 97 97 79 80 80 80 76 78 80 82 87 89 91 84 79 82 95 91 54 49 44 38 37 37 41 43 51 48 48 50 53 56
85 86 88 91 90 90 88 87 88 90 89 88 90 93 96 89 92 82 84 88 76 79 90 94 96 82 83 84 88 88 86 90 92 89 92 92 86 88 97 76 39 39 39 42 41 46 48 50 52 54 56 57 60 63
85 83 86 87 89 88 88 89 90 89 88 87 88 91 94 91 92 92 88 80 77 83 94 96 94 88 80 89 92 82 85 83 93 95 89 92 88 94 97 63 51 48 45 43 39 45 47 56 61 65 64 64 68 71
89 83 87 84 86 85 85 86 87 88 86 88 94 89 95 97 100 93 81 81 84 86 99 97 97 96 87 88 90 93 75 83 85 98 94 91 93 96 78 66 59 53 57 57 65 60 56 58 64 70 69 70 70 68
90 87 88 85 88 88 86 85 85 89 88 89 89 95 99 99 86 82 92 98 99 99 99 99 94 98 88 91 93 93 80 86 94 82 87 98 83 63 55 53 51 53 59 59 79 78 79 78 78 74 73 66 68 71
88 88 88 88 88 89 87 85 85 90 86 96 99 99 96 88 93 98 100 99 98 99 98 96 93 89 80 93 86 83 94 93 96 90 93 93 90 69 58 59 58 58 56 52 65 72 71 73 76 72 71 75 79 80
87 88 88 88 87 86 84 84 84 93 96 94 95 92 96 99 100 100 99 98 99 89 92 88 89 92 86 84 90 89 96 94 96 92 92 92 84 71 68 63 64 66 64 64 64 73 73 70 70 74 80 87 86 90
85 85 86 86 82 80 81 83 85 86 86 93 95 100 100 99 100 99 96 99 98 94 95 94 95 88 90 92 94 96 99 94 90 92 93 89 79 56 62 66 68 71 70 72 77 76 71 70 74 79 83 85 82 87
85 85 85 85 83 83 82 84 84 88 94 97 99 98 98 91 98 93 94 94 93 96 95 94 95 93 84 95 91 98 88 88 98 95 91 91 69 66 62 61 69 66 70 72 84 84 78 75 79 79 81 78 80 82
85 85 85 86 84 83 83 85 85 92 96 94 100 96 95 89 97 98 99 94 94 91 90 98 98 97 99 99 98 98 98 96 95 89 88 89 75 67 58 58 60 63 68 80 84 87 83 86 84 78 77 80 80 76
84 84 85 81 82 82 84 87 89 90 100 100 99 95 90 96 96 98 98 98 94 91 94 97 91 94 95 97 98 95 97 94 85 91 91 80 71 63 59 56 53 57 56 60 77 78 83 86 84 82 79 77 80 75
82 86 73 80 82 81 84 92 96 100 100 100 98 94 91 93 95 96 95 92 81 94 98 99 99 91 97 98 99 96 96 90 87 70 92 84 78 55 46 56 53 56 54 53 58 65 78 87 91 91 83 80 82 78
85 82 75 75 81 82 87 93 99 99 99 94 93 75 82 80 76 70 67 82 91 95 98 97 96 100 96 97 74 74 84 74 76 74 60 44 62 58 60 59 56 55 61 63 67 69 82 89 89 78 77 86 88 89
78 80 77 77 78 90 100 100 100 97 92 91 76 69 71 68 76 70 78 80 78 86 96 99 97 88 72 61 65 67 67 65 59 50 45 46 64 64 62 68 70 71 74 71 69 69 67 73 68 69 71 82 75 75
81 78 78 80 81 100 99 100 100 96 87 68 79 77 78 75 66 68 61 60 76 96 96 92 82 68 65 58 63 55 52 48 47 52 54 46 39 50 68 75 69 68 77 82 81 75 86 85 78 70 71 70 76 72
82 80 81 86 98 100 100 99 99 95 95 94 86 73 75 88 77 78 77 70 82 80 81 76 67 56 52 47 44 48 48 49 50 47 47 52 46 48 52 55 60 78 75 67 76 75 73 73 60 61 66 68 67 61
85 84 98 97 100 100 99 99 98 96 96 92 98 96 92 84 81 77 74 88 83 78 75 69 64 61 60 58 54 54 52 53 53 54 57 56 60 60 60 61 69 74 76 76 70 63 59 57 63 64 67 65 66 74
90 95 100 100 99 99 99 98 98 98 98 97 95 94 93 79 73 86 86 88 85 75 67 66 66 65 67 62 62 62 60 61 62 60 58 58 58 62 68 69 68 77 77 73 77 74 74 67 66 68 70 72 86 97
97 99 99 98 98 97 98 97 98 96 95 92 91 83 85 76 84 88 84 68 59 59 62 66 65 67 66 67 68 65 62 62 66 65 65 71 74 69 66 66 64 67 72 72 76 74 78 82 72 76 89 92 98 98
99 98 98 98 97 98 97 99 100 98 94 90 88 88 91 93 95 86 75 64 60 58 58 54 53 54 57 56 53 53 53 61 66 68 67 71 74 75 78 77 73 70 81 84 83 85 80 88 89 83 88 98 98 97
97 96 97 91 96 94 92 96 98 92 83 86 85 88 91 82 83 84 67 66 59 57 54 55 57 58 64 66 66 69 65 65 84 86 72 72 74 78 83 84 84 80 86 83 85 85 85 86 90 92 98 99 98 98
97 97 98 85 89 90 92 79 70 86 87 89 92 87 95 98 92 65 80 76 62 60 60 73 87 79 84 77 65 66 65 83 84 75 86 89 87 85 84 84 81 73 90 88 87 85 85 88 95 98 98 99 98 98
94 87 90 92 99 89 81 85 94 89 88 91 94 98 99 91 64 52 60 54 79 88 93 90 89 86 81 75 74 81 85 91 94 95 93 87 84 85 84 81 80 79 84 90 88 89 91 92 96 98 98 97 96 96
99 95 88 89 86 98 93 89 81 82 72 88 74 67 63 53 53 58 55 62 91 94 94 77 69 73 80 85 89 88 88 96 96 92 87 80 69 74 90 88 89 95 97 96 82 88 90 92 94 94 93 95 96 96
92 74 81 88 93 92 86 91 88 68 61 58 56 57 57 56 54 56 81 79 77 72 66 64 65 88 76 72 71 70 82 87 87 80 80 74 69 79 94 95 95 97 96 95 96 94 79 90 87 97 97 97 96 97
82 85 94 84 80 73 70 65 85 80 90 95 88 80 73 68 59 56 63 64 67 72 72 72 72 72 74 73 73 72 66 75 85 83 79 76 79 92 91 94 97 97 95 95 95 95 95 98 96 96 96 98 97 97
92 77 75 80 77 70 95 97 92 89 76 93 78 89 98 97 81 64 67 79 70 73 73 71 70 65 60 61 64 67 67 68 76 86 85 86 86 87 92 96 95 95 94 94 95 96 94 95 95 95 96 96 96 96
98 95 92 88 82 93 97 95 98 97 99 82 74 73 74 74 76 60 85 68 59 58 59 58 59 61 64 70 69 69 70 73 72 74 79 82 80 87 93 95 94 93 92 93 95 94 94 95 95 96 96 95 95 95

GFSWCAN_sfc_rhum_117.txt.gz
RH
96 95 94 92 92 92 91 89 88 90 92 93 89 81 78 81 82 86 90 83 85 94 82 62 56 60 67 74 65 64 65 75 88 87 84 77 72 57 65 58 80 83 92 90 84 81 89 54 57 47 42 46 41 46
96 95 94 93 94 93 91 91 90 90 88 92 94 88 80 77 80 82 91 76 78 89 71 79 67 61 55 59 68 68 63 71 78 87 85 79 73 69 62 62 65 66 59 74 71 68 51 54 47 44 45 41 45 48
90 91 92 93 93 90 91 91 92 91 88 89 93 94 87 77 76 79 95 92 92 96 89 88 79 71 63 64 63 69 70 64 79 79 86 88 88 80 81 70 62 50 47 54 51 45 48 41 43 46 48 48 47 47
89 88 88 89 89 90 91 91 93 92 88 87 88 91 93 84 78 83 96 93 90 92 97 78 63 74 69 68 72 73 74 76 81 91 90 92 88 69 72 60 63 54 64 55 49 38 36 34 34 34 36 42 47 48
83 84 84 86 88 90 91 92 92 92 88 87 89 91 94 90 82 88 97 94 90 82 92 89 81 77 74 76 79 81 79 83 92 91 99 98 93 82 79 82 63 54 52 60 56 36 37 34 41 44 44 45 47 51
84 84 83 86 89 90 92 91 91 90 87 87 87 91 93 94 85 86 92 95 92 89 97 96 84 82 82 83 84 86 88 90 92 94 95 93 83 83 95 97 72 50 46 40 42 36 40 43 45 44 44 48 51 56
83 83 85 84 89 88 88 87 87 88 90 90 89 89 91 94 92 87 90 86 86 81 90 94 93 86 85 87 91 92 90 93 94 94 96 94 91 88 96 96 49 53 51 51 52 56 55 53 48 50 53 51 59 61
87 85 82 87 85 87 86 87 86 86 86 87 87 92 93 94 88 95 93 81 78 83 92 99 94 92 86 94 96 88 89 88 93 96 94 94 92 92 94 68 64 64 62 59 53 52 48 51 59 63 64 66 69 70
90 87 82 86 83 86 85 85 85 86 87 91 90 86 92 95 100 98 85 82 83 83 99 99 98 93 90 92 95 94 85 94 87 99 95 94 94 97 80 78 72 66 68 57 56 63 65 66 67 68 71 75 77 79
90 90 85 87 85 87 86 84 84 87 88 90 91 96 98 99 86 88 94 98 99 99 100 99 96 98 91 94 92 96 88 89 94 89 88 98 90 68 58 54 53 53 53 56 76 71 76 76 73 74 74 75 75 73
87 89 88 89 87 87 88 83 84 90 88 97 99 99 97 88 97 99 100 100 99 99 97 97 95 90 82 92 90 87 98 93 94 92 92 94 90 78 65 67 62 62 65 67 70 68 70 68 72 76 75 74 76 79
86 88 89 89 89 86 85 83 84 94 98 93 94 93 96 99 100 100 99 99 99 95 96 96 94 91 90 84 95 96 97 96 94 93 96 91 85 77 75 67 59 64 73 71 74 76 78 72 70 74 78 81 84 86
86 87 87 85 83 79 81 83 85 85 86 94 96 99 100 99 99 99 96 99 99 95 96 93 95 90 87 89 92 99 98 92 92 92 88 87 78 64 64 71 64 69 67 67 73 75 75 76 74 72 73 77 78 82
87 86 86 85 83 81 81 83 84 88 95 96 93 93 95 95 94 93 95 94 91 97 96 94 96 94 90 97 95 100 89 99 98 98 92 90 74 62 66 67 65 58 63 66 77 81 77 74 74 73 78 79 80 82
84 86 86 87 86 85 84 85 84 96 97 89 98 96 92 89 97 98 98 94 94 94 93 98 98 98 98 99 96 98 100 98 95 88 89 94 75 74 69 59 51 45 57 67 74 79 77 78 74 68 75 81 81 81
82 83 84 84 85 84 84 87 92 97 100 100 98 93 82 98 94 97 99 98 96 94 96 97 94 96 96 96 100 96 97 95 86 93 93 89 77 76 64 63 58 52 55 58 65 70 76 80 76 73 76 79 77 81
81 91 76 79 85 84 85 96 98 100 99 99 97 86 97 98 95 96 96 93 94 92 96 98 99 92 96 99 99 95 96 81 84 84 83 73 74 46 48 62 64 62 58 54 66 64 72 79 89 92 84 68 83 85
90 87 77 76 81 84 86 96 96 99 97 94 99 83 98 93 92 89 91 94 94 96 98 96 97 94 89 97 75 79 88 90 84 78 55 48 45 46 50 53 58 58 64 65 67 72 85 84 85 76 72 72 90 88
84 87 80 79 78 97 100 100 99 97 92 97 94 94 90 84 85 76 83 86 84 94 98 100 99 96 84 66 69 71 70 67 61 54 51 50 48 44 45 54 62 72 74 71 66 62 61 75 70 66 69 89 79 70
75 78 80 80 80 100 99 99 100 98 98 90 90 68 75 71 62 74 73 71 79 95 86 83 69 58 56 49 56 71 80 66 48 46 46 43 42 49 55 60 60 62 67 73 79 75 79 89 83 76 74 72 76 70
76 80 82 86 92 100 100 99 99 97 96 92 78 72 87 96 90 81 81 84 92 81 79 64 57 50 48 45 44 48 49 50 50 48 51 55 48 50 54 56 60 57 61 63 66 66 70 76 70 68 78 72 71 68
86 74 96 87 100 100 99 100 98 97 97 95 98 92 97 90 75 73 90 90 88 72 66 64 63 61 60 58 55 54 53 54 55 57 60 59 64 63 61 62 67 73 74 74 73 75 74 69 72 73 77 73 70 74
78 83 99 100 99 99 97 99 98 98 99 99 99 95 96 96 92 90 92 87 67 58 60 62 61 61 64 62 63 64 64 66 67 66 62 62 62 63 67 68 68 78 79 76 79 80 80 75 77 80 82 78 80 81
79 100 99 98 98 97 99 98 98 97 98 98 97 97 95 92 94 93 87 64 55 53 59 64 63 67 67 74 77 71 67 65 66 66 65 68 72 68 64 67 65 68 74 77 81 83 82 83 82 88 88 87 86 84
99 98 99 97 98 98 97 97 96 100 98 96 91 96 91 94 90 97 74 62 64 62 60 56 57 58 61 58 55 54 52 56 62 74 78 75 72 69 74 74 74 71 78 89 88 86 87 92 92 90 93 95 97 98
97 96 97 94 95 94 94 100 100 98 97 97 95 91 97 92 96 87 83 66 57 58 56 54 54 55 57 58 60 71 86 88 96 98 93 75 72 79 82 82 81 74 81 83 86 89 90 91 94 92 98 98 99 99
97 97 98 95 94 91 92 83 81 91 93 92 95 99 99 96 94 79 65 67 59 66 59 58 60 66 65 63 72 81 82 89 93 80 70 72 80 80 82 81 79 69 79 89 90 90 90 88 88 98 99 99 99 99
92 96 94 91 99 95 90 97 92 88 87 88 92 94 89 87 65 53 62 67 78 82 81 66 61 72 76 76 73 74 80 76 82 95 95 91 89 83 82 82 80 78 82 82 88 93 90 90 92 95 98 98 98 98
99 99 90 94 98 100 91 86 85 83 73 87 68 63 60 48 48 52 50 53 60 90 75 68 64 67 75 83 79 80 80 82 87 88 85 77 69 65 82 88 86 88 94 95 88 87 94 96 95 95 95 97 98 98
98 90 94 95 91 93 83 88 91 69 58 56 54 54 54 53 51 53 59 66 85 74 67 66 68 74 71 68 70 70 76 87 84 85 80 77 71 72 88 90 92 96 98 98 97 96 79 90 91 98 98 98 98 98
93 88 93 87 81 66 65 61 87 70 85 81 74 75 69 63 56 59 66 65 68 73 79 76 70 65 68 73 75 75 75 73 85 82 80 74 74 78 82 90 92 96 98 97 97 97 96 99 97 98 98 98 97 97
90 85 79 88 76 70 90 93 92 83 77 81 81 75 75 95 83 68 57 64 68 69 66 65 67 67 62 62 64 69 69 69 67 76 89 84 84 83 83 94 95 96 97 97 97 96 95 95 96 96 96 96 97 96
98 96 85 79 92 86 93 92 97 99 100 83 76 72 74 75 78 62 78 68 59 60 61 59 59 60 61 65 66 68 67 72 73 72 75 75 78 80 95 96 95 96 96 97 96 96 95 94 95 95 95 96 96 96